<?xml version="1.0" encoding="UTF-8" standalone="no" ?>
<gpx xmlns="http://www.topografix.com/GPX/1/1" xmlns:xsi="http://www.w3.org/2001/XMLSchema-instance" xsi:schemaLocation="http://www.topografix.com/GPX/1/1 http://www.topografix.com/GPX/1/1/gpx.xsd" version="1.1" creator="VisuGPX - https://www.visugpx.com">
  <metadata>
    <name>2021-05-06 15:43:09</name>
    <desc><![CDATA[Boucle au départ du barrage de riète, en passant par le refuge des ludines]]></desc>
  </metadata>
  <trk>
    <name><![CDATA[2021-05-06 15:43:09]]></name>
    <trkseg>
      <trkpt lat="42.71444" lon="1.66551">
        <ele>1048.94</ele>
        <time>2021-05-06T08:02:08Z</time>
      </trkpt>
      <trkpt lat="42.71444" lon="1.66551">
        <ele>1048.94</ele>
        <time>2021-05-06T08:02:09Z</time>
      </trkpt>
      <trkpt lat="42.71444" lon="1.66551">
        <ele>1048.94</ele>
        <time>2021-05-06T08:02:10Z</time>
      </trkpt>
      <trkpt lat="42.71445" lon="1.66551">
        <ele>1047.01</ele>
        <time>2021-05-06T08:02:25Z</time>
      </trkpt>
      <trkpt lat="42.71445" lon="1.66551">
        <ele>1048.94</ele>
        <time>2021-05-06T08:02:27Z</time>
      </trkpt>
      <trkpt lat="42.71445" lon="1.6655">
        <ele>1048.45</ele>
        <time>2021-05-06T08:02:50Z</time>
      </trkpt>
      <trkpt lat="42.71446" lon="1.66549">
        <ele>1048.45</ele>
        <time>2021-05-06T08:03:19Z</time>
      </trkpt>
      <trkpt lat="42.71446" lon="1.6655">
        <ele>1046.53</ele>
        <time>2021-05-06T08:03:22Z</time>
      </trkpt>
      <trkpt lat="42.71446" lon="1.66548">
        <ele>1048.45</ele>
        <time>2021-05-06T08:03:26Z</time>
      </trkpt>
      <trkpt lat="42.71445" lon="1.66547">
        <ele>1048.94</ele>
        <time>2021-05-06T08:03:43Z</time>
      </trkpt>
      <trkpt lat="42.71443" lon="1.66548">
        <ele>1048.94</ele>
        <time>2021-05-06T08:03:50Z</time>
      </trkpt>
      <trkpt lat="42.71444" lon="1.66548">
        <ele>1046.53</ele>
        <time>2021-05-06T08:03:56Z</time>
      </trkpt>
      <trkpt lat="42.71434" lon="1.66547">
        <ele>1047.97</ele>
        <time>2021-05-06T08:04:25Z</time>
      </trkpt>
      <trkpt lat="42.71434" lon="1.66548">
        <ele>1047.97</ele>
        <time>2021-05-06T08:04:27Z</time>
      </trkpt>
      <trkpt lat="42.71436" lon="1.66547">
        <ele>1047.49</ele>
        <time>2021-05-06T08:04:38Z</time>
      </trkpt>
      <trkpt lat="42.71437" lon="1.66549">
        <ele>1047.49</ele>
        <time>2021-05-06T08:04:40Z</time>
      </trkpt>
      <trkpt lat="42.71435" lon="1.66554">
        <ele>1047.49</ele>
        <time>2021-05-06T08:04:44Z</time>
      </trkpt>
      <trkpt lat="42.71434" lon="1.66558">
        <ele>1047.49</ele>
        <time>2021-05-06T08:04:47Z</time>
      </trkpt>
      <trkpt lat="42.71433" lon="1.66563">
        <ele>1047.97</ele>
        <time>2021-05-06T08:04:51Z</time>
      </trkpt>
      <trkpt lat="42.7142" lon="1.66572">
        <ele>1048.45</ele>
        <time>2021-05-06T08:05:04Z</time>
      </trkpt>
      <trkpt lat="42.71416" lon="1.66572">
        <ele>1048.94</ele>
        <time>2021-05-06T08:05:10Z</time>
      </trkpt>
      <trkpt lat="42.71418" lon="1.66584">
        <ele>1049.9</ele>
        <time>2021-05-06T08:05:21Z</time>
      </trkpt>
      <trkpt lat="42.71418" lon="1.66588">
        <ele>1050.86</ele>
        <time>2021-05-06T08:05:25Z</time>
      </trkpt>
      <trkpt lat="42.7142" lon="1.66596">
        <ele>1051.82</ele>
        <time>2021-05-06T08:05:31Z</time>
      </trkpt>
      <trkpt lat="42.71421" lon="1.66597">
        <ele>1051.82</ele>
        <time>2021-05-06T08:05:32Z</time>
      </trkpt>
      <trkpt lat="42.71441" lon="1.66612">
        <ele>1052.3</ele>
        <time>2021-05-06T08:05:44Z</time>
      </trkpt>
      <trkpt lat="42.71442" lon="1.66613">
        <ele>1052.3</ele>
        <time>2021-05-06T08:05:45Z</time>
      </trkpt>
      <trkpt lat="42.71447" lon="1.66617">
        <ele>1052.78</ele>
        <time>2021-05-06T08:05:49Z</time>
      </trkpt>
      <trkpt lat="42.71447" lon="1.66618">
        <ele>1052.78</ele>
        <time>2021-05-06T08:05:50Z</time>
      </trkpt>
      <trkpt lat="42.71459" lon="1.66634">
        <ele>1053.74</ele>
        <time>2021-05-06T08:06:02Z</time>
      </trkpt>
      <trkpt lat="42.71461" lon="1.66637">
        <ele>1053.74</ele>
        <time>2021-05-06T08:06:04Z</time>
      </trkpt>
      <trkpt lat="42.71462" lon="1.6664">
        <ele>1053.74</ele>
        <time>2021-05-06T08:06:06Z</time>
      </trkpt>
      <trkpt lat="42.71463" lon="1.66642">
        <ele>1054.22</ele>
        <time>2021-05-06T08:06:07Z</time>
      </trkpt>
      <trkpt lat="42.71469" lon="1.66676">
        <ele>1056.63</ele>
        <time>2021-05-06T08:06:23Z</time>
      </trkpt>
      <trkpt lat="42.71472" lon="1.66683">
        <ele>1057.59</ele>
        <time>2021-05-06T08:06:27Z</time>
      </trkpt>
      <trkpt lat="42.71473" lon="1.66684">
        <ele>1058.07</ele>
        <time>2021-05-06T08:06:28Z</time>
      </trkpt>
      <trkpt lat="42.71479" lon="1.66698">
        <ele>1059.03</ele>
        <time>2021-05-06T08:06:38Z</time>
      </trkpt>
      <trkpt lat="42.71479" lon="1.66699">
        <ele>1059.03</ele>
        <time>2021-05-06T08:06:39Z</time>
      </trkpt>
      <trkpt lat="42.71482" lon="1.66702">
        <ele>1059.99</ele>
        <time>2021-05-06T08:06:41Z</time>
      </trkpt>
      <trkpt lat="42.71483" lon="1.66704">
        <ele>1059.99</ele>
        <time>2021-05-06T08:06:42Z</time>
      </trkpt>
      <trkpt lat="42.71484" lon="1.66708">
        <ele>1059.99</ele>
        <time>2021-05-06T08:06:45Z</time>
      </trkpt>
      <trkpt lat="42.71486" lon="1.6671">
        <ele>1059.99</ele>
        <time>2021-05-06T08:06:46Z</time>
      </trkpt>
      <trkpt lat="42.71487" lon="1.66712">
        <ele>1060.47</ele>
        <time>2021-05-06T08:06:48Z</time>
      </trkpt>
      <trkpt lat="42.71488" lon="1.66714">
        <ele>1060.47</ele>
        <time>2021-05-06T08:06:49Z</time>
      </trkpt>
      <trkpt lat="42.71498" lon="1.66726">
        <ele>1061.43</ele>
        <time>2021-05-06T08:06:58Z</time>
      </trkpt>
      <trkpt lat="42.71507" lon="1.66741">
        <ele>1062.39</ele>
        <time>2021-05-06T08:07:10Z</time>
      </trkpt>
      <trkpt lat="42.71514" lon="1.66755">
        <ele>1064.32</ele>
        <time>2021-05-06T08:07:22Z</time>
      </trkpt>
      <trkpt lat="42.71521" lon="1.66763">
        <ele>1064.8</ele>
        <time>2021-05-06T08:07:28Z</time>
      </trkpt>
      <trkpt lat="42.71522" lon="1.66765">
        <ele>1064.8</ele>
        <time>2021-05-06T08:07:29Z</time>
      </trkpt>
      <trkpt lat="42.71529" lon="1.66781">
        <ele>1066.24</ele>
        <time>2021-05-06T08:07:40Z</time>
      </trkpt>
      <trkpt lat="42.7153" lon="1.66782">
        <ele>1066.24</ele>
        <time>2021-05-06T08:07:41Z</time>
      </trkpt>
      <trkpt lat="42.71532" lon="1.66783">
        <ele>1066.24</ele>
        <time>2021-05-06T08:07:42Z</time>
      </trkpt>
      <trkpt lat="42.71532" lon="1.66795">
        <ele>1067.68</ele>
        <time>2021-05-06T08:07:51Z</time>
      </trkpt>
      <trkpt lat="42.71533" lon="1.66797">
        <ele>1067.68</ele>
        <time>2021-05-06T08:07:53Z</time>
      </trkpt>
      <trkpt lat="42.71534" lon="1.66799">
        <ele>1067.68</ele>
        <time>2021-05-06T08:07:54Z</time>
      </trkpt>
      <trkpt lat="42.71541" lon="1.66808">
        <ele>1069.12</ele>
        <time>2021-05-06T08:08:03Z</time>
      </trkpt>
      <trkpt lat="42.71545" lon="1.6681">
        <ele>1069.6</ele>
        <time>2021-05-06T08:08:06Z</time>
      </trkpt>
      <trkpt lat="42.71547" lon="1.66811">
        <ele>1069.6</ele>
        <time>2021-05-06T08:08:07Z</time>
      </trkpt>
      <trkpt lat="42.71554" lon="1.66817">
        <ele>1070.57</ele>
        <time>2021-05-06T08:08:11Z</time>
      </trkpt>
      <trkpt lat="42.71554" lon="1.66817">
        <ele>1070.57</ele>
        <time>2021-05-06T08:08:12Z</time>
      </trkpt>
      <trkpt lat="42.71557" lon="1.66823">
        <ele>1072.01</ele>
        <time>2021-05-06T08:08:15Z</time>
      </trkpt>
      <trkpt lat="42.71564" lon="1.66833">
        <ele>1072.97</ele>
        <time>2021-05-06T08:08:23Z</time>
      </trkpt>
      <trkpt lat="42.71565" lon="1.66836">
        <ele>1072.97</ele>
        <time>2021-05-06T08:08:25Z</time>
      </trkpt>
      <trkpt lat="42.7157" lon="1.66838">
        <ele>1073.45</ele>
        <time>2021-05-06T08:08:32Z</time>
      </trkpt>
      <trkpt lat="42.71572" lon="1.66838">
        <ele>1073.45</ele>
        <time>2021-05-06T08:08:33Z</time>
      </trkpt>
      <trkpt lat="42.71583" lon="1.66839">
        <ele>1073.45</ele>
        <time>2021-05-06T08:08:43Z</time>
      </trkpt>
      <trkpt lat="42.7159" lon="1.66838">
        <ele>1073.93</ele>
        <time>2021-05-06T08:08:55Z</time>
      </trkpt>
      <trkpt lat="42.71594" lon="1.66835">
        <ele>1073.93</ele>
        <time>2021-05-06T08:09:09Z</time>
      </trkpt>
      <trkpt lat="42.71592" lon="1.66834">
        <ele>1073.93</ele>
        <time>2021-05-06T08:09:24Z</time>
      </trkpt>
      <trkpt lat="42.71593" lon="1.66832">
        <ele>1073.93</ele>
        <time>2021-05-06T08:09:27Z</time>
      </trkpt>
      <trkpt lat="42.71593" lon="1.66831">
        <ele>1073.93</ele>
        <time>2021-05-06T08:09:28Z</time>
      </trkpt>
      <trkpt lat="42.71601" lon="1.66832">
        <ele>1073.93</ele>
        <time>2021-05-06T08:09:37Z</time>
      </trkpt>
      <trkpt lat="42.71602" lon="1.66831">
        <ele>1073.93</ele>
        <time>2021-05-06T08:09:38Z</time>
      </trkpt>
      <trkpt lat="42.71605" lon="1.66832">
        <ele>1073.93</ele>
        <time>2021-05-06T08:09:40Z</time>
      </trkpt>
      <trkpt lat="42.71607" lon="1.66832">
        <ele>1073.93</ele>
        <time>2021-05-06T08:09:42Z</time>
      </trkpt>
      <trkpt lat="42.71619" lon="1.66837">
        <ele>1073.93</ele>
        <time>2021-05-06T08:09:51Z</time>
      </trkpt>
      <trkpt lat="42.71625" lon="1.66839">
        <ele>1074.89</ele>
        <time>2021-05-06T08:09:59Z</time>
      </trkpt>
      <trkpt lat="42.71632" lon="1.66841">
        <ele>1075.85</ele>
        <time>2021-05-06T08:10:03Z</time>
      </trkpt>
      <trkpt lat="42.71636" lon="1.6684">
        <ele>1077.29</ele>
        <time>2021-05-06T08:10:08Z</time>
      </trkpt>
      <trkpt lat="42.71637" lon="1.6684">
        <ele>1077.29</ele>
        <time>2021-05-06T08:10:09Z</time>
      </trkpt>
      <trkpt lat="42.71641" lon="1.66839">
        <ele>1077.78</ele>
        <time>2021-05-06T08:10:13Z</time>
      </trkpt>
      <trkpt lat="42.71647" lon="1.66839">
        <ele>1079.7</ele>
        <time>2021-05-06T08:10:17Z</time>
      </trkpt>
      <trkpt lat="42.71648" lon="1.66839">
        <ele>1079.7</ele>
        <time>2021-05-06T08:10:18Z</time>
      </trkpt>
      <trkpt lat="42.71663" lon="1.66847">
        <ele>1082.58</ele>
        <time>2021-05-06T08:10:29Z</time>
      </trkpt>
      <trkpt lat="42.71663" lon="1.66848">
        <ele>1083.06</ele>
        <time>2021-05-06T08:10:32Z</time>
      </trkpt>
      <trkpt lat="42.71664" lon="1.66849">
        <ele>1083.54</ele>
        <time>2021-05-06T08:10:33Z</time>
      </trkpt>
      <trkpt lat="42.71671" lon="1.66858">
        <ele>1085.95</ele>
        <time>2021-05-06T08:10:43Z</time>
      </trkpt>
      <trkpt lat="42.71675" lon="1.66863">
        <ele>1087.87</ele>
        <time>2021-05-06T08:10:50Z</time>
      </trkpt>
      <trkpt lat="42.71677" lon="1.66867">
        <ele>1088.35</ele>
        <time>2021-05-06T08:10:55Z</time>
      </trkpt>
      <trkpt lat="42.71677" lon="1.66868">
        <ele>1088.35</ele>
        <time>2021-05-06T08:10:56Z</time>
      </trkpt>
      <trkpt lat="42.71679" lon="1.66872">
        <ele>1088.83</ele>
        <time>2021-05-06T08:10:59Z</time>
      </trkpt>
      <trkpt lat="42.71679" lon="1.66873">
        <ele>1088.83</ele>
        <time>2021-05-06T08:11:00Z</time>
      </trkpt>
      <trkpt lat="42.71683" lon="1.66887">
        <ele>1089.31</ele>
        <time>2021-05-06T08:11:10Z</time>
      </trkpt>
      <trkpt lat="42.71691" lon="1.66896">
        <ele>1090.27</ele>
        <time>2021-05-06T08:11:24Z</time>
      </trkpt>
      <trkpt lat="42.71691" lon="1.66901">
        <ele>1090.27</ele>
        <time>2021-05-06T08:11:28Z</time>
      </trkpt>
      <trkpt lat="42.71692" lon="1.66903">
        <ele>1090.27</ele>
        <time>2021-05-06T08:11:29Z</time>
      </trkpt>
      <trkpt lat="42.71698" lon="1.66915">
        <ele>1091.23</ele>
        <time>2021-05-06T08:11:40Z</time>
      </trkpt>
      <trkpt lat="42.71708" lon="1.66927">
        <ele>1092.2</ele>
        <time>2021-05-06T08:11:49Z</time>
      </trkpt>
      <trkpt lat="42.71719" lon="1.6694">
        <ele>1092.68</ele>
        <time>2021-05-06T08:12:02Z</time>
      </trkpt>
      <trkpt lat="42.71729" lon="1.66945">
        <ele>1092.68</ele>
        <time>2021-05-06T08:12:14Z</time>
      </trkpt>
      <trkpt lat="42.71744" lon="1.66956">
        <ele>1092.68</ele>
        <time>2021-05-06T08:12:27Z</time>
      </trkpt>
      <trkpt lat="42.71749" lon="1.66962">
        <ele>1092.68</ele>
        <time>2021-05-06T08:12:41Z</time>
      </trkpt>
      <trkpt lat="42.71747" lon="1.66959">
        <ele>1091.23</ele>
        <time>2021-05-06T08:12:52Z</time>
      </trkpt>
      <trkpt lat="42.71747" lon="1.66958">
        <ele>1093.16</ele>
        <time>2021-05-06T08:12:53Z</time>
      </trkpt>
      <trkpt lat="42.71747" lon="1.66957">
        <ele>1093.16</ele>
        <time>2021-05-06T08:13:05Z</time>
      </trkpt>
      <trkpt lat="42.71751" lon="1.66959">
        <ele>1091.71</ele>
        <time>2021-05-06T08:13:35Z</time>
      </trkpt>
      <trkpt lat="42.71753" lon="1.66961">
        <ele>1091.71</ele>
        <time>2021-05-06T08:14:04Z</time>
      </trkpt>
      <trkpt lat="42.71743" lon="1.66951">
        <ele>1091.71</ele>
        <time>2021-05-06T08:14:38Z</time>
      </trkpt>
      <trkpt lat="42.71744" lon="1.66955">
        <ele>1091.71</ele>
        <time>2021-05-06T08:15:04Z</time>
      </trkpt>
      <trkpt lat="42.71743" lon="1.66956">
        <ele>1092.68</ele>
        <time>2021-05-06T08:15:09Z</time>
      </trkpt>
      <trkpt lat="42.71744" lon="1.66955">
        <ele>1091.23</ele>
        <time>2021-05-06T08:15:20Z</time>
      </trkpt>
      <trkpt lat="42.71744" lon="1.66955">
        <ele>1093.64</ele>
        <time>2021-05-06T08:15:22Z</time>
      </trkpt>
      <trkpt lat="42.71742" lon="1.66952">
        <ele>1091.71</ele>
        <time>2021-05-06T08:15:32Z</time>
      </trkpt>
      <trkpt lat="42.71735" lon="1.66948">
        <ele>1091.71</ele>
        <time>2021-05-06T08:15:39Z</time>
      </trkpt>
      <trkpt lat="42.71731" lon="1.66944">
        <ele>1091.71</ele>
        <time>2021-05-06T08:15:43Z</time>
      </trkpt>
      <trkpt lat="42.71711" lon="1.66941">
        <ele>1091.71</ele>
        <time>2021-05-06T08:15:59Z</time>
      </trkpt>
      <trkpt lat="42.717" lon="1.6692">
        <ele>1091.23</ele>
        <time>2021-05-06T08:16:14Z</time>
      </trkpt>
      <trkpt lat="42.71698" lon="1.66911">
        <ele>1090.27</ele>
        <time>2021-05-06T08:16:20Z</time>
      </trkpt>
      <trkpt lat="42.71698" lon="1.6691">
        <ele>1090.27</ele>
        <time>2021-05-06T08:16:21Z</time>
      </trkpt>
      <trkpt lat="42.717" lon="1.66907">
        <ele>1089.79</ele>
        <time>2021-05-06T08:16:29Z</time>
      </trkpt>
      <trkpt lat="42.71699" lon="1.66901">
        <ele>1089.79</ele>
        <time>2021-05-06T08:16:36Z</time>
      </trkpt>
      <trkpt lat="42.7169" lon="1.66894">
        <ele>1089.31</ele>
        <time>2021-05-06T08:16:45Z</time>
      </trkpt>
      <trkpt lat="42.71687" lon="1.66889">
        <ele>1088.35</ele>
        <time>2021-05-06T08:16:49Z</time>
      </trkpt>
      <trkpt lat="42.71683" lon="1.6687">
        <ele>1087.87</ele>
        <time>2021-05-06T08:17:00Z</time>
      </trkpt>
      <trkpt lat="42.71681" lon="1.66867">
        <ele>1087.39</ele>
        <time>2021-05-06T08:17:04Z</time>
      </trkpt>
      <trkpt lat="42.71678" lon="1.66859">
        <ele>1084.99</ele>
        <time>2021-05-06T08:17:13Z</time>
      </trkpt>
      <trkpt lat="42.7167" lon="1.66845">
        <ele>1081.62</ele>
        <time>2021-05-06T08:17:24Z</time>
      </trkpt>
      <trkpt lat="42.71662" lon="1.66837">
        <ele>1080.18</ele>
        <time>2021-05-06T08:17:33Z</time>
      </trkpt>
      <trkpt lat="42.71655" lon="1.66833">
        <ele>1078.26</ele>
        <time>2021-05-06T08:17:39Z</time>
      </trkpt>
      <trkpt lat="42.71652" lon="1.66833">
        <ele>1077.78</ele>
        <time>2021-05-06T08:17:41Z</time>
      </trkpt>
      <trkpt lat="42.71643" lon="1.6683">
        <ele>1075.37</ele>
        <time>2021-05-06T08:17:51Z</time>
      </trkpt>
      <trkpt lat="42.7164" lon="1.66829">
        <ele>1073.93</ele>
        <time>2021-05-06T08:17:58Z</time>
      </trkpt>
      <trkpt lat="42.71636" lon="1.66827">
        <ele>1073.45</ele>
        <time>2021-05-06T08:18:04Z</time>
      </trkpt>
      <trkpt lat="42.71623" lon="1.66826">
        <ele>1073.45</ele>
        <time>2021-05-06T08:18:15Z</time>
      </trkpt>
      <trkpt lat="42.71613" lon="1.6683">
        <ele>1073.45</ele>
        <time>2021-05-06T08:18:20Z</time>
      </trkpt>
      <trkpt lat="42.71612" lon="1.66831">
        <ele>1073.45</ele>
        <time>2021-05-06T08:18:21Z</time>
      </trkpt>
      <trkpt lat="42.71608" lon="1.66834">
        <ele>1072.01</ele>
        <time>2021-05-06T08:18:24Z</time>
      </trkpt>
      <trkpt lat="42.71607" lon="1.66834">
        <ele>1073.93</ele>
        <time>2021-05-06T08:18:25Z</time>
      </trkpt>
      <trkpt lat="42.716" lon="1.66839">
        <ele>1072.49</ele>
        <time>2021-05-06T08:18:32Z</time>
      </trkpt>
      <trkpt lat="42.71596" lon="1.66839">
        <ele>1072.49</ele>
        <time>2021-05-06T08:18:37Z</time>
      </trkpt>
      <trkpt lat="42.71594" lon="1.66838">
        <ele>1072.01</ele>
        <time>2021-05-06T08:18:39Z</time>
      </trkpt>
      <trkpt lat="42.71587" lon="1.66832">
        <ele>1071.53</ele>
        <time>2021-05-06T08:18:46Z</time>
      </trkpt>
      <trkpt lat="42.71582" lon="1.66828">
        <ele>1070.57</ele>
        <time>2021-05-06T08:18:53Z</time>
      </trkpt>
      <trkpt lat="42.71582" lon="1.66827">
        <ele>1070.57</ele>
        <time>2021-05-06T08:18:54Z</time>
      </trkpt>
      <trkpt lat="42.71576" lon="1.66817">
        <ele>1069.12</ele>
        <time>2021-05-06T08:19:02Z</time>
      </trkpt>
      <trkpt lat="42.71575" lon="1.66816">
        <ele>1069.12</ele>
        <time>2021-05-06T08:19:03Z</time>
      </trkpt>
      <trkpt lat="42.71566" lon="1.66808">
        <ele>1067.68</ele>
        <time>2021-05-06T08:19:12Z</time>
      </trkpt>
      <trkpt lat="42.71566" lon="1.66807">
        <ele>1067.68</ele>
        <time>2021-05-06T08:19:13Z</time>
      </trkpt>
      <trkpt lat="42.71564" lon="1.66804">
        <ele>1067.2</ele>
        <time>2021-05-06T08:19:15Z</time>
      </trkpt>
      <trkpt lat="42.71559" lon="1.668">
        <ele>1066.72</ele>
        <time>2021-05-06T08:19:21Z</time>
      </trkpt>
      <trkpt lat="42.71558" lon="1.66799">
        <ele>1066.24</ele>
        <time>2021-05-06T08:19:22Z</time>
      </trkpt>
      <trkpt lat="42.71556" lon="1.66797">
        <ele>1066.72</ele>
        <time>2021-05-06T08:19:24Z</time>
      </trkpt>
      <trkpt lat="42.71555" lon="1.66796">
        <ele>1065.76</ele>
        <time>2021-05-06T08:19:25Z</time>
      </trkpt>
      <trkpt lat="42.71542" lon="1.66779">
        <ele>1064.8</ele>
        <time>2021-05-06T08:19:39Z</time>
      </trkpt>
      <trkpt lat="42.71539" lon="1.66769">
        <ele>1063.36</ele>
        <time>2021-05-06T08:19:51Z</time>
      </trkpt>
      <trkpt lat="42.71534" lon="1.66755">
        <ele>1061.91</ele>
        <time>2021-05-06T08:20:03Z</time>
      </trkpt>
      <trkpt lat="42.71532" lon="1.66747">
        <ele>1061.43</ele>
        <time>2021-05-06T08:20:08Z</time>
      </trkpt>
      <trkpt lat="42.71531" lon="1.66743">
        <ele>1061.43</ele>
        <time>2021-05-06T08:20:10Z</time>
      </trkpt>
      <trkpt lat="42.71528" lon="1.66737">
        <ele>1060.95</ele>
        <time>2021-05-06T08:20:14Z</time>
      </trkpt>
      <trkpt lat="42.71511" lon="1.66717">
        <ele>1059.51</ele>
        <time>2021-05-06T08:20:28Z</time>
      </trkpt>
      <trkpt lat="42.71508" lon="1.66712">
        <ele>1059.03</ele>
        <time>2021-05-06T08:20:33Z</time>
      </trkpt>
      <trkpt lat="42.71507" lon="1.66711">
        <ele>1058.55</ele>
        <time>2021-05-06T08:20:34Z</time>
      </trkpt>
      <trkpt lat="42.71498" lon="1.66696">
        <ele>1057.59</ele>
        <time>2021-05-06T08:20:45Z</time>
      </trkpt>
      <trkpt lat="42.71494" lon="1.66682">
        <ele>1056.15</ele>
        <time>2021-05-06T08:20:55Z</time>
      </trkpt>
      <trkpt lat="42.71494" lon="1.6668">
        <ele>1055.18</ele>
        <time>2021-05-06T08:20:56Z</time>
      </trkpt>
      <trkpt lat="42.71493" lon="1.66672">
        <ele>1054.7</ele>
        <time>2021-05-06T08:21:02Z</time>
      </trkpt>
      <trkpt lat="42.71492" lon="1.6667">
        <ele>1054.7</ele>
        <time>2021-05-06T08:21:03Z</time>
      </trkpt>
      <trkpt lat="42.71484" lon="1.66642">
        <ele>1052.78</ele>
        <time>2021-05-06T08:21:19Z</time>
      </trkpt>
      <trkpt lat="42.71486" lon="1.66618">
        <ele>1051.82</ele>
        <time>2021-05-06T08:21:30Z</time>
      </trkpt>
      <trkpt lat="42.7148" lon="1.66608">
        <ele>1051.82</ele>
        <time>2021-05-06T08:21:39Z</time>
      </trkpt>
      <trkpt lat="42.71452" lon="1.66601">
        <ele>1051.34</ele>
        <time>2021-05-06T08:21:52Z</time>
      </trkpt>
      <trkpt lat="42.71431" lon="1.66598">
        <ele>1050.38</ele>
        <time>2021-05-06T08:22:00Z</time>
      </trkpt>
      <trkpt lat="42.71428" lon="1.66598">
        <ele>1049.9</ele>
        <time>2021-05-06T08:22:01Z</time>
      </trkpt>
      <trkpt lat="42.71411" lon="1.66596">
        <ele>1048.45</ele>
        <time>2021-05-06T08:22:10Z</time>
      </trkpt>
      <trkpt lat="42.71411" lon="1.66594">
        <ele>1048.45</ele>
        <time>2021-05-06T08:22:11Z</time>
      </trkpt>
      <trkpt lat="42.71416" lon="1.66591">
        <ele>1047.49</ele>
        <time>2021-05-06T08:22:19Z</time>
      </trkpt>
      <trkpt lat="42.71417" lon="1.66591">
        <ele>1047.49</ele>
        <time>2021-05-06T08:22:20Z</time>
      </trkpt>
      <trkpt lat="42.71423" lon="1.66587">
        <ele>1047.49</ele>
        <time>2021-05-06T08:22:24Z</time>
      </trkpt>
      <trkpt lat="42.71438" lon="1.66568">
        <ele>1046.53</ele>
        <time>2021-05-06T08:22:40Z</time>
      </trkpt>
      <trkpt lat="42.71439" lon="1.66548">
        <ele>1047.97</ele>
        <time>2021-05-06T08:22:49Z</time>
      </trkpt>
      <trkpt lat="42.7144" lon="1.66545">
        <ele>1042.21</ele>
        <time>2021-05-06T08:23:00Z</time>
      </trkpt>
      <trkpt lat="42.7144" lon="1.66545">
        <ele>1042.21</ele>
        <time>2021-05-06T08:23:01Z</time>
      </trkpt>
      <trkpt lat="42.71439" lon="1.66545">
        <ele>1052.78</ele>
        <time>2021-05-06T08:23:02Z</time>
      </trkpt>
      <trkpt lat="42.7144" lon="1.66545">
        <ele>1047.97</ele>
        <time>2021-05-06T08:23:03Z</time>
      </trkpt>
      <trkpt lat="42.7146" lon="1.66537">
        <ele>1046.53</ele>
        <time>2021-05-06T08:23:29Z</time>
      </trkpt>
      <trkpt lat="42.71468" lon="1.66553">
        <ele>1046.05</ele>
        <time>2021-05-06T08:23:52Z</time>
      </trkpt>
      <trkpt lat="42.71463" lon="1.66552">
        <ele>1047.49</ele>
        <time>2021-05-06T08:24:03Z</time>
      </trkpt>
      <trkpt lat="42.71462" lon="1.66552">
        <ele>1047.01</ele>
        <time>2021-05-06T08:24:24Z</time>
      </trkpt>
      <trkpt lat="42.7146" lon="1.66547">
        <ele>1047.01</ele>
        <time>2021-05-06T08:24:50Z</time>
      </trkpt>
      <trkpt lat="42.71457" lon="1.66549">
        <ele>1046.53</ele>
        <time>2021-05-06T08:25:09Z</time>
      </trkpt>
      <trkpt lat="42.71456" lon="1.66546">
        <ele>1046.53</ele>
        <time>2021-05-06T08:25:12Z</time>
      </trkpt>
      <trkpt lat="42.71455" lon="1.66545">
        <ele>1046.53</ele>
        <time>2021-05-06T08:25:13Z</time>
      </trkpt>
      <trkpt lat="42.71446" lon="1.66528">
        <ele>1047.49</ele>
        <time>2021-05-06T08:25:27Z</time>
      </trkpt>
      <trkpt lat="42.71437" lon="1.66515">
        <ele>1049.42</ele>
        <time>2021-05-06T08:25:39Z</time>
      </trkpt>
      <trkpt lat="42.71435" lon="1.66503">
        <ele>1050.86</ele>
        <time>2021-05-06T08:25:51Z</time>
      </trkpt>
      <trkpt lat="42.71435" lon="1.66497">
        <ele>1051.34</ele>
        <time>2021-05-06T08:25:57Z</time>
      </trkpt>
      <trkpt lat="42.71433" lon="1.6648">
        <ele>1053.74</ele>
        <time>2021-05-06T08:26:09Z</time>
      </trkpt>
      <trkpt lat="42.71431" lon="1.66464">
        <ele>1054.7</ele>
        <time>2021-05-06T08:26:19Z</time>
      </trkpt>
      <trkpt lat="42.71431" lon="1.66461">
        <ele>1055.18</ele>
        <time>2021-05-06T08:26:21Z</time>
      </trkpt>
      <trkpt lat="42.7143" lon="1.66459">
        <ele>1055.18</ele>
        <time>2021-05-06T08:26:22Z</time>
      </trkpt>
      <trkpt lat="42.7143" lon="1.66457">
        <ele>1055.18</ele>
        <time>2021-05-06T08:26:23Z</time>
      </trkpt>
      <trkpt lat="42.7143" lon="1.66451">
        <ele>1055.67</ele>
        <time>2021-05-06T08:26:26Z</time>
      </trkpt>
      <trkpt lat="42.71432" lon="1.66446">
        <ele>1056.15</ele>
        <time>2021-05-06T08:26:30Z</time>
      </trkpt>
      <trkpt lat="42.71433" lon="1.6644">
        <ele>1057.11</ele>
        <time>2021-05-06T08:26:34Z</time>
      </trkpt>
      <trkpt lat="42.71433" lon="1.66438">
        <ele>1057.11</ele>
        <time>2021-05-06T08:26:35Z</time>
      </trkpt>
      <trkpt lat="42.71432" lon="1.6643">
        <ele>1058.07</ele>
        <time>2021-05-06T08:26:46Z</time>
      </trkpt>
      <trkpt lat="42.71432" lon="1.66431">
        <ele>1058.07</ele>
        <time>2021-05-06T08:26:47Z</time>
      </trkpt>
      <trkpt lat="42.71433" lon="1.66434">
        <ele>1058.07</ele>
        <time>2021-05-06T08:26:50Z</time>
      </trkpt>
      <trkpt lat="42.71427" lon="1.66452">
        <ele>1055.18</ele>
        <time>2021-05-06T08:27:03Z</time>
      </trkpt>
      <trkpt lat="42.71427" lon="1.66454">
        <ele>1054.7</ele>
        <time>2021-05-06T08:27:08Z</time>
      </trkpt>
      <trkpt lat="42.71426" lon="1.66455">
        <ele>1054.7</ele>
        <time>2021-05-06T08:27:09Z</time>
      </trkpt>
      <trkpt lat="42.71425" lon="1.66466">
        <ele>1054.22</ele>
        <time>2021-05-06T08:27:16Z</time>
      </trkpt>
      <trkpt lat="42.71425" lon="1.66467">
        <ele>1054.22</ele>
        <time>2021-05-06T08:27:17Z</time>
      </trkpt>
      <trkpt lat="42.71421" lon="1.66489">
        <ele>1050.86</ele>
        <time>2021-05-06T08:27:31Z</time>
      </trkpt>
      <trkpt lat="42.71423" lon="1.66497">
        <ele>1050.38</ele>
        <time>2021-05-06T08:27:33Z</time>
      </trkpt>
      <trkpt lat="42.71437" lon="1.66519">
        <ele>1048.45</ele>
        <time>2021-05-06T08:27:44Z</time>
      </trkpt>
      <trkpt lat="42.71449" lon="1.6654">
        <ele>1046.05</ele>
        <time>2021-05-06T08:27:57Z</time>
      </trkpt>
      <trkpt lat="42.71453" lon="1.66548">
        <ele>1045.09</ele>
        <time>2021-05-06T08:28:03Z</time>
      </trkpt>
      <trkpt lat="42.71452" lon="1.66549">
        <ele>1044.13</ele>
        <time>2021-05-06T08:28:04Z</time>
      </trkpt>
      <trkpt lat="42.71449" lon="1.66549">
        <ele>1043.65</ele>
        <time>2021-05-06T08:28:14Z</time>
      </trkpt>
      <trkpt lat="42.71453" lon="1.66554">
        <ele>1042.21</ele>
        <time>2021-05-06T08:28:34Z</time>
      </trkpt>
      <trkpt lat="42.7145" lon="1.66551">
        <ele>1043.65</ele>
        <time>2021-05-06T08:28:59Z</time>
      </trkpt>
      <trkpt lat="42.7145" lon="1.6655">
        <ele>1041.73</ele>
        <time>2021-05-06T08:29:04Z</time>
      </trkpt>
      <trkpt lat="42.71451" lon="1.66548">
        <ele>1042.69</ele>
        <time>2021-05-06T08:29:12Z</time>
      </trkpt>
      <trkpt lat="42.71451" lon="1.66548">
        <ele>1043.17</ele>
        <time>2021-05-06T08:29:29Z</time>
      </trkpt>
      <trkpt lat="42.71453" lon="1.66548">
        <ele>1043.17</ele>
        <time>2021-05-06T08:29:44Z</time>
      </trkpt>
      <trkpt lat="42.71454" lon="1.66547">
        <ele>1043.17</ele>
        <time>2021-05-06T08:29:45Z</time>
      </trkpt>
      <trkpt lat="42.71455" lon="1.66545">
        <ele>1043.17</ele>
        <time>2021-05-06T08:29:46Z</time>
      </trkpt>
      <trkpt lat="42.71454" lon="1.66544">
        <ele>1044.13</ele>
        <time>2021-05-06T08:29:47Z</time>
      </trkpt>
      <trkpt lat="42.71453" lon="1.66541">
        <ele>1044.13</ele>
        <time>2021-05-06T08:29:49Z</time>
      </trkpt>
      <trkpt lat="42.71452" lon="1.6654">
        <ele>1044.61</ele>
        <time>2021-05-06T08:29:50Z</time>
      </trkpt>
      <trkpt lat="42.71452" lon="1.66539">
        <ele>1044.61</ele>
        <time>2021-05-06T08:29:51Z</time>
      </trkpt>
      <trkpt lat="42.71451" lon="1.66538">
        <ele>1044.61</ele>
        <time>2021-05-06T08:29:52Z</time>
      </trkpt>
      <trkpt lat="42.7145" lon="1.66536">
        <ele>1044.61</ele>
        <time>2021-05-06T08:29:53Z</time>
      </trkpt>
      <trkpt lat="42.71448" lon="1.66533">
        <ele>1045.09</ele>
        <time>2021-05-06T08:29:56Z</time>
      </trkpt>
      <trkpt lat="42.71448" lon="1.66532">
        <ele>1045.09</ele>
        <time>2021-05-06T08:29:57Z</time>
      </trkpt>
      <trkpt lat="42.71441" lon="1.66517">
        <ele>1047.01</ele>
        <time>2021-05-06T08:30:10Z</time>
      </trkpt>
      <trkpt lat="42.71439" lon="1.66515">
        <ele>1047.49</ele>
        <time>2021-05-06T08:30:12Z</time>
      </trkpt>
      <trkpt lat="42.71439" lon="1.66514">
        <ele>1047.49</ele>
        <time>2021-05-06T08:30:13Z</time>
      </trkpt>
      <trkpt lat="42.71437" lon="1.66507">
        <ele>1048.45</ele>
        <time>2021-05-06T08:30:19Z</time>
      </trkpt>
      <trkpt lat="42.71437" lon="1.66497">
        <ele>1049.9</ele>
        <time>2021-05-06T08:30:28Z</time>
      </trkpt>
      <trkpt lat="42.71437" lon="1.66492">
        <ele>1050.86</ele>
        <time>2021-05-06T08:30:32Z</time>
      </trkpt>
      <trkpt lat="42.71437" lon="1.66476">
        <ele>1052.78</ele>
        <time>2021-05-06T08:30:44Z</time>
      </trkpt>
      <trkpt lat="42.71437" lon="1.66456">
        <ele>1053.74</ele>
        <time>2021-05-06T08:30:55Z</time>
      </trkpt>
      <trkpt lat="42.71437" lon="1.66448">
        <ele>1054.7</ele>
        <time>2021-05-06T08:31:00Z</time>
      </trkpt>
      <trkpt lat="42.71437" lon="1.66442">
        <ele>1054.7</ele>
        <time>2021-05-06T08:31:02Z</time>
      </trkpt>
      <trkpt lat="42.71432" lon="1.66426">
        <ele>1057.11</ele>
        <time>2021-05-06T08:31:12Z</time>
      </trkpt>
      <trkpt lat="42.71421" lon="1.66414">
        <ele>1059.51</ele>
        <time>2021-05-06T08:31:23Z</time>
      </trkpt>
      <trkpt lat="42.71411" lon="1.66406">
        <ele>1061.43</ele>
        <time>2021-05-06T08:31:35Z</time>
      </trkpt>
      <trkpt lat="42.71407" lon="1.66395">
        <ele>1063.84</ele>
        <time>2021-05-06T08:31:46Z</time>
      </trkpt>
      <trkpt lat="42.71405" lon="1.66391">
        <ele>1063.84</ele>
        <time>2021-05-06T08:31:50Z</time>
      </trkpt>
      <trkpt lat="42.71401" lon="1.66383">
        <ele>1066.24</ele>
        <time>2021-05-06T08:31:59Z</time>
      </trkpt>
      <trkpt lat="42.71388" lon="1.66387">
        <ele>1067.2</ele>
        <time>2021-05-06T08:32:11Z</time>
      </trkpt>
      <trkpt lat="42.71383" lon="1.66395">
        <ele>1067.68</ele>
        <time>2021-05-06T08:32:20Z</time>
      </trkpt>
      <trkpt lat="42.71382" lon="1.66396">
        <ele>1067.68</ele>
        <time>2021-05-06T08:32:21Z</time>
      </trkpt>
      <trkpt lat="42.71376" lon="1.66399">
        <ele>1067.68</ele>
        <time>2021-05-06T08:32:23Z</time>
      </trkpt>
      <trkpt lat="42.71373" lon="1.66402">
        <ele>1065.76</ele>
        <time>2021-05-06T08:32:25Z</time>
      </trkpt>
      <trkpt lat="42.71362" lon="1.66411">
        <ele>1065.76</ele>
        <time>2021-05-06T08:32:26Z</time>
      </trkpt>
      <trkpt lat="42.71354" lon="1.66415">
        <ele>1064.8</ele>
        <time>2021-05-06T08:32:31Z</time>
      </trkpt>
      <trkpt lat="42.71338" lon="1.66426">
        <ele>1062.87</ele>
        <time>2021-05-06T08:32:43Z</time>
      </trkpt>
      <trkpt lat="42.71331" lon="1.66434">
        <ele>1061.91</ele>
        <time>2021-05-06T08:32:53Z</time>
      </trkpt>
      <trkpt lat="42.71324" lon="1.66427">
        <ele>1060.95</ele>
        <time>2021-05-06T08:33:06Z</time>
      </trkpt>
      <trkpt lat="42.71322" lon="1.66427">
        <ele>1060.95</ele>
        <time>2021-05-06T08:33:07Z</time>
      </trkpt>
      <trkpt lat="42.71321" lon="1.66427">
        <ele>1060.95</ele>
        <time>2021-05-06T08:33:08Z</time>
      </trkpt>
      <trkpt lat="42.7132" lon="1.66428">
        <ele>1060.47</ele>
        <time>2021-05-06T08:33:09Z</time>
      </trkpt>
      <trkpt lat="42.71318" lon="1.66429">
        <ele>1060.47</ele>
        <time>2021-05-06T08:33:10Z</time>
      </trkpt>
      <trkpt lat="42.71317" lon="1.6643">
        <ele>1060.47</ele>
        <time>2021-05-06T08:33:11Z</time>
      </trkpt>
      <trkpt lat="42.71315" lon="1.6643">
        <ele>1060.47</ele>
        <time>2021-05-06T08:33:12Z</time>
      </trkpt>
      <trkpt lat="42.7131" lon="1.66436">
        <ele>1059.99</ele>
        <time>2021-05-06T08:33:18Z</time>
      </trkpt>
      <trkpt lat="42.71306" lon="1.66437">
        <ele>1061.43</ele>
        <time>2021-05-06T08:33:22Z</time>
      </trkpt>
      <trkpt lat="42.71307" lon="1.66433">
        <ele>1063.84</ele>
        <time>2021-05-06T08:33:34Z</time>
      </trkpt>
      <trkpt lat="42.71312" lon="1.6643">
        <ele>1067.2</ele>
        <time>2021-05-06T08:33:42Z</time>
      </trkpt>
      <trkpt lat="42.71312" lon="1.66425">
        <ele>1069.12</ele>
        <time>2021-05-06T08:33:54Z</time>
      </trkpt>
      <trkpt lat="42.71315" lon="1.66413">
        <ele>1071.53</ele>
        <time>2021-05-06T08:34:05Z</time>
      </trkpt>
      <trkpt lat="42.71318" lon="1.66402">
        <ele>1073.93</ele>
        <time>2021-05-06T08:34:16Z</time>
      </trkpt>
      <trkpt lat="42.71319" lon="1.66402">
        <ele>1074.41</ele>
        <time>2021-05-06T08:34:17Z</time>
      </trkpt>
      <trkpt lat="42.71323" lon="1.66398">
        <ele>1075.37</ele>
        <time>2021-05-06T08:34:29Z</time>
      </trkpt>
      <trkpt lat="42.71315" lon="1.6639">
        <ele>1077.29</ele>
        <time>2021-05-06T08:34:40Z</time>
      </trkpt>
      <trkpt lat="42.71309" lon="1.66389">
        <ele>1079.7</ele>
        <time>2021-05-06T08:34:52Z</time>
      </trkpt>
      <trkpt lat="42.71302" lon="1.6639">
        <ele>1082.1</ele>
        <time>2021-05-06T08:35:03Z</time>
      </trkpt>
      <trkpt lat="42.71299" lon="1.66383">
        <ele>1084.5</ele>
        <time>2021-05-06T08:35:19Z</time>
      </trkpt>
      <trkpt lat="42.71299" lon="1.6638">
        <ele>1086.91</ele>
        <time>2021-05-06T08:35:30Z</time>
      </trkpt>
      <trkpt lat="42.71298" lon="1.66377">
        <ele>1086.91</ele>
        <time>2021-05-06T08:35:37Z</time>
      </trkpt>
      <trkpt lat="42.71297" lon="1.66376">
        <ele>1087.87</ele>
        <time>2021-05-06T08:35:41Z</time>
      </trkpt>
      <trkpt lat="42.71299" lon="1.66371">
        <ele>1089.31</ele>
        <time>2021-05-06T08:36:00Z</time>
      </trkpt>
      <trkpt lat="42.71299" lon="1.66376">
        <ele>1088.35</ele>
        <time>2021-05-06T08:36:17Z</time>
      </trkpt>
      <trkpt lat="42.71297" lon="1.66384">
        <ele>1088.83</ele>
        <time>2021-05-06T08:36:44Z</time>
      </trkpt>
      <trkpt lat="42.71294" lon="1.66382">
        <ele>1087.87</ele>
        <time>2021-05-06T08:36:51Z</time>
      </trkpt>
      <trkpt lat="42.71293" lon="1.66382">
        <ele>1089.31</ele>
        <time>2021-05-06T08:36:53Z</time>
      </trkpt>
      <trkpt lat="42.71291" lon="1.66377">
        <ele>1087.87</ele>
        <time>2021-05-06T08:37:15Z</time>
      </trkpt>
      <trkpt lat="42.71294" lon="1.66373">
        <ele>1090.27</ele>
        <time>2021-05-06T08:37:30Z</time>
      </trkpt>
      <trkpt lat="42.71297" lon="1.66373">
        <ele>1093.16</ele>
        <time>2021-05-06T08:37:43Z</time>
      </trkpt>
      <trkpt lat="42.71299" lon="1.66366">
        <ele>1096.04</ele>
        <time>2021-05-06T08:37:57Z</time>
      </trkpt>
      <trkpt lat="42.71296" lon="1.66352">
        <ele>1097.96</ele>
        <time>2021-05-06T08:38:16Z</time>
      </trkpt>
      <trkpt lat="42.71299" lon="1.66348">
        <ele>1098.92</ele>
        <time>2021-05-06T08:38:29Z</time>
      </trkpt>
      <trkpt lat="42.71305" lon="1.6634">
        <ele>1099.89</ele>
        <time>2021-05-06T08:38:44Z</time>
      </trkpt>
      <trkpt lat="42.71303" lon="1.66328">
        <ele>1100.85</ele>
        <time>2021-05-06T08:39:02Z</time>
      </trkpt>
      <trkpt lat="42.71303" lon="1.66319">
        <ele>1102.77</ele>
        <time>2021-05-06T08:39:18Z</time>
      </trkpt>
      <trkpt lat="42.71302" lon="1.66315">
        <ele>1104.69</ele>
        <time>2021-05-06T08:39:34Z</time>
      </trkpt>
      <trkpt lat="42.71303" lon="1.66315">
        <ele>1107.58</ele>
        <time>2021-05-06T08:39:48Z</time>
      </trkpt>
      <trkpt lat="42.713" lon="1.6631">
        <ele>1110.46</ele>
        <time>2021-05-06T08:40:02Z</time>
      </trkpt>
      <trkpt lat="42.71296" lon="1.66302">
        <ele>1113.34</ele>
        <time>2021-05-06T08:40:16Z</time>
      </trkpt>
      <trkpt lat="42.71289" lon="1.66296">
        <ele>1116.71</ele>
        <time>2021-05-06T08:40:28Z</time>
      </trkpt>
      <trkpt lat="42.71285" lon="1.66295">
        <ele>1117.67</ele>
        <time>2021-05-06T08:40:39Z</time>
      </trkpt>
      <trkpt lat="42.71281" lon="1.66291">
        <ele>1117.67</ele>
        <time>2021-05-06T08:40:46Z</time>
      </trkpt>
      <trkpt lat="42.71282" lon="1.66285">
        <ele>1118.15</ele>
        <time>2021-05-06T08:40:57Z</time>
      </trkpt>
      <trkpt lat="42.71283" lon="1.66277">
        <ele>1120.55</ele>
        <time>2021-05-06T08:41:10Z</time>
      </trkpt>
      <trkpt lat="42.71283" lon="1.66274">
        <ele>1122</ele>
        <time>2021-05-06T08:41:17Z</time>
      </trkpt>
      <trkpt lat="42.71282" lon="1.66274">
        <ele>1122</ele>
        <time>2021-05-06T08:41:18Z</time>
      </trkpt>
      <trkpt lat="42.71281" lon="1.66268">
        <ele>1122.96</ele>
        <time>2021-05-06T08:41:30Z</time>
      </trkpt>
      <trkpt lat="42.71282" lon="1.66262">
        <ele>1125.36</ele>
        <time>2021-05-06T08:41:41Z</time>
      </trkpt>
      <trkpt lat="42.71277" lon="1.66259">
        <ele>1127.76</ele>
        <time>2021-05-06T08:41:52Z</time>
      </trkpt>
      <trkpt lat="42.71271" lon="1.66255">
        <ele>1131.13</ele>
        <time>2021-05-06T08:42:03Z</time>
      </trkpt>
      <trkpt lat="42.71269" lon="1.66246">
        <ele>1133.05</ele>
        <time>2021-05-06T08:42:18Z</time>
      </trkpt>
      <trkpt lat="42.71265" lon="1.66235">
        <ele>1135.94</ele>
        <time>2021-05-06T08:42:32Z</time>
      </trkpt>
      <trkpt lat="42.71262" lon="1.66226">
        <ele>1137.38</ele>
        <time>2021-05-06T08:42:42Z</time>
      </trkpt>
      <trkpt lat="42.71262" lon="1.66218">
        <ele>1139.3</ele>
        <time>2021-05-06T08:42:53Z</time>
      </trkpt>
      <trkpt lat="42.71254" lon="1.66207">
        <ele>1139.78</ele>
        <time>2021-05-06T08:43:08Z</time>
      </trkpt>
      <trkpt lat="42.71252" lon="1.66191">
        <ele>1143.14</ele>
        <time>2021-05-06T08:43:23Z</time>
      </trkpt>
      <trkpt lat="42.71252" lon="1.66184">
        <ele>1146.51</ele>
        <time>2021-05-06T08:43:38Z</time>
      </trkpt>
      <trkpt lat="42.71249" lon="1.66178">
        <ele>1149.39</ele>
        <time>2021-05-06T08:43:51Z</time>
      </trkpt>
      <trkpt lat="42.71246" lon="1.66176">
        <ele>1151.8</ele>
        <time>2021-05-06T08:44:05Z</time>
      </trkpt>
      <trkpt lat="42.71243" lon="1.66169">
        <ele>1155.16</ele>
        <time>2021-05-06T08:44:17Z</time>
      </trkpt>
      <trkpt lat="42.7124" lon="1.66158">
        <ele>1157.56</ele>
        <time>2021-05-06T08:44:30Z</time>
      </trkpt>
      <trkpt lat="42.7124" lon="1.66155">
        <ele>1159.49</ele>
        <time>2021-05-06T08:44:44Z</time>
      </trkpt>
      <trkpt lat="42.71233" lon="1.6615">
        <ele>1162.85</ele>
        <time>2021-05-06T08:44:58Z</time>
      </trkpt>
      <trkpt lat="42.71233" lon="1.66141">
        <ele>1165.26</ele>
        <time>2021-05-06T08:45:11Z</time>
      </trkpt>
      <trkpt lat="42.71232" lon="1.6613">
        <ele>1166.7</ele>
        <time>2021-05-06T08:45:31Z</time>
      </trkpt>
      <trkpt lat="42.71234" lon="1.6612">
        <ele>1170.06</ele>
        <time>2021-05-06T08:45:45Z</time>
      </trkpt>
      <trkpt lat="42.71238" lon="1.66113">
        <ele>1172.47</ele>
        <time>2021-05-06T08:46:02Z</time>
      </trkpt>
      <trkpt lat="42.71234" lon="1.66105">
        <ele>1174.87</ele>
        <time>2021-05-06T08:46:21Z</time>
      </trkpt>
      <trkpt lat="42.71227" lon="1.66099">
        <ele>1177.27</ele>
        <time>2021-05-06T08:46:37Z</time>
      </trkpt>
      <trkpt lat="42.71224" lon="1.66093">
        <ele>1179.67</ele>
        <time>2021-05-06T08:46:51Z</time>
      </trkpt>
      <trkpt lat="42.71219" lon="1.66088">
        <ele>1182.08</ele>
        <time>2021-05-06T08:47:04Z</time>
      </trkpt>
      <trkpt lat="42.71218" lon="1.66084">
        <ele>1184.48</ele>
        <time>2021-05-06T08:47:20Z</time>
      </trkpt>
      <trkpt lat="42.71214" lon="1.66086">
        <ele>1186.4</ele>
        <time>2021-05-06T08:47:33Z</time>
      </trkpt>
      <trkpt lat="42.71217" lon="1.66085">
        <ele>1189.77</ele>
        <time>2021-05-06T08:47:46Z</time>
      </trkpt>
      <trkpt lat="42.71217" lon="1.66079">
        <ele>1191.21</ele>
        <time>2021-05-06T08:48:02Z</time>
      </trkpt>
      <trkpt lat="42.71213" lon="1.66072">
        <ele>1193.61</ele>
        <time>2021-05-06T08:48:16Z</time>
      </trkpt>
      <trkpt lat="42.71213" lon="1.66068">
        <ele>1196.02</ele>
        <time>2021-05-06T08:48:28Z</time>
      </trkpt>
      <trkpt lat="42.71209" lon="1.66059">
        <ele>1197.46</ele>
        <time>2021-05-06T08:48:42Z</time>
      </trkpt>
      <trkpt lat="42.71209" lon="1.66051">
        <ele>1199.38</ele>
        <time>2021-05-06T08:48:56Z</time>
      </trkpt>
      <trkpt lat="42.71215" lon="1.6605">
        <ele>1201.3</ele>
        <time>2021-05-06T08:49:12Z</time>
      </trkpt>
      <trkpt lat="42.71214" lon="1.66054">
        <ele>1201.79</ele>
        <time>2021-05-06T08:49:31Z</time>
      </trkpt>
      <trkpt lat="42.71212" lon="1.66054">
        <ele>1204.19</ele>
        <time>2021-05-06T08:49:45Z</time>
      </trkpt>
      <trkpt lat="42.71214" lon="1.66049">
        <ele>1207.55</ele>
        <time>2021-05-06T08:49:56Z</time>
      </trkpt>
      <trkpt lat="42.71215" lon="1.66032">
        <ele>1210.44</ele>
        <time>2021-05-06T08:50:11Z</time>
      </trkpt>
      <trkpt lat="42.71217" lon="1.66026">
        <ele>1212.84</ele>
        <time>2021-05-06T08:50:24Z</time>
      </trkpt>
      <trkpt lat="42.71219" lon="1.66017">
        <ele>1213.8</ele>
        <time>2021-05-06T08:50:39Z</time>
      </trkpt>
      <trkpt lat="42.71222" lon="1.66013">
        <ele>1214.76</ele>
        <time>2021-05-06T08:50:48Z</time>
      </trkpt>
      <trkpt lat="42.71224" lon="1.6601">
        <ele>1216.21</ele>
        <time>2021-05-06T08:51:06Z</time>
      </trkpt>
      <trkpt lat="42.71217" lon="1.66003">
        <ele>1216.69</ele>
        <time>2021-05-06T08:51:23Z</time>
      </trkpt>
      <trkpt lat="42.71217" lon="1.65995">
        <ele>1216.69</ele>
        <time>2021-05-06T08:51:54Z</time>
      </trkpt>
      <trkpt lat="42.71216" lon="1.66">
        <ele>1217.17</ele>
        <time>2021-05-06T08:52:15Z</time>
      </trkpt>
      <trkpt lat="42.71216" lon="1.66007">
        <ele>1215.72</ele>
        <time>2021-05-06T08:52:39Z</time>
      </trkpt>
      <trkpt lat="42.71217" lon="1.66006">
        <ele>1209.96</ele>
        <time>2021-05-06T08:52:57Z</time>
      </trkpt>
      <trkpt lat="42.71217" lon="1.66006">
        <ele>1215.24</ele>
        <time>2021-05-06T08:52:58Z</time>
      </trkpt>
      <trkpt lat="42.71217" lon="1.66006">
        <ele>1220.05</ele>
        <time>2021-05-06T08:52:59Z</time>
      </trkpt>
      <trkpt lat="42.71217" lon="1.66006">
        <ele>1216.21</ele>
        <time>2021-05-06T08:53:00Z</time>
      </trkpt>
      <trkpt lat="42.71209" lon="1.65994">
        <ele>1216.21</ele>
        <time>2021-05-06T08:53:25Z</time>
      </trkpt>
      <trkpt lat="42.7122" lon="1.65993">
        <ele>1216.21</ele>
        <time>2021-05-06T08:54:03Z</time>
      </trkpt>
      <trkpt lat="42.71224" lon="1.66">
        <ele>1215.72</ele>
        <time>2021-05-06T08:54:35Z</time>
      </trkpt>
      <trkpt lat="42.71225" lon="1.66005">
        <ele>1216.21</ele>
        <time>2021-05-06T08:55:04Z</time>
      </trkpt>
      <trkpt lat="42.71225" lon="1.66002">
        <ele>1216.21</ele>
        <time>2021-05-06T08:55:30Z</time>
      </trkpt>
      <trkpt lat="42.71224" lon="1.66001">
        <ele>1216.69</ele>
        <time>2021-05-06T08:55:44Z</time>
      </trkpt>
      <trkpt lat="42.71218" lon="1.66">
        <ele>1216.69</ele>
        <time>2021-05-06T08:56:03Z</time>
      </trkpt>
      <trkpt lat="42.71221" lon="1.6599">
        <ele>1216.69</ele>
        <time>2021-05-06T08:56:34Z</time>
      </trkpt>
      <trkpt lat="42.7122" lon="1.65991">
        <ele>1215.72</ele>
        <time>2021-05-06T08:56:37Z</time>
      </trkpt>
      <trkpt lat="42.7122" lon="1.65988">
        <ele>1215.72</ele>
        <time>2021-05-06T08:57:11Z</time>
      </trkpt>
      <trkpt lat="42.71222" lon="1.65988">
        <ele>1215.72</ele>
        <time>2021-05-06T08:57:46Z</time>
      </trkpt>
      <trkpt lat="42.71222" lon="1.65992">
        <ele>1215.72</ele>
        <time>2021-05-06T08:58:18Z</time>
      </trkpt>
      <trkpt lat="42.71222" lon="1.65994">
        <ele>1216.69</ele>
        <time>2021-05-06T08:58:34Z</time>
      </trkpt>
      <trkpt lat="42.71218" lon="1.65994">
        <ele>1216.69</ele>
        <time>2021-05-06T08:58:53Z</time>
      </trkpt>
      <trkpt lat="42.71218" lon="1.65988">
        <ele>1218.61</ele>
        <time>2021-05-06T08:59:08Z</time>
      </trkpt>
      <trkpt lat="42.71215" lon="1.65983">
        <ele>1221.49</ele>
        <time>2021-05-06T08:59:22Z</time>
      </trkpt>
      <trkpt lat="42.71208" lon="1.65983">
        <ele>1223.42</ele>
        <time>2021-05-06T08:59:38Z</time>
      </trkpt>
      <trkpt lat="42.71198" lon="1.65983">
        <ele>1225.34</ele>
        <time>2021-05-06T08:59:49Z</time>
      </trkpt>
      <trkpt lat="42.71203" lon="1.65979">
        <ele>1225.82</ele>
        <time>2021-05-06T09:00:10Z</time>
      </trkpt>
      <trkpt lat="42.71194" lon="1.65977">
        <ele>1227.74</ele>
        <time>2021-05-06T09:00:23Z</time>
      </trkpt>
      <trkpt lat="42.71191" lon="1.65976">
        <ele>1228.7</ele>
        <time>2021-05-06T09:00:28Z</time>
      </trkpt>
      <trkpt lat="42.71181" lon="1.65976">
        <ele>1230.14</ele>
        <time>2021-05-06T09:00:37Z</time>
      </trkpt>
      <trkpt lat="42.71167" lon="1.6597">
        <ele>1233.03</ele>
        <time>2021-05-06T09:00:51Z</time>
      </trkpt>
      <trkpt lat="42.71158" lon="1.65969">
        <ele>1235.91</ele>
        <time>2021-05-06T09:01:04Z</time>
      </trkpt>
      <trkpt lat="42.71155" lon="1.65968">
        <ele>1238.8</ele>
        <time>2021-05-06T09:01:16Z</time>
      </trkpt>
      <trkpt lat="42.71153" lon="1.65966">
        <ele>1240.72</ele>
        <time>2021-05-06T09:01:27Z</time>
      </trkpt>
      <trkpt lat="42.71152" lon="1.65962">
        <ele>1243.6</ele>
        <time>2021-05-06T09:01:40Z</time>
      </trkpt>
      <trkpt lat="42.71153" lon="1.65956">
        <ele>1246.01</ele>
        <time>2021-05-06T09:01:56Z</time>
      </trkpt>
      <trkpt lat="42.71142" lon="1.65953">
        <ele>1247.45</ele>
        <time>2021-05-06T09:02:08Z</time>
      </trkpt>
      <trkpt lat="42.71133" lon="1.65949">
        <ele>1249.85</ele>
        <time>2021-05-06T09:02:22Z</time>
      </trkpt>
      <trkpt lat="42.71132" lon="1.65949">
        <ele>1252.25</ele>
        <time>2021-05-06T09:02:34Z</time>
      </trkpt>
      <trkpt lat="42.71132" lon="1.65946">
        <ele>1254.18</ele>
        <time>2021-05-06T09:02:47Z</time>
      </trkpt>
      <trkpt lat="42.71127" lon="1.6594">
        <ele>1257.06</ele>
        <time>2021-05-06T09:03:01Z</time>
      </trkpt>
      <trkpt lat="42.71127" lon="1.65939">
        <ele>1258.98</ele>
        <time>2021-05-06T09:03:14Z</time>
      </trkpt>
      <trkpt lat="42.71129" lon="1.65933">
        <ele>1260.91</ele>
        <time>2021-05-06T09:03:31Z</time>
      </trkpt>
      <trkpt lat="42.71122" lon="1.65932">
        <ele>1262.83</ele>
        <time>2021-05-06T09:03:45Z</time>
      </trkpt>
      <trkpt lat="42.7112" lon="1.65929">
        <ele>1264.27</ele>
        <time>2021-05-06T09:04:06Z</time>
      </trkpt>
      <trkpt lat="42.71116" lon="1.65924">
        <ele>1266.67</ele>
        <time>2021-05-06T09:04:20Z</time>
      </trkpt>
      <trkpt lat="42.71113" lon="1.65922">
        <ele>1269.08</ele>
        <time>2021-05-06T09:04:35Z</time>
      </trkpt>
      <trkpt lat="42.71107" lon="1.65916">
        <ele>1271.96</ele>
        <time>2021-05-06T09:04:49Z</time>
      </trkpt>
      <trkpt lat="42.71105" lon="1.65912">
        <ele>1275.33</ele>
        <time>2021-05-06T09:05:02Z</time>
      </trkpt>
      <trkpt lat="42.71101" lon="1.65907">
        <ele>1277.73</ele>
        <time>2021-05-06T09:05:14Z</time>
      </trkpt>
      <trkpt lat="42.71102" lon="1.65902">
        <ele>1280.61</ele>
        <time>2021-05-06T09:05:28Z</time>
      </trkpt>
      <trkpt lat="42.71099" lon="1.65896">
        <ele>1283.98</ele>
        <time>2021-05-06T09:05:40Z</time>
      </trkpt>
      <trkpt lat="42.71099" lon="1.65895">
        <ele>1283.98</ele>
        <time>2021-05-06T09:05:41Z</time>
      </trkpt>
      <trkpt lat="42.71091" lon="1.65889">
        <ele>1284.94</ele>
        <time>2021-05-06T09:06:05Z</time>
      </trkpt>
      <trkpt lat="42.71088" lon="1.65887">
        <ele>1285.42</ele>
        <time>2021-05-06T09:06:29Z</time>
      </trkpt>
      <trkpt lat="42.71091" lon="1.65884">
        <ele>1288.78</ele>
        <time>2021-05-06T09:06:43Z</time>
      </trkpt>
      <trkpt lat="42.71091" lon="1.65882">
        <ele>1291.67</ele>
        <time>2021-05-06T09:06:56Z</time>
      </trkpt>
      <trkpt lat="42.7109" lon="1.65875">
        <ele>1294.55</ele>
        <time>2021-05-06T09:07:11Z</time>
      </trkpt>
      <trkpt lat="42.71087" lon="1.65865">
        <ele>1295.99</ele>
        <time>2021-05-06T09:07:29Z</time>
      </trkpt>
      <trkpt lat="42.71084" lon="1.65861">
        <ele>1298.4</ele>
        <time>2021-05-06T09:07:42Z</time>
      </trkpt>
      <trkpt lat="42.71084" lon="1.65859">
        <ele>1300.8</ele>
        <time>2021-05-06T09:07:56Z</time>
      </trkpt>
      <trkpt lat="42.71081" lon="1.65856">
        <ele>1303.69</ele>
        <time>2021-05-06T09:08:09Z</time>
      </trkpt>
      <trkpt lat="42.71078" lon="1.6585">
        <ele>1305.61</ele>
        <time>2021-05-06T09:08:22Z</time>
      </trkpt>
      <trkpt lat="42.71078" lon="1.65843">
        <ele>1307.53</ele>
        <time>2021-05-06T09:08:35Z</time>
      </trkpt>
      <trkpt lat="42.71078" lon="1.65843">
        <ele>1308.49</ele>
        <time>2021-05-06T09:08:54Z</time>
      </trkpt>
      <trkpt lat="42.71075" lon="1.65844">
        <ele>1310.9</ele>
        <time>2021-05-06T09:09:06Z</time>
      </trkpt>
      <trkpt lat="42.71077" lon="1.65845">
        <ele>1312.34</ele>
        <time>2021-05-06T09:09:18Z</time>
      </trkpt>
      <trkpt lat="42.71081" lon="1.65841">
        <ele>1314.26</ele>
        <time>2021-05-06T09:09:34Z</time>
      </trkpt>
      <trkpt lat="42.71088" lon="1.65836">
        <ele>1317.14</ele>
        <time>2021-05-06T09:09:47Z</time>
      </trkpt>
      <trkpt lat="42.71092" lon="1.65821">
        <ele>1319.55</ele>
        <time>2021-05-06T09:10:02Z</time>
      </trkpt>
      <trkpt lat="42.71091" lon="1.65806">
        <ele>1321.47</ele>
        <time>2021-05-06T09:10:16Z</time>
      </trkpt>
      <trkpt lat="42.71093" lon="1.6579">
        <ele>1322.43</ele>
        <time>2021-05-06T09:10:30Z</time>
      </trkpt>
      <trkpt lat="42.71095" lon="1.65776">
        <ele>1324.35</ele>
        <time>2021-05-06T09:10:44Z</time>
      </trkpt>
      <trkpt lat="42.71092" lon="1.65771">
        <ele>1325.31</ele>
        <time>2021-05-06T09:10:57Z</time>
      </trkpt>
      <trkpt lat="42.71089" lon="1.65772">
        <ele>1325.31</ele>
        <time>2021-05-06T09:11:19Z</time>
      </trkpt>
      <trkpt lat="42.71089" lon="1.65769">
        <ele>1325.31</ele>
        <time>2021-05-06T09:11:44Z</time>
      </trkpt>
      <trkpt lat="42.71091" lon="1.65769">
        <ele>1325.31</ele>
        <time>2021-05-06T09:12:06Z</time>
      </trkpt>
      <trkpt lat="42.71094" lon="1.65768">
        <ele>1325.31</ele>
        <time>2021-05-06T09:12:23Z</time>
      </trkpt>
      <trkpt lat="42.71092" lon="1.65774">
        <ele>1325.8</ele>
        <time>2021-05-06T09:13:00Z</time>
      </trkpt>
      <trkpt lat="42.71095" lon="1.65777">
        <ele>1325.8</ele>
        <time>2021-05-06T09:13:25Z</time>
      </trkpt>
      <trkpt lat="42.71088" lon="1.65777">
        <ele>1325.8</ele>
        <time>2021-05-06T09:13:57Z</time>
      </trkpt>
      <trkpt lat="42.71091" lon="1.65768">
        <ele>1326.28</ele>
        <time>2021-05-06T09:14:28Z</time>
      </trkpt>
      <trkpt lat="42.71093" lon="1.65767">
        <ele>1326.28</ele>
        <time>2021-05-06T09:14:56Z</time>
      </trkpt>
      <trkpt lat="42.71092" lon="1.65772">
        <ele>1326.28</ele>
        <time>2021-05-06T09:15:30Z</time>
      </trkpt>
      <trkpt lat="42.71092" lon="1.65775">
        <ele>1326.28</ele>
        <time>2021-05-06T09:15:56Z</time>
      </trkpt>
      <trkpt lat="42.71092" lon="1.65763">
        <ele>1326.28</ele>
        <time>2021-05-06T09:16:28Z</time>
      </trkpt>
      <trkpt lat="42.71093" lon="1.65762">
        <ele>1326.28</ele>
        <time>2021-05-06T09:16:57Z</time>
      </trkpt>
      <trkpt lat="42.71091" lon="1.65766">
        <ele>1326.76</ele>
        <time>2021-05-06T09:17:20Z</time>
      </trkpt>
      <trkpt lat="42.7109" lon="1.65765">
        <ele>1325.31</ele>
        <time>2021-05-06T09:17:22Z</time>
      </trkpt>
      <trkpt lat="42.71091" lon="1.65762">
        <ele>1326.28</ele>
        <time>2021-05-06T09:17:30Z</time>
      </trkpt>
      <trkpt lat="42.71087" lon="1.65751">
        <ele>1328.2</ele>
        <time>2021-05-06T09:17:42Z</time>
      </trkpt>
      <trkpt lat="42.71087" lon="1.65734">
        <ele>1329.16</ele>
        <time>2021-05-06T09:17:57Z</time>
      </trkpt>
      <trkpt lat="42.7109" lon="1.65723">
        <ele>1331.56</ele>
        <time>2021-05-06T09:18:11Z</time>
      </trkpt>
      <trkpt lat="42.71089" lon="1.65716">
        <ele>1334.45</ele>
        <time>2021-05-06T09:18:20Z</time>
      </trkpt>
      <trkpt lat="42.71089" lon="1.65705">
        <ele>1335.41</ele>
        <time>2021-05-06T09:18:34Z</time>
      </trkpt>
      <trkpt lat="42.71087" lon="1.65695">
        <ele>1336.85</ele>
        <time>2021-05-06T09:18:47Z</time>
      </trkpt>
      <trkpt lat="42.71089" lon="1.65686">
        <ele>1337.33</ele>
        <time>2021-05-06T09:18:59Z</time>
      </trkpt>
      <trkpt lat="42.7109" lon="1.65679">
        <ele>1339.73</ele>
        <time>2021-05-06T09:19:14Z</time>
      </trkpt>
      <trkpt lat="42.71088" lon="1.6567">
        <ele>1342.62</ele>
        <time>2021-05-06T09:19:29Z</time>
      </trkpt>
      <trkpt lat="42.71088" lon="1.65658">
        <ele>1344.54</ele>
        <time>2021-05-06T09:19:43Z</time>
      </trkpt>
      <trkpt lat="42.7109" lon="1.65652">
        <ele>1346.94</ele>
        <time>2021-05-06T09:19:57Z</time>
      </trkpt>
      <trkpt lat="42.71094" lon="1.65641">
        <ele>1349.35</ele>
        <time>2021-05-06T09:20:10Z</time>
      </trkpt>
      <trkpt lat="42.71101" lon="1.65632">
        <ele>1351.27</ele>
        <time>2021-05-06T09:20:23Z</time>
      </trkpt>
      <trkpt lat="42.71103" lon="1.65624">
        <ele>1353.67</ele>
        <time>2021-05-06T09:20:36Z</time>
      </trkpt>
      <trkpt lat="42.71106" lon="1.65613">
        <ele>1357.04</ele>
        <time>2021-05-06T09:20:46Z</time>
      </trkpt>
      <trkpt lat="42.71105" lon="1.65608">
        <ele>1359.92</ele>
        <time>2021-05-06T09:20:55Z</time>
      </trkpt>
      <trkpt lat="42.71097" lon="1.65601">
        <ele>1362.33</ele>
        <time>2021-05-06T09:21:06Z</time>
      </trkpt>
      <trkpt lat="42.71094" lon="1.65599">
        <ele>1363.77</ele>
        <time>2021-05-06T09:21:09Z</time>
      </trkpt>
      <trkpt lat="42.71091" lon="1.65594">
        <ele>1366.65</ele>
        <time>2021-05-06T09:21:20Z</time>
      </trkpt>
      <trkpt lat="42.71093" lon="1.65589">
        <ele>1368.57</ele>
        <time>2021-05-06T09:21:32Z</time>
      </trkpt>
      <trkpt lat="42.71096" lon="1.65586">
        <ele>1370.5</ele>
        <time>2021-05-06T09:21:44Z</time>
      </trkpt>
      <trkpt lat="42.71093" lon="1.65577">
        <ele>1373.86</ele>
        <time>2021-05-06T09:21:54Z</time>
      </trkpt>
      <trkpt lat="42.71092" lon="1.65565">
        <ele>1376.26</ele>
        <time>2021-05-06T09:22:05Z</time>
      </trkpt>
      <trkpt lat="42.71088" lon="1.65557">
        <ele>1378.67</ele>
        <time>2021-05-06T09:22:19Z</time>
      </trkpt>
      <trkpt lat="42.71088" lon="1.65552">
        <ele>1380.59</ele>
        <time>2021-05-06T09:22:30Z</time>
      </trkpt>
      <trkpt lat="42.7109" lon="1.65543">
        <ele>1382.99</ele>
        <time>2021-05-06T09:22:41Z</time>
      </trkpt>
      <trkpt lat="42.71092" lon="1.65533">
        <ele>1385.4</ele>
        <time>2021-05-06T09:22:54Z</time>
      </trkpt>
      <trkpt lat="42.71096" lon="1.65527">
        <ele>1387.8</ele>
        <time>2021-05-06T09:23:06Z</time>
      </trkpt>
      <trkpt lat="42.71104" lon="1.65518">
        <ele>1390.2</ele>
        <time>2021-05-06T09:23:20Z</time>
      </trkpt>
      <trkpt lat="42.71113" lon="1.65502">
        <ele>1392.61</ele>
        <time>2021-05-06T09:23:34Z</time>
      </trkpt>
      <trkpt lat="42.71114" lon="1.65488">
        <ele>1395.97</ele>
        <time>2021-05-06T09:23:48Z</time>
      </trkpt>
      <trkpt lat="42.71121" lon="1.65472">
        <ele>1397.41</ele>
        <time>2021-05-06T09:24:01Z</time>
      </trkpt>
      <trkpt lat="42.71124" lon="1.65461">
        <ele>1399.82</ele>
        <time>2021-05-06T09:24:14Z</time>
      </trkpt>
      <trkpt lat="42.71126" lon="1.65448">
        <ele>1402.7</ele>
        <time>2021-05-06T09:24:26Z</time>
      </trkpt>
      <trkpt lat="42.71129" lon="1.65435">
        <ele>1404.62</ele>
        <time>2021-05-06T09:24:36Z</time>
      </trkpt>
      <trkpt lat="42.71131" lon="1.65414">
        <ele>1406.07</ele>
        <time>2021-05-06T09:24:50Z</time>
      </trkpt>
      <trkpt lat="42.71132" lon="1.65399">
        <ele>1406.07</ele>
        <time>2021-05-06T09:25:04Z</time>
      </trkpt>
      <trkpt lat="42.71133" lon="1.65387">
        <ele>1406.55</ele>
        <time>2021-05-06T09:25:14Z</time>
      </trkpt>
      <trkpt lat="42.71134" lon="1.65382">
        <ele>1408.95</ele>
        <time>2021-05-06T09:25:24Z</time>
      </trkpt>
      <trkpt lat="42.71136" lon="1.65367">
        <ele>1412.31</ele>
        <time>2021-05-06T09:25:37Z</time>
      </trkpt>
      <trkpt lat="42.71138" lon="1.65356">
        <ele>1413.76</ele>
        <time>2021-05-06T09:25:46Z</time>
      </trkpt>
      <trkpt lat="42.71128" lon="1.65345">
        <ele>1414.72</ele>
        <time>2021-05-06T09:25:58Z</time>
      </trkpt>
      <trkpt lat="42.71127" lon="1.6534">
        <ele>1414.72</ele>
        <time>2021-05-06T09:26:01Z</time>
      </trkpt>
      <trkpt lat="42.71126" lon="1.65334">
        <ele>1415.2</ele>
        <time>2021-05-06T09:26:06Z</time>
      </trkpt>
      <trkpt lat="42.71123" lon="1.65318">
        <ele>1415.68</ele>
        <time>2021-05-06T09:26:17Z</time>
      </trkpt>
      <trkpt lat="42.71123" lon="1.65316">
        <ele>1415.68</ele>
        <time>2021-05-06T09:26:23Z</time>
      </trkpt>
      <trkpt lat="42.71123" lon="1.65307">
        <ele>1415.68</ele>
        <time>2021-05-06T09:26:31Z</time>
      </trkpt>
      <trkpt lat="42.71125" lon="1.65291">
        <ele>1416.16</ele>
        <time>2021-05-06T09:26:44Z</time>
      </trkpt>
      <trkpt lat="42.71125" lon="1.65275">
        <ele>1417.6</ele>
        <time>2021-05-06T09:26:57Z</time>
      </trkpt>
      <trkpt lat="42.71126" lon="1.65269">
        <ele>1416.64</ele>
        <time>2021-05-06T09:27:02Z</time>
      </trkpt>
      <trkpt lat="42.7113" lon="1.65265">
        <ele>1416.16</ele>
        <time>2021-05-06T09:27:16Z</time>
      </trkpt>
      <trkpt lat="42.71137" lon="1.65254">
        <ele>1416.16</ele>
        <time>2021-05-06T09:27:29Z</time>
      </trkpt>
      <trkpt lat="42.71138" lon="1.65253">
        <ele>1417.6</ele>
        <time>2021-05-06T09:27:32Z</time>
      </trkpt>
      <trkpt lat="42.71142" lon="1.65245">
        <ele>1419.04</ele>
        <time>2021-05-06T09:27:40Z</time>
      </trkpt>
      <trkpt lat="42.71145" lon="1.65238">
        <ele>1420.49</ele>
        <time>2021-05-06T09:27:47Z</time>
      </trkpt>
      <trkpt lat="42.71146" lon="1.65232">
        <ele>1420.97</ele>
        <time>2021-05-06T09:27:49Z</time>
      </trkpt>
      <trkpt lat="42.71154" lon="1.65223">
        <ele>1424.33</ele>
        <time>2021-05-06T09:28:03Z</time>
      </trkpt>
      <trkpt lat="42.71165" lon="1.65221">
        <ele>1425.77</ele>
        <time>2021-05-06T09:28:14Z</time>
      </trkpt>
      <trkpt lat="42.71168" lon="1.6522">
        <ele>1426.25</ele>
        <time>2021-05-06T09:28:17Z</time>
      </trkpt>
      <trkpt lat="42.71173" lon="1.65219">
        <ele>1426.73</ele>
        <time>2021-05-06T09:28:21Z</time>
      </trkpt>
      <trkpt lat="42.71186" lon="1.65215">
        <ele>1427.21</ele>
        <time>2021-05-06T09:28:32Z</time>
      </trkpt>
      <trkpt lat="42.71196" lon="1.65208">
        <ele>1428.66</ele>
        <time>2021-05-06T09:28:41Z</time>
      </trkpt>
      <trkpt lat="42.71202" lon="1.65197">
        <ele>1429.62</ele>
        <time>2021-05-06T09:28:49Z</time>
      </trkpt>
      <trkpt lat="42.71206" lon="1.65186">
        <ele>1432.98</ele>
        <time>2021-05-06T09:29:02Z</time>
      </trkpt>
      <trkpt lat="42.7121" lon="1.65179">
        <ele>1434.91</ele>
        <time>2021-05-06T09:29:15Z</time>
      </trkpt>
      <trkpt lat="42.71217" lon="1.65169">
        <ele>1437.31</ele>
        <time>2021-05-06T09:29:29Z</time>
      </trkpt>
      <trkpt lat="42.71226" lon="1.65157">
        <ele>1439.23</ele>
        <time>2021-05-06T09:29:43Z</time>
      </trkpt>
      <trkpt lat="42.71233" lon="1.65143">
        <ele>1441.63</ele>
        <time>2021-05-06T09:29:57Z</time>
      </trkpt>
      <trkpt lat="42.71239" lon="1.65129">
        <ele>1443.08</ele>
        <time>2021-05-06T09:30:09Z</time>
      </trkpt>
      <trkpt lat="42.71243" lon="1.65116">
        <ele>1445</ele>
        <time>2021-05-06T09:30:20Z</time>
      </trkpt>
      <trkpt lat="42.71249" lon="1.65095">
        <ele>1447.88</ele>
        <time>2021-05-06T09:30:35Z</time>
      </trkpt>
      <trkpt lat="42.71249" lon="1.65086">
        <ele>1450.29</ele>
        <time>2021-05-06T09:30:47Z</time>
      </trkpt>
      <trkpt lat="42.71247" lon="1.65067">
        <ele>1452.21</ele>
        <time>2021-05-06T09:30:58Z</time>
      </trkpt>
      <trkpt lat="42.71246" lon="1.65051">
        <ele>1454.61</ele>
        <time>2021-05-06T09:31:11Z</time>
      </trkpt>
      <trkpt lat="42.71246" lon="1.65041">
        <ele>1456.05</ele>
        <time>2021-05-06T09:31:20Z</time>
      </trkpt>
      <trkpt lat="42.71248" lon="1.65028">
        <ele>1457.5</ele>
        <time>2021-05-06T09:31:28Z</time>
      </trkpt>
      <trkpt lat="42.71245" lon="1.65019">
        <ele>1458.46</ele>
        <time>2021-05-06T09:31:36Z</time>
      </trkpt>
      <trkpt lat="42.71242" lon="1.65002">
        <ele>1460.38</ele>
        <time>2021-05-06T09:31:48Z</time>
      </trkpt>
      <trkpt lat="42.71238" lon="1.64997">
        <ele>1460.86</ele>
        <time>2021-05-06T09:32:02Z</time>
      </trkpt>
      <trkpt lat="42.71237" lon="1.64997">
        <ele>1460.86</ele>
        <time>2021-05-06T09:32:08Z</time>
      </trkpt>
      <trkpt lat="42.7124" lon="1.64983">
        <ele>1458.94</ele>
        <time>2021-05-06T09:32:20Z</time>
      </trkpt>
      <trkpt lat="42.7124" lon="1.64977">
        <ele>1458.94</ele>
        <time>2021-05-06T09:32:30Z</time>
      </trkpt>
      <trkpt lat="42.71244" lon="1.64974">
        <ele>1460.38</ele>
        <time>2021-05-06T09:32:39Z</time>
      </trkpt>
      <trkpt lat="42.71248" lon="1.64964">
        <ele>1461.82</ele>
        <time>2021-05-06T09:32:46Z</time>
      </trkpt>
      <trkpt lat="42.71248" lon="1.64957">
        <ele>1462.78</ele>
        <time>2021-05-06T09:32:53Z</time>
      </trkpt>
      <trkpt lat="42.71246" lon="1.64949">
        <ele>1464.71</ele>
        <time>2021-05-06T09:33:04Z</time>
      </trkpt>
      <trkpt lat="42.71246" lon="1.64943">
        <ele>1465.19</ele>
        <time>2021-05-06T09:33:08Z</time>
      </trkpt>
      <trkpt lat="42.71247" lon="1.64933">
        <ele>1467.59</ele>
        <time>2021-05-06T09:33:21Z</time>
      </trkpt>
      <trkpt lat="42.71254" lon="1.64921">
        <ele>1470.95</ele>
        <time>2021-05-06T09:33:35Z</time>
      </trkpt>
      <trkpt lat="42.71257" lon="1.64914">
        <ele>1473.84</ele>
        <time>2021-05-06T09:33:49Z</time>
      </trkpt>
      <trkpt lat="42.7126" lon="1.64911">
        <ele>1475.76</ele>
        <time>2021-05-06T09:33:56Z</time>
      </trkpt>
      <trkpt lat="42.71264" lon="1.64899">
        <ele>1478.16</ele>
        <time>2021-05-06T09:34:10Z</time>
      </trkpt>
      <trkpt lat="42.71267" lon="1.64895">
        <ele>1481.05</ele>
        <time>2021-05-06T09:34:24Z</time>
      </trkpt>
      <trkpt lat="42.71265" lon="1.64886">
        <ele>1483.45</ele>
        <time>2021-05-06T09:34:36Z</time>
      </trkpt>
      <trkpt lat="42.71262" lon="1.64877">
        <ele>1486.34</ele>
        <time>2021-05-06T09:34:49Z</time>
      </trkpt>
      <trkpt lat="42.71263" lon="1.64875">
        <ele>1489.22</ele>
        <time>2021-05-06T09:35:03Z</time>
      </trkpt>
      <trkpt lat="42.71261" lon="1.64859">
        <ele>1491.14</ele>
        <time>2021-05-06T09:35:17Z</time>
      </trkpt>
      <trkpt lat="42.71261" lon="1.64853">
        <ele>1494.51</ele>
        <time>2021-05-06T09:35:30Z</time>
      </trkpt>
      <trkpt lat="42.71262" lon="1.64847">
        <ele>1496.43</ele>
        <time>2021-05-06T09:35:43Z</time>
      </trkpt>
      <trkpt lat="42.71261" lon="1.64845">
        <ele>1499.31</ele>
        <time>2021-05-06T09:35:57Z</time>
      </trkpt>
      <trkpt lat="42.71261" lon="1.64843">
        <ele>1501.24</ele>
        <time>2021-05-06T09:36:08Z</time>
      </trkpt>
      <trkpt lat="42.71267" lon="1.64834">
        <ele>1503.64</ele>
        <time>2021-05-06T09:36:22Z</time>
      </trkpt>
      <trkpt lat="42.71266" lon="1.64826">
        <ele>1506.04</ele>
        <time>2021-05-06T09:36:35Z</time>
      </trkpt>
      <trkpt lat="42.71264" lon="1.64818">
        <ele>1509.41</ele>
        <time>2021-05-06T09:36:49Z</time>
      </trkpt>
      <trkpt lat="42.71265" lon="1.64813">
        <ele>1511.81</ele>
        <time>2021-05-06T09:37:06Z</time>
      </trkpt>
      <trkpt lat="42.71267" lon="1.64807">
        <ele>1514.21</ele>
        <time>2021-05-06T09:37:22Z</time>
      </trkpt>
      <trkpt lat="42.71266" lon="1.64803">
        <ele>1517.58</ele>
        <time>2021-05-06T09:37:35Z</time>
      </trkpt>
      <trkpt lat="42.7127" lon="1.64798">
        <ele>1520.46</ele>
        <time>2021-05-06T09:37:52Z</time>
      </trkpt>
      <trkpt lat="42.71277" lon="1.64792">
        <ele>1521.42</ele>
        <time>2021-05-06T09:38:07Z</time>
      </trkpt>
      <trkpt lat="42.71278" lon="1.64784">
        <ele>1523.83</ele>
        <time>2021-05-06T09:38:16Z</time>
      </trkpt>
      <trkpt lat="42.71275" lon="1.64778">
        <ele>1526.71</ele>
        <time>2021-05-06T09:38:29Z</time>
      </trkpt>
      <trkpt lat="42.71275" lon="1.64773">
        <ele>1529.59</ele>
        <time>2021-05-06T09:38:41Z</time>
      </trkpt>
      <trkpt lat="42.7127" lon="1.64767">
        <ele>1530.56</ele>
        <time>2021-05-06T09:38:55Z</time>
      </trkpt>
      <trkpt lat="42.71271" lon="1.64769">
        <ele>1532.96</ele>
        <time>2021-05-06T09:39:09Z</time>
      </trkpt>
      <trkpt lat="42.71273" lon="1.64764">
        <ele>1536.32</ele>
        <time>2021-05-06T09:39:24Z</time>
      </trkpt>
      <trkpt lat="42.71276" lon="1.64762">
        <ele>1539.21</ele>
        <time>2021-05-06T09:39:35Z</time>
      </trkpt>
      <trkpt lat="42.71276" lon="1.64759">
        <ele>1542.57</ele>
        <time>2021-05-06T09:39:50Z</time>
      </trkpt>
      <trkpt lat="42.71268" lon="1.64757">
        <ele>1542.57</ele>
        <time>2021-05-06T09:40:21Z</time>
      </trkpt>
      <trkpt lat="42.71276" lon="1.64753">
        <ele>1542.09</ele>
        <time>2021-05-06T09:40:40Z</time>
      </trkpt>
      <trkpt lat="42.71278" lon="1.64753">
        <ele>1542.09</ele>
        <time>2021-05-06T09:40:49Z</time>
      </trkpt>
      <trkpt lat="42.7128" lon="1.64754">
        <ele>1542.57</ele>
        <time>2021-05-06T09:41:13Z</time>
      </trkpt>
      <trkpt lat="42.7128" lon="1.6476">
        <ele>1542.57</ele>
        <time>2021-05-06T09:41:47Z</time>
      </trkpt>
      <trkpt lat="42.71277" lon="1.64752">
        <ele>1543.05</ele>
        <time>2021-05-06T09:42:21Z</time>
      </trkpt>
      <trkpt lat="42.71275" lon="1.64749">
        <ele>1543.53</ele>
        <time>2021-05-06T09:42:39Z</time>
      </trkpt>
      <trkpt lat="42.71277" lon="1.64752">
        <ele>1543.53</ele>
        <time>2021-05-06T09:43:18Z</time>
      </trkpt>
      <trkpt lat="42.71283" lon="1.6475">
        <ele>1544.98</ele>
        <time>2021-05-06T09:43:47Z</time>
      </trkpt>
      <trkpt lat="42.71282" lon="1.64746">
        <ele>1545.46</ele>
        <time>2021-05-06T09:44:13Z</time>
      </trkpt>
      <trkpt lat="42.71277" lon="1.64752">
        <ele>1544.01</ele>
        <time>2021-05-06T09:44:18Z</time>
      </trkpt>
      <trkpt lat="42.71273" lon="1.64753">
        <ele>1540.17</ele>
        <time>2021-05-06T09:44:31Z</time>
      </trkpt>
      <trkpt lat="42.71272" lon="1.64754">
        <ele>1537.29</ele>
        <time>2021-05-06T09:44:38Z</time>
      </trkpt>
      <trkpt lat="42.71266" lon="1.64755">
        <ele>1534.88</ele>
        <time>2021-05-06T09:44:51Z</time>
      </trkpt>
      <trkpt lat="42.71261" lon="1.6476">
        <ele>1534.88</ele>
        <time>2021-05-06T09:44:55Z</time>
      </trkpt>
      <trkpt lat="42.71254" lon="1.64754">
        <ele>1535.84</ele>
        <time>2021-05-06T09:45:08Z</time>
      </trkpt>
      <trkpt lat="42.71241" lon="1.64749">
        <ele>1534.4</ele>
        <time>2021-05-06T09:45:20Z</time>
      </trkpt>
      <trkpt lat="42.71237" lon="1.64745">
        <ele>1534.4</ele>
        <time>2021-05-06T09:45:33Z</time>
      </trkpt>
      <trkpt lat="42.71237" lon="1.64744">
        <ele>1534.4</ele>
        <time>2021-05-06T09:45:34Z</time>
      </trkpt>
      <trkpt lat="42.71232" lon="1.64739">
        <ele>1537.29</ele>
        <time>2021-05-06T09:45:48Z</time>
      </trkpt>
      <trkpt lat="42.71225" lon="1.64734">
        <ele>1534.4</ele>
        <time>2021-05-06T09:46:01Z</time>
      </trkpt>
      <trkpt lat="42.71221" lon="1.64728">
        <ele>1534.4</ele>
        <time>2021-05-06T09:46:14Z</time>
      </trkpt>
      <trkpt lat="42.71217" lon="1.64727">
        <ele>1531.52</ele>
        <time>2021-05-06T09:46:23Z</time>
      </trkpt>
      <trkpt lat="42.7121" lon="1.64724">
        <ele>1530.08</ele>
        <time>2021-05-06T09:46:35Z</time>
      </trkpt>
      <trkpt lat="42.71209" lon="1.64723">
        <ele>1529.59</ele>
        <time>2021-05-06T09:46:38Z</time>
      </trkpt>
      <trkpt lat="42.71201" lon="1.64718">
        <ele>1528.63</ele>
        <time>2021-05-06T09:46:50Z</time>
      </trkpt>
      <trkpt lat="42.71199" lon="1.64718">
        <ele>1528.63</ele>
        <time>2021-05-06T09:46:51Z</time>
      </trkpt>
      <trkpt lat="42.71191" lon="1.6472">
        <ele>1528.15</ele>
        <time>2021-05-06T09:47:01Z</time>
      </trkpt>
      <trkpt lat="42.71184" lon="1.64717">
        <ele>1527.67</ele>
        <time>2021-05-06T09:47:13Z</time>
      </trkpt>
      <trkpt lat="42.71181" lon="1.64717">
        <ele>1528.63</ele>
        <time>2021-05-06T09:47:28Z</time>
      </trkpt>
      <trkpt lat="42.71179" lon="1.64717">
        <ele>1527.67</ele>
        <time>2021-05-06T09:47:36Z</time>
      </trkpt>
      <trkpt lat="42.7118" lon="1.64715">
        <ele>1529.11</ele>
        <time>2021-05-06T09:47:46Z</time>
      </trkpt>
      <trkpt lat="42.7118" lon="1.64713">
        <ele>1527.67</ele>
        <time>2021-05-06T09:47:49Z</time>
      </trkpt>
      <trkpt lat="42.71183" lon="1.64711">
        <ele>1527.67</ele>
        <time>2021-05-06T09:48:19Z</time>
      </trkpt>
      <trkpt lat="42.71182" lon="1.6471">
        <ele>1527.67</ele>
        <time>2021-05-06T09:48:26Z</time>
      </trkpt>
      <trkpt lat="42.71176" lon="1.64707">
        <ele>1528.15</ele>
        <time>2021-05-06T09:48:40Z</time>
      </trkpt>
      <trkpt lat="42.71176" lon="1.64706">
        <ele>1524.79</ele>
        <time>2021-05-06T09:48:41Z</time>
      </trkpt>
      <trkpt lat="42.71173" lon="1.64703">
        <ele>1523.83</ele>
        <time>2021-05-06T09:48:52Z</time>
      </trkpt>
      <trkpt lat="42.71171" lon="1.64703">
        <ele>1522.87</ele>
        <time>2021-05-06T09:48:54Z</time>
      </trkpt>
      <trkpt lat="42.71168" lon="1.64705">
        <ele>1521.42</ele>
        <time>2021-05-06T09:48:58Z</time>
      </trkpt>
      <trkpt lat="42.71167" lon="1.64703">
        <ele>1519.98</ele>
        <time>2021-05-06T09:49:09Z</time>
      </trkpt>
      <trkpt lat="42.71166" lon="1.64692">
        <ele>1519.5</ele>
        <time>2021-05-06T09:49:22Z</time>
      </trkpt>
      <trkpt lat="42.71165" lon="1.64688">
        <ele>1520.94</ele>
        <time>2021-05-06T09:49:26Z</time>
      </trkpt>
      <trkpt lat="42.71156" lon="1.6468">
        <ele>1518.54</ele>
        <time>2021-05-06T09:49:39Z</time>
      </trkpt>
      <trkpt lat="42.71151" lon="1.64679">
        <ele>1514.21</ele>
        <time>2021-05-06T09:49:48Z</time>
      </trkpt>
      <trkpt lat="42.71153" lon="1.64675">
        <ele>1514.69</ele>
        <time>2021-05-06T09:49:52Z</time>
      </trkpt>
      <trkpt lat="42.71154" lon="1.64674">
        <ele>1512.77</ele>
        <time>2021-05-06T09:49:55Z</time>
      </trkpt>
      <trkpt lat="42.71151" lon="1.64676">
        <ele>1511.81</ele>
        <time>2021-05-06T09:49:59Z</time>
      </trkpt>
      <trkpt lat="42.71138" lon="1.64681">
        <ele>1508.93</ele>
        <time>2021-05-06T09:50:12Z</time>
      </trkpt>
      <trkpt lat="42.71126" lon="1.6468">
        <ele>1510.37</ele>
        <time>2021-05-06T09:50:24Z</time>
      </trkpt>
      <trkpt lat="42.71122" lon="1.64671">
        <ele>1509.41</ele>
        <time>2021-05-06T09:50:33Z</time>
      </trkpt>
      <trkpt lat="42.71118" lon="1.64669">
        <ele>1510.85</ele>
        <time>2021-05-06T09:50:39Z</time>
      </trkpt>
      <trkpt lat="42.71116" lon="1.64668">
        <ele>1512.29</ele>
        <time>2021-05-06T09:50:43Z</time>
      </trkpt>
      <trkpt lat="42.71116" lon="1.64668">
        <ele>1510.85</ele>
        <time>2021-05-06T09:50:44Z</time>
      </trkpt>
      <trkpt lat="42.71114" lon="1.64669">
        <ele>1509.41</ele>
        <time>2021-05-06T09:50:46Z</time>
      </trkpt>
      <trkpt lat="42.71113" lon="1.64669">
        <ele>1511.33</ele>
        <time>2021-05-06T09:50:48Z</time>
      </trkpt>
      <trkpt lat="42.71099" lon="1.64673">
        <ele>1510.37</ele>
        <time>2021-05-06T09:51:01Z</time>
      </trkpt>
      <trkpt lat="42.71094" lon="1.64675">
        <ele>1509.89</ele>
        <time>2021-05-06T09:51:10Z</time>
      </trkpt>
      <trkpt lat="42.7109" lon="1.64672">
        <ele>1509.89</ele>
        <time>2021-05-06T09:51:24Z</time>
      </trkpt>
      <trkpt lat="42.71086" lon="1.64671">
        <ele>1511.33</ele>
        <time>2021-05-06T09:51:29Z</time>
      </trkpt>
      <trkpt lat="42.71076" lon="1.64675">
        <ele>1509.89</ele>
        <time>2021-05-06T09:51:35Z</time>
      </trkpt>
      <trkpt lat="42.71075" lon="1.64674">
        <ele>1511.81</ele>
        <time>2021-05-06T09:51:41Z</time>
      </trkpt>
      <trkpt lat="42.71073" lon="1.64669">
        <ele>1511.81</ele>
        <time>2021-05-06T09:51:57Z</time>
      </trkpt>
      <trkpt lat="42.7107" lon="1.6467">
        <ele>1510.37</ele>
        <time>2021-05-06T09:52:10Z</time>
      </trkpt>
      <trkpt lat="42.71068" lon="1.64672">
        <ele>1509.41</ele>
        <time>2021-05-06T09:52:21Z</time>
      </trkpt>
      <trkpt lat="42.71065" lon="1.64665">
        <ele>1510.85</ele>
        <time>2021-05-06T09:52:30Z</time>
      </trkpt>
      <trkpt lat="42.71058" lon="1.64658">
        <ele>1511.81</ele>
        <time>2021-05-06T09:52:40Z</time>
      </trkpt>
      <trkpt lat="42.71056" lon="1.64659">
        <ele>1511.33</ele>
        <time>2021-05-06T09:52:51Z</time>
      </trkpt>
      <trkpt lat="42.71054" lon="1.64661">
        <ele>1511.33</ele>
        <time>2021-05-06T09:53:22Z</time>
      </trkpt>
      <trkpt lat="42.71053" lon="1.64661">
        <ele>1509.89</ele>
        <time>2021-05-06T09:53:30Z</time>
      </trkpt>
      <trkpt lat="42.71041" lon="1.64674">
        <ele>1508.45</ele>
        <time>2021-05-06T09:53:42Z</time>
      </trkpt>
      <trkpt lat="42.71036" lon="1.64675">
        <ele>1507.48</ele>
        <time>2021-05-06T09:53:53Z</time>
      </trkpt>
      <trkpt lat="42.71036" lon="1.64678">
        <ele>1507</ele>
        <time>2021-05-06T09:54:02Z</time>
      </trkpt>
      <trkpt lat="42.71036" lon="1.64679">
        <ele>1506.52</ele>
        <time>2021-05-06T09:54:05Z</time>
      </trkpt>
      <trkpt lat="42.71022" lon="1.64688">
        <ele>1506.04</ele>
        <time>2021-05-06T09:54:20Z</time>
      </trkpt>
      <trkpt lat="42.71017" lon="1.64687">
        <ele>1507</ele>
        <time>2021-05-06T09:54:27Z</time>
      </trkpt>
      <trkpt lat="42.71009" lon="1.6468">
        <ele>1509.89</ele>
        <time>2021-05-06T09:54:40Z</time>
      </trkpt>
      <trkpt lat="42.71001" lon="1.64674">
        <ele>1511.33</ele>
        <time>2021-05-06T09:54:48Z</time>
      </trkpt>
      <trkpt lat="42.70998" lon="1.64673">
        <ele>1511.33</ele>
        <time>2021-05-06T09:54:50Z</time>
      </trkpt>
      <trkpt lat="42.70994" lon="1.64669">
        <ele>1511.81</ele>
        <time>2021-05-06T09:54:55Z</time>
      </trkpt>
      <trkpt lat="42.70989" lon="1.64661">
        <ele>1512.29</ele>
        <time>2021-05-06T09:55:06Z</time>
      </trkpt>
      <trkpt lat="42.70989" lon="1.6466">
        <ele>1512.29</ele>
        <time>2021-05-06T09:55:08Z</time>
      </trkpt>
      <trkpt lat="42.70985" lon="1.64653">
        <ele>1513.25</ele>
        <time>2021-05-06T09:55:19Z</time>
      </trkpt>
      <trkpt lat="42.7098" lon="1.64646">
        <ele>1514.69</ele>
        <time>2021-05-06T09:55:33Z</time>
      </trkpt>
      <trkpt lat="42.70974" lon="1.64646">
        <ele>1514.69</ele>
        <time>2021-05-06T09:55:45Z</time>
      </trkpt>
      <trkpt lat="42.70967" lon="1.64643">
        <ele>1514.69</ele>
        <time>2021-05-06T09:55:56Z</time>
      </trkpt>
      <trkpt lat="42.70958" lon="1.6464">
        <ele>1517.1</ele>
        <time>2021-05-06T09:56:10Z</time>
      </trkpt>
      <trkpt lat="42.70952" lon="1.64634">
        <ele>1519.02</ele>
        <time>2021-05-06T09:56:22Z</time>
      </trkpt>
      <trkpt lat="42.70943" lon="1.64633">
        <ele>1520.94</ele>
        <time>2021-05-06T09:56:33Z</time>
      </trkpt>
      <trkpt lat="42.70937" lon="1.6463">
        <ele>1522.87</ele>
        <time>2021-05-06T09:56:45Z</time>
      </trkpt>
      <trkpt lat="42.70927" lon="1.6463">
        <ele>1520.94</ele>
        <time>2021-05-06T09:56:58Z</time>
      </trkpt>
      <trkpt lat="42.70926" lon="1.64629">
        <ele>1526.23</ele>
        <time>2021-05-06T09:57:00Z</time>
      </trkpt>
      <trkpt lat="42.70926" lon="1.64629">
        <ele>1523.35</ele>
        <time>2021-05-06T09:57:01Z</time>
      </trkpt>
      <trkpt lat="42.70916" lon="1.64622">
        <ele>1523.83</ele>
        <time>2021-05-06T09:57:14Z</time>
      </trkpt>
      <trkpt lat="42.70906" lon="1.64615">
        <ele>1523.35</ele>
        <time>2021-05-06T09:57:25Z</time>
      </trkpt>
      <trkpt lat="42.70905" lon="1.64614">
        <ele>1525.75</ele>
        <time>2021-05-06T09:57:27Z</time>
      </trkpt>
      <trkpt lat="42.70903" lon="1.64601">
        <ele>1526.71</ele>
        <time>2021-05-06T09:57:40Z</time>
      </trkpt>
      <trkpt lat="42.709" lon="1.64586">
        <ele>1529.59</ele>
        <time>2021-05-06T09:57:53Z</time>
      </trkpt>
      <trkpt lat="42.70899" lon="1.64582">
        <ele>1530.56</ele>
        <time>2021-05-06T09:57:59Z</time>
      </trkpt>
      <trkpt lat="42.70898" lon="1.64578">
        <ele>1532</ele>
        <time>2021-05-06T09:58:12Z</time>
      </trkpt>
      <trkpt lat="42.70888" lon="1.64575">
        <ele>1532.96</ele>
        <time>2021-05-06T09:58:31Z</time>
      </trkpt>
      <trkpt lat="42.70883" lon="1.64573">
        <ele>1533.44</ele>
        <time>2021-05-06T09:58:40Z</time>
      </trkpt>
      <trkpt lat="42.70873" lon="1.64569">
        <ele>1533.44</ele>
        <time>2021-05-06T09:58:51Z</time>
      </trkpt>
      <trkpt lat="42.70867" lon="1.64567">
        <ele>1532.48</ele>
        <time>2021-05-06T09:58:57Z</time>
      </trkpt>
      <trkpt lat="42.7086" lon="1.64563">
        <ele>1532</ele>
        <time>2021-05-06T09:59:07Z</time>
      </trkpt>
      <trkpt lat="42.70856" lon="1.64559">
        <ele>1532</ele>
        <time>2021-05-06T09:59:15Z</time>
      </trkpt>
      <trkpt lat="42.70855" lon="1.64554">
        <ele>1533.44</ele>
        <time>2021-05-06T09:59:19Z</time>
      </trkpt>
      <trkpt lat="42.70849" lon="1.6455">
        <ele>1534.4</ele>
        <time>2021-05-06T09:59:30Z</time>
      </trkpt>
      <trkpt lat="42.70848" lon="1.64543">
        <ele>1534.88</ele>
        <time>2021-05-06T09:59:39Z</time>
      </trkpt>
      <trkpt lat="42.70843" lon="1.64542">
        <ele>1534.88</ele>
        <time>2021-05-06T09:59:45Z</time>
      </trkpt>
      <trkpt lat="42.70838" lon="1.6454">
        <ele>1534.88</ele>
        <time>2021-05-06T09:59:49Z</time>
      </trkpt>
      <trkpt lat="42.70828" lon="1.64529">
        <ele>1536.32</ele>
        <time>2021-05-06T10:00:00Z</time>
      </trkpt>
      <trkpt lat="42.7082" lon="1.64524">
        <ele>1537.29</ele>
        <time>2021-05-06T10:00:10Z</time>
      </trkpt>
      <trkpt lat="42.70812" lon="1.64526">
        <ele>1537.77</ele>
        <time>2021-05-06T10:00:26Z</time>
      </trkpt>
      <trkpt lat="42.70808" lon="1.64526">
        <ele>1536.8</ele>
        <time>2021-05-06T10:00:48Z</time>
      </trkpt>
      <trkpt lat="42.70807" lon="1.64523">
        <ele>1538.25</ele>
        <time>2021-05-06T10:01:09Z</time>
      </trkpt>
      <trkpt lat="42.70801" lon="1.64517">
        <ele>1538.73</ele>
        <time>2021-05-06T10:01:34Z</time>
      </trkpt>
      <trkpt lat="42.70801" lon="1.64513">
        <ele>1538.25</ele>
        <time>2021-05-06T10:01:52Z</time>
      </trkpt>
      <trkpt lat="42.70804" lon="1.64516">
        <ele>1538.25</ele>
        <time>2021-05-06T10:02:31Z</time>
      </trkpt>
      <trkpt lat="42.70802" lon="1.64506">
        <ele>1538.25</ele>
        <time>2021-05-06T10:03:03Z</time>
      </trkpt>
      <trkpt lat="42.70793" lon="1.64496">
        <ele>1539.21</ele>
        <time>2021-05-06T10:03:17Z</time>
      </trkpt>
      <trkpt lat="42.70791" lon="1.64492">
        <ele>1539.21</ele>
        <time>2021-05-06T10:03:20Z</time>
      </trkpt>
      <trkpt lat="42.70789" lon="1.64477">
        <ele>1540.65</ele>
        <time>2021-05-06T10:03:34Z</time>
      </trkpt>
      <trkpt lat="42.70785" lon="1.64473">
        <ele>1541.13</ele>
        <time>2021-05-06T10:03:41Z</time>
      </trkpt>
      <trkpt lat="42.70781" lon="1.64478">
        <ele>1540.65</ele>
        <time>2021-05-06T10:03:45Z</time>
      </trkpt>
      <trkpt lat="42.70781" lon="1.64476">
        <ele>1540.65</ele>
        <time>2021-05-06T10:03:48Z</time>
      </trkpt>
      <trkpt lat="42.70779" lon="1.64475">
        <ele>1540.65</ele>
        <time>2021-05-06T10:03:53Z</time>
      </trkpt>
      <trkpt lat="42.70776" lon="1.64472">
        <ele>1540.65</ele>
        <time>2021-05-06T10:03:59Z</time>
      </trkpt>
      <trkpt lat="42.70764" lon="1.64469">
        <ele>1542.09</ele>
        <time>2021-05-06T10:04:12Z</time>
      </trkpt>
      <trkpt lat="42.70763" lon="1.64468">
        <ele>1542.57</ele>
        <time>2021-05-06T10:04:13Z</time>
      </trkpt>
      <trkpt lat="42.70747" lon="1.64453">
        <ele>1544.01</ele>
        <time>2021-05-06T10:04:27Z</time>
      </trkpt>
      <trkpt lat="42.70746" lon="1.64451">
        <ele>1544.98</ele>
        <time>2021-05-06T10:04:31Z</time>
      </trkpt>
      <trkpt lat="42.70742" lon="1.64439">
        <ele>1546.9</ele>
        <time>2021-05-06T10:04:44Z</time>
      </trkpt>
      <trkpt lat="42.70737" lon="1.64433">
        <ele>1547.86</ele>
        <time>2021-05-06T10:04:51Z</time>
      </trkpt>
      <trkpt lat="42.70724" lon="1.64421">
        <ele>1548.82</ele>
        <time>2021-05-06T10:05:06Z</time>
      </trkpt>
      <trkpt lat="42.70709" lon="1.64405">
        <ele>1550.26</ele>
        <time>2021-05-06T10:05:21Z</time>
      </trkpt>
      <trkpt lat="42.70701" lon="1.64397">
        <ele>1550.74</ele>
        <time>2021-05-06T10:05:35Z</time>
      </trkpt>
      <trkpt lat="42.70694" lon="1.64392">
        <ele>1550.74</ele>
        <time>2021-05-06T10:05:47Z</time>
      </trkpt>
      <trkpt lat="42.70693" lon="1.64392">
        <ele>1550.74</ele>
        <time>2021-05-06T10:05:48Z</time>
      </trkpt>
      <trkpt lat="42.70691" lon="1.64389">
        <ele>1551.71</ele>
        <time>2021-05-06T10:05:51Z</time>
      </trkpt>
      <trkpt lat="42.70688" lon="1.64384">
        <ele>1551.71</ele>
        <time>2021-05-06T10:05:57Z</time>
      </trkpt>
      <trkpt lat="42.70684" lon="1.64383">
        <ele>1551.71</ele>
        <time>2021-05-06T10:06:02Z</time>
      </trkpt>
      <trkpt lat="42.70674" lon="1.64372">
        <ele>1552.67</ele>
        <time>2021-05-06T10:06:17Z</time>
      </trkpt>
      <trkpt lat="42.70673" lon="1.64373">
        <ele>1552.67</ele>
        <time>2021-05-06T10:06:18Z</time>
      </trkpt>
      <trkpt lat="42.70664" lon="1.64365">
        <ele>1552.67</ele>
        <time>2021-05-06T10:06:31Z</time>
      </trkpt>
      <trkpt lat="42.70659" lon="1.64356">
        <ele>1553.63</ele>
        <time>2021-05-06T10:06:45Z</time>
      </trkpt>
      <trkpt lat="42.70658" lon="1.64352">
        <ele>1553.63</ele>
        <time>2021-05-06T10:06:50Z</time>
      </trkpt>
      <trkpt lat="42.70657" lon="1.64345">
        <ele>1554.11</ele>
        <time>2021-05-06T10:06:59Z</time>
      </trkpt>
      <trkpt lat="42.70654" lon="1.64342">
        <ele>1554.11</ele>
        <time>2021-05-06T10:07:02Z</time>
      </trkpt>
      <trkpt lat="42.70645" lon="1.64336">
        <ele>1554.59</ele>
        <time>2021-05-06T10:07:16Z</time>
      </trkpt>
      <trkpt lat="42.70643" lon="1.64333">
        <ele>1554.11</ele>
        <time>2021-05-06T10:07:31Z</time>
      </trkpt>
      <trkpt lat="42.70632" lon="1.64322">
        <ele>1555.07</ele>
        <time>2021-05-06T10:07:45Z</time>
      </trkpt>
      <trkpt lat="42.70629" lon="1.64318">
        <ele>1555.07</ele>
        <time>2021-05-06T10:07:51Z</time>
      </trkpt>
      <trkpt lat="42.7062" lon="1.64309">
        <ele>1554.59</ele>
        <time>2021-05-06T10:08:05Z</time>
      </trkpt>
      <trkpt lat="42.70605" lon="1.64299">
        <ele>1556.03</ele>
        <time>2021-05-06T10:08:22Z</time>
      </trkpt>
      <trkpt lat="42.70595" lon="1.6429">
        <ele>1556.99</ele>
        <time>2021-05-06T10:08:37Z</time>
      </trkpt>
      <trkpt lat="42.70589" lon="1.64286">
        <ele>1556.99</ele>
        <time>2021-05-06T10:08:50Z</time>
      </trkpt>
      <trkpt lat="42.70585" lon="1.64275">
        <ele>1556.99</ele>
        <time>2021-05-06T10:09:04Z</time>
      </trkpt>
      <trkpt lat="42.70579" lon="1.64267">
        <ele>1557.47</ele>
        <time>2021-05-06T10:09:17Z</time>
      </trkpt>
      <trkpt lat="42.70569" lon="1.64256">
        <ele>1558.92</ele>
        <time>2021-05-06T10:09:33Z</time>
      </trkpt>
      <trkpt lat="42.70567" lon="1.64255">
        <ele>1558.92</ele>
        <time>2021-05-06T10:09:36Z</time>
      </trkpt>
      <trkpt lat="42.70559" lon="1.64245">
        <ele>1558.92</ele>
        <time>2021-05-06T10:09:51Z</time>
      </trkpt>
      <trkpt lat="42.70555" lon="1.64242">
        <ele>1559.4</ele>
        <time>2021-05-06T10:09:57Z</time>
      </trkpt>
      <trkpt lat="42.70546" lon="1.64228">
        <ele>1559.4</ele>
        <time>2021-05-06T10:10:10Z</time>
      </trkpt>
      <trkpt lat="42.70536" lon="1.64212">
        <ele>1562.28</ele>
        <time>2021-05-06T10:10:27Z</time>
      </trkpt>
      <trkpt lat="42.70528" lon="1.64208">
        <ele>1561.8</ele>
        <time>2021-05-06T10:10:36Z</time>
      </trkpt>
      <trkpt lat="42.70523" lon="1.64207">
        <ele>1563.72</ele>
        <time>2021-05-06T10:10:53Z</time>
      </trkpt>
      <trkpt lat="42.70521" lon="1.64212">
        <ele>1562.76</ele>
        <time>2021-05-06T10:11:18Z</time>
      </trkpt>
      <trkpt lat="42.70521" lon="1.64211">
        <ele>1563.72</ele>
        <time>2021-05-06T10:11:20Z</time>
      </trkpt>
      <trkpt lat="42.7052" lon="1.6421">
        <ele>1563.24</ele>
        <time>2021-05-06T10:11:47Z</time>
      </trkpt>
      <trkpt lat="42.70518" lon="1.64211">
        <ele>1558.92</ele>
        <time>2021-05-06T10:12:10Z</time>
      </trkpt>
      <trkpt lat="42.70519" lon="1.64211">
        <ele>1561.8</ele>
        <time>2021-05-06T10:12:11Z</time>
      </trkpt>
      <trkpt lat="42.7052" lon="1.64209">
        <ele>1567.57</ele>
        <time>2021-05-06T10:12:13Z</time>
      </trkpt>
      <trkpt lat="42.70521" lon="1.64209">
        <ele>1561.8</ele>
        <time>2021-05-06T10:12:14Z</time>
      </trkpt>
      <trkpt lat="42.7052" lon="1.64208">
        <ele>1560.84</ele>
        <time>2021-05-06T10:12:19Z</time>
      </trkpt>
      <trkpt lat="42.70519" lon="1.64205">
        <ele>1562.76</ele>
        <time>2021-05-06T10:12:23Z</time>
      </trkpt>
      <trkpt lat="42.70516" lon="1.64203">
        <ele>1562.76</ele>
        <time>2021-05-06T10:12:26Z</time>
      </trkpt>
      <trkpt lat="42.70507" lon="1.64205">
        <ele>1563.72</ele>
        <time>2021-05-06T10:12:35Z</time>
      </trkpt>
      <trkpt lat="42.70499" lon="1.64204">
        <ele>1566.61</ele>
        <time>2021-05-06T10:12:47Z</time>
      </trkpt>
      <trkpt lat="42.70496" lon="1.64201">
        <ele>1566.61</ele>
        <time>2021-05-06T10:12:52Z</time>
      </trkpt>
      <trkpt lat="42.70494" lon="1.64197">
        <ele>1567.57</ele>
        <time>2021-05-06T10:12:57Z</time>
      </trkpt>
      <trkpt lat="42.70493" lon="1.64196">
        <ele>1567.57</ele>
        <time>2021-05-06T10:12:59Z</time>
      </trkpt>
      <trkpt lat="42.70488" lon="1.64191">
        <ele>1568.05</ele>
        <time>2021-05-06T10:13:07Z</time>
      </trkpt>
      <trkpt lat="42.70477" lon="1.64184">
        <ele>1569.49</ele>
        <time>2021-05-06T10:13:23Z</time>
      </trkpt>
      <trkpt lat="42.70476" lon="1.64184">
        <ele>1569.49</ele>
        <time>2021-05-06T10:13:24Z</time>
      </trkpt>
      <trkpt lat="42.70464" lon="1.64182">
        <ele>1570.45</ele>
        <time>2021-05-06T10:13:38Z</time>
      </trkpt>
      <trkpt lat="42.70457" lon="1.64177">
        <ele>1571.41</ele>
        <time>2021-05-06T10:13:54Z</time>
      </trkpt>
      <trkpt lat="42.7045" lon="1.64167">
        <ele>1573.82</ele>
        <time>2021-05-06T10:14:10Z</time>
      </trkpt>
      <trkpt lat="42.70444" lon="1.64158">
        <ele>1576.7</ele>
        <time>2021-05-06T10:14:25Z</time>
      </trkpt>
      <trkpt lat="42.70441" lon="1.64149">
        <ele>1580.06</ele>
        <time>2021-05-06T10:14:36Z</time>
      </trkpt>
      <trkpt lat="42.70438" lon="1.6414">
        <ele>1582.95</ele>
        <time>2021-05-06T10:14:50Z</time>
      </trkpt>
      <trkpt lat="42.70433" lon="1.64135">
        <ele>1584.39</ele>
        <time>2021-05-06T10:15:02Z</time>
      </trkpt>
      <trkpt lat="42.70424" lon="1.64134">
        <ele>1587.75</ele>
        <time>2021-05-06T10:15:15Z</time>
      </trkpt>
      <trkpt lat="42.70422" lon="1.64134">
        <ele>1588.24</ele>
        <time>2021-05-06T10:15:20Z</time>
      </trkpt>
      <trkpt lat="42.70416" lon="1.64127">
        <ele>1589.2</ele>
        <time>2021-05-06T10:15:35Z</time>
      </trkpt>
      <trkpt lat="42.70423" lon="1.64117">
        <ele>1592.08</ele>
        <time>2021-05-06T10:15:50Z</time>
      </trkpt>
      <trkpt lat="42.70421" lon="1.64118">
        <ele>1592.56</ele>
        <time>2021-05-06T10:16:09Z</time>
      </trkpt>
      <trkpt lat="42.7042" lon="1.64116">
        <ele>1592.56</ele>
        <time>2021-05-06T10:16:22Z</time>
      </trkpt>
      <trkpt lat="42.70418" lon="1.64104">
        <ele>1593.52</ele>
        <time>2021-05-06T10:16:34Z</time>
      </trkpt>
      <trkpt lat="42.70417" lon="1.64099">
        <ele>1593.52</ele>
        <time>2021-05-06T10:16:41Z</time>
      </trkpt>
      <trkpt lat="42.70408" lon="1.64093">
        <ele>1594</ele>
        <time>2021-05-06T10:16:53Z</time>
      </trkpt>
      <trkpt lat="42.70397" lon="1.64086">
        <ele>1594.48</ele>
        <time>2021-05-06T10:17:07Z</time>
      </trkpt>
      <trkpt lat="42.70395" lon="1.64083">
        <ele>1594.48</ele>
        <time>2021-05-06T10:17:11Z</time>
      </trkpt>
      <trkpt lat="42.70383" lon="1.64082">
        <ele>1596.89</ele>
        <time>2021-05-06T10:17:25Z</time>
      </trkpt>
      <trkpt lat="42.7038" lon="1.6408">
        <ele>1596.89</ele>
        <time>2021-05-06T10:17:30Z</time>
      </trkpt>
      <trkpt lat="42.70371" lon="1.64067">
        <ele>1594.96</ele>
        <time>2021-05-06T10:17:46Z</time>
      </trkpt>
      <trkpt lat="42.70371" lon="1.64064">
        <ele>1594.96</ele>
        <time>2021-05-06T10:17:48Z</time>
      </trkpt>
      <trkpt lat="42.70368" lon="1.6405">
        <ele>1594.48</ele>
        <time>2021-05-06T10:18:00Z</time>
      </trkpt>
      <trkpt lat="42.70364" lon="1.64035">
        <ele>1594</ele>
        <time>2021-05-06T10:18:15Z</time>
      </trkpt>
      <trkpt lat="42.70363" lon="1.64035">
        <ele>1596.41</ele>
        <time>2021-05-06T10:18:33Z</time>
      </trkpt>
      <trkpt lat="42.70364" lon="1.64035">
        <ele>1594.96</ele>
        <time>2021-05-06T10:18:35Z</time>
      </trkpt>
      <trkpt lat="42.70364" lon="1.64036">
        <ele>1592.08</ele>
        <time>2021-05-06T10:18:38Z</time>
      </trkpt>
      <trkpt lat="42.70363" lon="1.64035">
        <ele>1594.96</ele>
        <time>2021-05-06T10:18:39Z</time>
      </trkpt>
      <trkpt lat="42.70363" lon="1.64036">
        <ele>1594.96</ele>
        <time>2021-05-06T10:18:40Z</time>
      </trkpt>
      <trkpt lat="42.70363" lon="1.64035">
        <ele>1593.52</ele>
        <time>2021-05-06T10:18:42Z</time>
      </trkpt>
      <trkpt lat="42.70363" lon="1.64036">
        <ele>1594.96</ele>
        <time>2021-05-06T10:18:49Z</time>
      </trkpt>
      <trkpt lat="42.70367" lon="1.64034">
        <ele>1593.04</ele>
        <time>2021-05-06T10:19:24Z</time>
      </trkpt>
      <trkpt lat="42.70367" lon="1.64034">
        <ele>1595.45</ele>
        <time>2021-05-06T10:19:26Z</time>
      </trkpt>
      <trkpt lat="42.70366" lon="1.64033">
        <ele>1594</ele>
        <time>2021-05-06T10:19:30Z</time>
      </trkpt>
      <trkpt lat="42.70366" lon="1.64035">
        <ele>1595.45</ele>
        <time>2021-05-06T10:19:42Z</time>
      </trkpt>
      <trkpt lat="42.70364" lon="1.64035">
        <ele>1594</ele>
        <time>2021-05-06T10:19:53Z</time>
      </trkpt>
      <trkpt lat="42.70365" lon="1.64035">
        <ele>1595.45</ele>
        <time>2021-05-06T10:19:56Z</time>
      </trkpt>
      <trkpt lat="42.70364" lon="1.64033">
        <ele>1591.6</ele>
        <time>2021-05-06T10:20:13Z</time>
      </trkpt>
      <trkpt lat="42.70364" lon="1.64033">
        <ele>1593.04</ele>
        <time>2021-05-06T10:20:14Z</time>
      </trkpt>
      <trkpt lat="42.70365" lon="1.64033">
        <ele>1596.41</ele>
        <time>2021-05-06T10:20:25Z</time>
      </trkpt>
      <trkpt lat="42.70365" lon="1.64033">
        <ele>1591.6</ele>
        <time>2021-05-06T10:20:33Z</time>
      </trkpt>
      <trkpt lat="42.70365" lon="1.64033">
        <ele>1594.96</ele>
        <time>2021-05-06T10:20:34Z</time>
      </trkpt>
      <trkpt lat="42.70366" lon="1.64032">
        <ele>1595.93</ele>
        <time>2021-05-06T10:20:40Z</time>
      </trkpt>
      <trkpt lat="42.70367" lon="1.64033">
        <ele>1594</ele>
        <time>2021-05-06T10:20:42Z</time>
      </trkpt>
      <trkpt lat="42.70367" lon="1.64033">
        <ele>1590.64</ele>
        <time>2021-05-06T10:20:44Z</time>
      </trkpt>
      <trkpt lat="42.70367" lon="1.64034">
        <ele>1590.64</ele>
        <time>2021-05-06T10:20:45Z</time>
      </trkpt>
      <trkpt lat="42.70367" lon="1.64033">
        <ele>1594.96</ele>
        <time>2021-05-06T10:20:46Z</time>
      </trkpt>
      <trkpt lat="42.70366" lon="1.64035">
        <ele>1594</ele>
        <time>2021-05-06T10:21:10Z</time>
      </trkpt>
      <trkpt lat="42.70362" lon="1.64034">
        <ele>1594</ele>
        <time>2021-05-06T10:21:31Z</time>
      </trkpt>
      <trkpt lat="42.70361" lon="1.64033">
        <ele>1594</ele>
        <time>2021-05-06T10:21:47Z</time>
      </trkpt>
      <trkpt lat="42.70356" lon="1.64032">
        <ele>1593.04</ele>
        <time>2021-05-06T10:21:54Z</time>
      </trkpt>
      <trkpt lat="42.70352" lon="1.64031">
        <ele>1591.6</ele>
        <time>2021-05-06T10:22:00Z</time>
      </trkpt>
      <trkpt lat="42.7035" lon="1.64028">
        <ele>1591.6</ele>
        <time>2021-05-06T10:22:03Z</time>
      </trkpt>
      <trkpt lat="42.70346" lon="1.64023">
        <ele>1590.64</ele>
        <time>2021-05-06T10:22:09Z</time>
      </trkpt>
      <trkpt lat="42.70345" lon="1.64017">
        <ele>1590.64</ele>
        <time>2021-05-06T10:22:13Z</time>
      </trkpt>
      <trkpt lat="42.70338" lon="1.64006">
        <ele>1590.64</ele>
        <time>2021-05-06T10:22:22Z</time>
      </trkpt>
      <trkpt lat="42.70331" lon="1.63994">
        <ele>1589.2</ele>
        <time>2021-05-06T10:22:34Z</time>
      </trkpt>
      <trkpt lat="42.70328" lon="1.63976">
        <ele>1590.64</ele>
        <time>2021-05-06T10:22:47Z</time>
      </trkpt>
      <trkpt lat="42.70327" lon="1.63974">
        <ele>1590.64</ele>
        <time>2021-05-06T10:22:49Z</time>
      </trkpt>
      <trkpt lat="42.70326" lon="1.63959">
        <ele>1591.12</ele>
        <time>2021-05-06T10:23:03Z</time>
      </trkpt>
      <trkpt lat="42.70318" lon="1.63935">
        <ele>1591.12</ele>
        <time>2021-05-06T10:23:20Z</time>
      </trkpt>
      <trkpt lat="42.70318" lon="1.63935">
        <ele>1591.12</ele>
        <time>2021-05-06T10:23:21Z</time>
      </trkpt>
      <trkpt lat="42.70317" lon="1.6393">
        <ele>1591.12</ele>
        <time>2021-05-06T10:23:24Z</time>
      </trkpt>
      <trkpt lat="42.7031" lon="1.63906">
        <ele>1591.12</ele>
        <time>2021-05-06T10:23:41Z</time>
      </trkpt>
      <trkpt lat="42.70309" lon="1.63901">
        <ele>1591.6</ele>
        <time>2021-05-06T10:23:45Z</time>
      </trkpt>
      <trkpt lat="42.70311" lon="1.6388">
        <ele>1591.6</ele>
        <time>2021-05-06T10:23:59Z</time>
      </trkpt>
      <trkpt lat="42.7032" lon="1.63844">
        <ele>1592.56</ele>
        <time>2021-05-06T10:24:22Z</time>
      </trkpt>
      <trkpt lat="42.7033" lon="1.63822">
        <ele>1593.04</ele>
        <time>2021-05-06T10:24:39Z</time>
      </trkpt>
      <trkpt lat="42.70331" lon="1.63815">
        <ele>1593.04</ele>
        <time>2021-05-06T10:24:45Z</time>
      </trkpt>
      <trkpt lat="42.70332" lon="1.63812">
        <ele>1591.6</ele>
        <time>2021-05-06T10:24:47Z</time>
      </trkpt>
      <trkpt lat="42.70332" lon="1.63807">
        <ele>1591.6</ele>
        <time>2021-05-06T10:24:51Z</time>
      </trkpt>
      <trkpt lat="42.70331" lon="1.63802">
        <ele>1591.6</ele>
        <time>2021-05-06T10:24:55Z</time>
      </trkpt>
      <trkpt lat="42.7033" lon="1.63795">
        <ele>1594</ele>
        <time>2021-05-06T10:25:00Z</time>
      </trkpt>
      <trkpt lat="42.70331" lon="1.63789">
        <ele>1593.52</ele>
        <time>2021-05-06T10:25:04Z</time>
      </trkpt>
      <trkpt lat="42.70329" lon="1.63781">
        <ele>1594</ele>
        <time>2021-05-06T10:25:09Z</time>
      </trkpt>
      <trkpt lat="42.70319" lon="1.63753">
        <ele>1594</ele>
        <time>2021-05-06T10:25:30Z</time>
      </trkpt>
      <trkpt lat="42.70315" lon="1.63727">
        <ele>1594.48</ele>
        <time>2021-05-06T10:25:45Z</time>
      </trkpt>
      <trkpt lat="42.70322" lon="1.6372">
        <ele>1594</ele>
        <time>2021-05-06T10:25:54Z</time>
      </trkpt>
      <trkpt lat="42.70321" lon="1.63716">
        <ele>1594.48</ele>
        <time>2021-05-06T10:25:57Z</time>
      </trkpt>
      <trkpt lat="42.70333" lon="1.63683">
        <ele>1594.96</ele>
        <time>2021-05-06T10:26:20Z</time>
      </trkpt>
      <trkpt lat="42.70336" lon="1.63678">
        <ele>1595.45</ele>
        <time>2021-05-06T10:26:25Z</time>
      </trkpt>
      <trkpt lat="42.70335" lon="1.63671">
        <ele>1595.45</ele>
        <time>2021-05-06T10:26:30Z</time>
      </trkpt>
      <trkpt lat="42.70335" lon="1.63662">
        <ele>1595.45</ele>
        <time>2021-05-06T10:26:37Z</time>
      </trkpt>
      <trkpt lat="42.70337" lon="1.63632">
        <ele>1596.41</ele>
        <time>2021-05-06T10:26:55Z</time>
      </trkpt>
      <trkpt lat="42.70329" lon="1.63603">
        <ele>1596.89</ele>
        <time>2021-05-06T10:27:14Z</time>
      </trkpt>
      <trkpt lat="42.70328" lon="1.63587">
        <ele>1597.37</ele>
        <time>2021-05-06T10:27:24Z</time>
      </trkpt>
      <trkpt lat="42.7033" lon="1.63581">
        <ele>1598.33</ele>
        <time>2021-05-06T10:27:29Z</time>
      </trkpt>
      <trkpt lat="42.70327" lon="1.63581">
        <ele>1598.33</ele>
        <time>2021-05-06T10:27:35Z</time>
      </trkpt>
      <trkpt lat="42.70329" lon="1.63576">
        <ele>1598.33</ele>
        <time>2021-05-06T10:27:39Z</time>
      </trkpt>
      <trkpt lat="42.70325" lon="1.63565">
        <ele>1599.29</ele>
        <time>2021-05-06T10:27:49Z</time>
      </trkpt>
      <trkpt lat="42.70318" lon="1.63557">
        <ele>1599.29</ele>
        <time>2021-05-06T10:27:55Z</time>
      </trkpt>
      <trkpt lat="42.70307" lon="1.63536">
        <ele>1601.21</ele>
        <time>2021-05-06T10:28:11Z</time>
      </trkpt>
      <trkpt lat="42.70304" lon="1.63531">
        <ele>1601.69</ele>
        <time>2021-05-06T10:28:15Z</time>
      </trkpt>
      <trkpt lat="42.70303" lon="1.63528">
        <ele>1602.17</ele>
        <time>2021-05-06T10:28:18Z</time>
      </trkpt>
      <trkpt lat="42.70301" lon="1.63502">
        <ele>1604.1</ele>
        <time>2021-05-06T10:28:36Z</time>
      </trkpt>
      <trkpt lat="42.70299" lon="1.63484">
        <ele>1604.58</ele>
        <time>2021-05-06T10:28:48Z</time>
      </trkpt>
      <trkpt lat="42.70299" lon="1.63477">
        <ele>1605.54</ele>
        <time>2021-05-06T10:28:53Z</time>
      </trkpt>
      <trkpt lat="42.70296" lon="1.63457">
        <ele>1606.98</ele>
        <time>2021-05-06T10:29:07Z</time>
      </trkpt>
      <trkpt lat="42.70296" lon="1.63448">
        <ele>1606.5</ele>
        <time>2021-05-06T10:29:15Z</time>
      </trkpt>
      <trkpt lat="42.70302" lon="1.63435">
        <ele>1605.06</ele>
        <time>2021-05-06T10:29:26Z</time>
      </trkpt>
      <trkpt lat="42.70304" lon="1.63429">
        <ele>1605.06</ele>
        <time>2021-05-06T10:29:31Z</time>
      </trkpt>
      <trkpt lat="42.70314" lon="1.63415">
        <ele>1605.06</ele>
        <time>2021-05-06T10:29:43Z</time>
      </trkpt>
      <trkpt lat="42.70319" lon="1.63412">
        <ele>1606.02</ele>
        <time>2021-05-06T10:29:48Z</time>
      </trkpt>
      <trkpt lat="42.70326" lon="1.63407">
        <ele>1606.5</ele>
        <time>2021-05-06T10:29:55Z</time>
      </trkpt>
      <trkpt lat="42.7033" lon="1.63389">
        <ele>1608.9</ele>
        <time>2021-05-06T10:30:10Z</time>
      </trkpt>
      <trkpt lat="42.70335" lon="1.63384">
        <ele>1608.9</ele>
        <time>2021-05-06T10:30:17Z</time>
      </trkpt>
      <trkpt lat="42.70343" lon="1.63371">
        <ele>1610.35</ele>
        <time>2021-05-06T10:30:30Z</time>
      </trkpt>
      <trkpt lat="42.70346" lon="1.63363">
        <ele>1612.27</ele>
        <time>2021-05-06T10:30:44Z</time>
      </trkpt>
      <trkpt lat="42.7034" lon="1.63355">
        <ele>1612.27</ele>
        <time>2021-05-06T10:31:10Z</time>
      </trkpt>
      <trkpt lat="42.7034" lon="1.63345">
        <ele>1613.23</ele>
        <time>2021-05-06T10:31:19Z</time>
      </trkpt>
      <trkpt lat="42.70337" lon="1.6333">
        <ele>1615.63</ele>
        <time>2021-05-06T10:31:33Z</time>
      </trkpt>
      <trkpt lat="42.70337" lon="1.63315">
        <ele>1619</ele>
        <time>2021-05-06T10:31:48Z</time>
      </trkpt>
      <trkpt lat="42.70337" lon="1.63295">
        <ele>1620.44</ele>
        <time>2021-05-06T10:32:04Z</time>
      </trkpt>
      <trkpt lat="42.70338" lon="1.63289">
        <ele>1620.44</ele>
        <time>2021-05-06T10:32:09Z</time>
      </trkpt>
      <trkpt lat="42.70334" lon="1.63277">
        <ele>1621.4</ele>
        <time>2021-05-06T10:32:19Z</time>
      </trkpt>
      <trkpt lat="42.70331" lon="1.63265">
        <ele>1621.4</ele>
        <time>2021-05-06T10:32:33Z</time>
      </trkpt>
      <trkpt lat="42.7033" lon="1.63263">
        <ele>1621.4</ele>
        <time>2021-05-06T10:32:56Z</time>
      </trkpt>
      <trkpt lat="42.70328" lon="1.63269">
        <ele>1622.84</ele>
        <time>2021-05-06T10:33:12Z</time>
      </trkpt>
      <trkpt lat="42.70328" lon="1.6327">
        <ele>1622.36</ele>
        <time>2021-05-06T10:33:13Z</time>
      </trkpt>
      <trkpt lat="42.70324" lon="1.63269">
        <ele>1621.88</ele>
        <time>2021-05-06T10:33:24Z</time>
      </trkpt>
      <trkpt lat="42.7032" lon="1.6327">
        <ele>1621.88</ele>
        <time>2021-05-06T10:33:51Z</time>
      </trkpt>
      <trkpt lat="42.70321" lon="1.63278">
        <ele>1621.4</ele>
        <time>2021-05-06T10:34:12Z</time>
      </trkpt>
      <trkpt lat="42.70336" lon="1.63259">
        <ele>1621.4</ele>
        <time>2021-05-06T10:34:24Z</time>
      </trkpt>
      <trkpt lat="42.70332" lon="1.63264">
        <ele>1621.4</ele>
        <time>2021-05-06T10:34:38Z</time>
      </trkpt>
      <trkpt lat="42.70329" lon="1.63269">
        <ele>1621.4</ele>
        <time>2021-05-06T10:34:42Z</time>
      </trkpt>
      <trkpt lat="42.70312" lon="1.63276">
        <ele>1621.4</ele>
        <time>2021-05-06T10:35:18Z</time>
      </trkpt>
      <trkpt lat="42.70316" lon="1.63266">
        <ele>1621.4</ele>
        <time>2021-05-06T10:35:38Z</time>
      </trkpt>
      <trkpt lat="42.70315" lon="1.63271">
        <ele>1622.36</ele>
        <time>2021-05-06T10:36:03Z</time>
      </trkpt>
      <trkpt lat="42.70321" lon="1.63266">
        <ele>1622.36</ele>
        <time>2021-05-06T10:36:07Z</time>
      </trkpt>
      <trkpt lat="42.70338" lon="1.63265">
        <ele>1622.84</ele>
        <time>2021-05-06T10:36:21Z</time>
      </trkpt>
      <trkpt lat="42.7034" lon="1.63265">
        <ele>1623.32</ele>
        <time>2021-05-06T10:36:33Z</time>
      </trkpt>
      <trkpt lat="42.70339" lon="1.63265">
        <ele>1621.88</ele>
        <time>2021-05-06T10:36:35Z</time>
      </trkpt>
      <trkpt lat="42.70334" lon="1.63268">
        <ele>1620.92</ele>
        <time>2021-05-06T10:36:48Z</time>
      </trkpt>
      <trkpt lat="42.70335" lon="1.63268">
        <ele>1622.36</ele>
        <time>2021-05-06T10:36:50Z</time>
      </trkpt>
      <trkpt lat="42.70334" lon="1.63265">
        <ele>1622.36</ele>
        <time>2021-05-06T10:37:07Z</time>
      </trkpt>
      <trkpt lat="42.70333" lon="1.63264">
        <ele>1622.36</ele>
        <time>2021-05-06T10:37:21Z</time>
      </trkpt>
      <trkpt lat="42.70332" lon="1.63266">
        <ele>1622.36</ele>
        <time>2021-05-06T10:37:35Z</time>
      </trkpt>
      <trkpt lat="42.70332" lon="1.63265">
        <ele>1622.36</ele>
        <time>2021-05-06T10:37:51Z</time>
      </trkpt>
      <trkpt lat="42.70331" lon="1.63266">
        <ele>1621.4</ele>
        <time>2021-05-06T10:38:09Z</time>
      </trkpt>
      <trkpt lat="42.70332" lon="1.63266">
        <ele>1621.4</ele>
        <time>2021-05-06T10:38:34Z</time>
      </trkpt>
      <trkpt lat="42.70331" lon="1.63264">
        <ele>1621.4</ele>
        <time>2021-05-06T10:38:57Z</time>
      </trkpt>
      <trkpt lat="42.7033" lon="1.63264">
        <ele>1621.4</ele>
        <time>2021-05-06T10:39:18Z</time>
      </trkpt>
      <trkpt lat="42.7033" lon="1.63265">
        <ele>1621.4</ele>
        <time>2021-05-06T10:39:40Z</time>
      </trkpt>
      <trkpt lat="42.7033" lon="1.63265">
        <ele>1621.4</ele>
        <time>2021-05-06T10:40:01Z</time>
      </trkpt>
      <trkpt lat="42.70332" lon="1.63265">
        <ele>1621.4</ele>
        <time>2021-05-06T10:40:24Z</time>
      </trkpt>
      <trkpt lat="42.70332" lon="1.63266">
        <ele>1621.4</ele>
        <time>2021-05-06T10:40:43Z</time>
      </trkpt>
      <trkpt lat="42.70332" lon="1.63266">
        <ele>1622.36</ele>
        <time>2021-05-06T10:41:00Z</time>
      </trkpt>
      <trkpt lat="42.70331" lon="1.63264">
        <ele>1622.36</ele>
        <time>2021-05-06T10:41:21Z</time>
      </trkpt>
      <trkpt lat="42.7033" lon="1.63265">
        <ele>1622.36</ele>
        <time>2021-05-06T10:41:43Z</time>
      </trkpt>
      <trkpt lat="42.70332" lon="1.63266">
        <ele>1622.36</ele>
        <time>2021-05-06T10:41:58Z</time>
      </trkpt>
      <trkpt lat="42.70337" lon="1.63266">
        <ele>1622.36</ele>
        <time>2021-05-06T10:42:15Z</time>
      </trkpt>
      <trkpt lat="42.70344" lon="1.63269">
        <ele>1622.36</ele>
        <time>2021-05-06T10:42:38Z</time>
      </trkpt>
      <trkpt lat="42.70334" lon="1.63267">
        <ele>1622.36</ele>
        <time>2021-05-06T10:42:57Z</time>
      </trkpt>
      <trkpt lat="42.70337" lon="1.63265">
        <ele>1622.84</ele>
        <time>2021-05-06T10:43:16Z</time>
      </trkpt>
      <trkpt lat="42.70341" lon="1.63268">
        <ele>1622.84</ele>
        <time>2021-05-06T10:43:37Z</time>
      </trkpt>
      <trkpt lat="42.70341" lon="1.63267">
        <ele>1622.84</ele>
        <time>2021-05-06T10:43:52Z</time>
      </trkpt>
      <trkpt lat="42.7034" lon="1.63267">
        <ele>1622.84</ele>
        <time>2021-05-06T10:44:13Z</time>
      </trkpt>
      <trkpt lat="42.70343" lon="1.63267">
        <ele>1623.32</ele>
        <time>2021-05-06T10:44:35Z</time>
      </trkpt>
      <trkpt lat="42.70342" lon="1.63267">
        <ele>1623.32</ele>
        <time>2021-05-06T10:44:58Z</time>
      </trkpt>
      <trkpt lat="42.70341" lon="1.63268">
        <ele>1623.32</ele>
        <time>2021-05-06T10:45:21Z</time>
      </trkpt>
      <trkpt lat="42.70337" lon="1.63267">
        <ele>1621.88</ele>
        <time>2021-05-06T10:45:47Z</time>
      </trkpt>
      <trkpt lat="42.70337" lon="1.63266">
        <ele>1621.88</ele>
        <time>2021-05-06T10:46:11Z</time>
      </trkpt>
      <trkpt lat="42.70359" lon="1.63269">
        <ele>1621.88</ele>
        <time>2021-05-06T10:46:38Z</time>
      </trkpt>
      <trkpt lat="42.70372" lon="1.63274">
        <ele>1621.88</ele>
        <time>2021-05-06T10:47:04Z</time>
      </trkpt>
      <trkpt lat="42.70384" lon="1.63273">
        <ele>1621.88</ele>
        <time>2021-05-06T10:47:28Z</time>
      </trkpt>
      <trkpt lat="42.70392" lon="1.63278">
        <ele>1621.88</ele>
        <time>2021-05-06T10:47:52Z</time>
      </trkpt>
      <trkpt lat="42.70397" lon="1.63276">
        <ele>1622.36</ele>
        <time>2021-05-06T10:48:14Z</time>
      </trkpt>
      <trkpt lat="42.70393" lon="1.63276">
        <ele>1622.36</ele>
        <time>2021-05-06T10:48:35Z</time>
      </trkpt>
      <trkpt lat="42.70394" lon="1.63277">
        <ele>1622.84</ele>
        <time>2021-05-06T10:48:58Z</time>
      </trkpt>
      <trkpt lat="42.70396" lon="1.63278">
        <ele>1623.32</ele>
        <time>2021-05-06T10:49:19Z</time>
      </trkpt>
      <trkpt lat="42.70393" lon="1.63279">
        <ele>1623.8</ele>
        <time>2021-05-06T10:49:37Z</time>
      </trkpt>
      <trkpt lat="42.70391" lon="1.63275">
        <ele>1624.28</ele>
        <time>2021-05-06T10:50:01Z</time>
      </trkpt>
      <trkpt lat="42.70393" lon="1.63277">
        <ele>1624.28</ele>
        <time>2021-05-06T10:50:27Z</time>
      </trkpt>
      <trkpt lat="42.70393" lon="1.63279">
        <ele>1624.28</ele>
        <time>2021-05-06T10:50:49Z</time>
      </trkpt>
      <trkpt lat="42.70396" lon="1.63277">
        <ele>1624.77</ele>
        <time>2021-05-06T10:51:17Z</time>
      </trkpt>
      <trkpt lat="42.70403" lon="1.63279">
        <ele>1625.25</ele>
        <time>2021-05-06T10:51:45Z</time>
      </trkpt>
      <trkpt lat="42.70406" lon="1.63281">
        <ele>1625.25</ele>
        <time>2021-05-06T10:52:02Z</time>
      </trkpt>
      <trkpt lat="42.70412" lon="1.63281">
        <ele>1625.25</ele>
        <time>2021-05-06T10:52:19Z</time>
      </trkpt>
      <trkpt lat="42.70405" lon="1.6328">
        <ele>1625.73</ele>
        <time>2021-05-06T10:52:38Z</time>
      </trkpt>
      <trkpt lat="42.70413" lon="1.63281">
        <ele>1625.73</ele>
        <time>2021-05-06T10:52:59Z</time>
      </trkpt>
      <trkpt lat="42.70422" lon="1.63282">
        <ele>1625.73</ele>
        <time>2021-05-06T10:53:21Z</time>
      </trkpt>
      <trkpt lat="42.70437" lon="1.63288">
        <ele>1625.73</ele>
        <time>2021-05-06T10:53:48Z</time>
      </trkpt>
      <trkpt lat="42.7045" lon="1.63289">
        <ele>1625.73</ele>
        <time>2021-05-06T10:54:13Z</time>
      </trkpt>
      <trkpt lat="42.70446" lon="1.63288">
        <ele>1625.25</ele>
        <time>2021-05-06T10:54:31Z</time>
      </trkpt>
      <trkpt lat="42.70451" lon="1.63288">
        <ele>1625.25</ele>
        <time>2021-05-06T10:54:51Z</time>
      </trkpt>
      <trkpt lat="42.70473" lon="1.63292">
        <ele>1625.25</ele>
        <time>2021-05-06T10:55:18Z</time>
      </trkpt>
      <trkpt lat="42.70485" lon="1.63293">
        <ele>1625.25</ele>
        <time>2021-05-06T10:55:37Z</time>
      </trkpt>
      <trkpt lat="42.70416" lon="1.63284">
        <ele>1625.25</ele>
        <time>2021-05-06T10:56:08Z</time>
      </trkpt>
      <trkpt lat="42.70432" lon="1.63285">
        <ele>1625.25</ele>
        <time>2021-05-06T10:56:16Z</time>
      </trkpt>
      <trkpt lat="42.70468" lon="1.63293">
        <ele>1624.77</ele>
        <time>2021-05-06T10:56:34Z</time>
      </trkpt>
      <trkpt lat="42.70469" lon="1.63294">
        <ele>1626.69</ele>
        <time>2021-05-06T10:56:36Z</time>
      </trkpt>
      <trkpt lat="42.70483" lon="1.63298">
        <ele>1625.73</ele>
        <time>2021-05-06T10:56:47Z</time>
      </trkpt>
      <trkpt lat="42.70486" lon="1.63299">
        <ele>1625.73</ele>
        <time>2021-05-06T10:56:48Z</time>
      </trkpt>
      <trkpt lat="42.70249" lon="1.63271">
        <ele>1625.73</ele>
        <time>2021-05-06T10:57:36Z</time>
      </trkpt>
      <trkpt lat="42.7011" lon="1.63238">
        <ele>1626.21</ele>
        <time>2021-05-06T10:58:07Z</time>
      </trkpt>
      <trkpt lat="42.70147" lon="1.63249">
        <ele>1626.21</ele>
        <time>2021-05-06T10:58:36Z</time>
      </trkpt>
      <trkpt lat="42.70117" lon="1.63232">
        <ele>1626.69</ele>
        <time>2021-05-06T10:59:19Z</time>
      </trkpt>
      <trkpt lat="42.6975" lon="1.63172">
        <ele>1625.73</ele>
        <time>2021-05-06T10:59:41Z</time>
      </trkpt>
      <trkpt lat="42.69752" lon="1.63173">
        <ele>1625.73</ele>
        <time>2021-05-06T10:59:44Z</time>
      </trkpt>
      <trkpt lat="42.69753" lon="1.63174">
        <ele>1625.73</ele>
        <time>2021-05-06T10:59:45Z</time>
      </trkpt>
      <trkpt lat="42.70022" lon="1.63239">
        <ele>1626.21</ele>
        <time>2021-05-06T11:01:18Z</time>
      </trkpt>
      <trkpt lat="42.70015" lon="1.63246">
        <ele>1626.69</ele>
        <time>2021-05-06T11:01:39Z</time>
      </trkpt>
      <trkpt lat="42.70105" lon="1.63256">
        <ele>1627.65</ele>
        <time>2021-05-06T11:02:11Z</time>
      </trkpt>
      <trkpt lat="42.70173" lon="1.63269">
        <ele>1628.13</ele>
        <time>2021-05-06T11:02:36Z</time>
      </trkpt>
      <trkpt lat="42.70148" lon="1.63273">
        <ele>1629.09</ele>
        <time>2021-05-06T11:03:03Z</time>
      </trkpt>
      <trkpt lat="42.7016" lon="1.63273">
        <ele>1630.05</ele>
        <time>2021-05-06T11:03:29Z</time>
      </trkpt>
      <trkpt lat="42.70138" lon="1.63266">
        <ele>1631.01</ele>
        <time>2021-05-06T11:03:55Z</time>
      </trkpt>
      <trkpt lat="42.70124" lon="1.63272">
        <ele>1631.49</ele>
        <time>2021-05-06T11:04:15Z</time>
      </trkpt>
      <trkpt lat="42.70126" lon="1.63266">
        <ele>1631.01</ele>
        <time>2021-05-06T11:04:44Z</time>
      </trkpt>
      <trkpt lat="42.70278" lon="1.63291">
        <ele>1631.98</ele>
        <time>2021-05-06T11:05:12Z</time>
      </trkpt>
      <trkpt lat="42.70284" lon="1.6328">
        <ele>1631.98</ele>
        <time>2021-05-06T11:05:39Z</time>
      </trkpt>
      <trkpt lat="42.7029" lon="1.63287">
        <ele>1631.98</ele>
        <time>2021-05-06T11:06:00Z</time>
      </trkpt>
      <trkpt lat="42.70292" lon="1.63289">
        <ele>1631.98</ele>
        <time>2021-05-06T11:06:29Z</time>
      </trkpt>
      <trkpt lat="42.70302" lon="1.63293">
        <ele>1632.94</ele>
        <time>2021-05-06T11:07:05Z</time>
      </trkpt>
      <trkpt lat="42.70302" lon="1.63291">
        <ele>1632.94</ele>
        <time>2021-05-06T11:07:14Z</time>
      </trkpt>
      <trkpt lat="42.70298" lon="1.63286">
        <ele>1634.38</ele>
        <time>2021-05-06T11:07:29Z</time>
      </trkpt>
      <trkpt lat="42.70304" lon="1.63285">
        <ele>1634.38</ele>
        <time>2021-05-06T11:07:47Z</time>
      </trkpt>
      <trkpt lat="42.70307" lon="1.63291">
        <ele>1634.38</ele>
        <time>2021-05-06T11:07:53Z</time>
      </trkpt>
      <trkpt lat="42.70318" lon="1.63311">
        <ele>1633.42</ele>
        <time>2021-05-06T11:08:05Z</time>
      </trkpt>
      <trkpt lat="42.70319" lon="1.63312">
        <ele>1632.94</ele>
        <time>2021-05-06T11:08:06Z</time>
      </trkpt>
      <trkpt lat="42.70325" lon="1.63315">
        <ele>1631.49</ele>
        <time>2021-05-06T11:08:10Z</time>
      </trkpt>
      <trkpt lat="42.70327" lon="1.63326">
        <ele>1631.49</ele>
        <time>2021-05-06T11:08:17Z</time>
      </trkpt>
      <trkpt lat="42.70326" lon="1.63333">
        <ele>1630.53</ele>
        <time>2021-05-06T11:08:23Z</time>
      </trkpt>
      <trkpt lat="42.70329" lon="1.63337">
        <ele>1628.13</ele>
        <time>2021-05-06T11:08:30Z</time>
      </trkpt>
      <trkpt lat="42.70333" lon="1.63342">
        <ele>1627.17</ele>
        <time>2021-05-06T11:08:37Z</time>
      </trkpt>
      <trkpt lat="42.70338" lon="1.63349">
        <ele>1625.25</ele>
        <time>2021-05-06T11:08:45Z</time>
      </trkpt>
      <trkpt lat="42.70342" lon="1.63368">
        <ele>1623.32</ele>
        <time>2021-05-06T11:09:03Z</time>
      </trkpt>
      <trkpt lat="42.70341" lon="1.63373">
        <ele>1622.84</ele>
        <time>2021-05-06T11:09:09Z</time>
      </trkpt>
      <trkpt lat="42.70338" lon="1.63382">
        <ele>1621.88</ele>
        <time>2021-05-06T11:09:15Z</time>
      </trkpt>
      <trkpt lat="42.70333" lon="1.63392">
        <ele>1620.44</ele>
        <time>2021-05-06T11:09:26Z</time>
      </trkpt>
      <trkpt lat="42.70331" lon="1.63396">
        <ele>1620.44</ele>
        <time>2021-05-06T11:09:31Z</time>
      </trkpt>
      <trkpt lat="42.70326" lon="1.63405">
        <ele>1618.52</ele>
        <time>2021-05-06T11:09:45Z</time>
      </trkpt>
      <trkpt lat="42.70321" lon="1.63405">
        <ele>1618.52</ele>
        <time>2021-05-06T11:09:52Z</time>
      </trkpt>
      <trkpt lat="42.70318" lon="1.63407">
        <ele>1618.04</ele>
        <time>2021-05-06T11:09:56Z</time>
      </trkpt>
      <trkpt lat="42.70312" lon="1.63417">
        <ele>1617.56</ele>
        <time>2021-05-06T11:10:06Z</time>
      </trkpt>
      <trkpt lat="42.70304" lon="1.63428">
        <ele>1617.07</ele>
        <time>2021-05-06T11:10:21Z</time>
      </trkpt>
      <trkpt lat="42.70299" lon="1.63438">
        <ele>1619.48</ele>
        <time>2021-05-06T11:10:38Z</time>
      </trkpt>
      <trkpt lat="42.70296" lon="1.63446">
        <ele>1619</ele>
        <time>2021-05-06T11:10:43Z</time>
      </trkpt>
      <trkpt lat="42.70299" lon="1.63461">
        <ele>1619.48</ele>
        <time>2021-05-06T11:10:57Z</time>
      </trkpt>
      <trkpt lat="42.70298" lon="1.63463">
        <ele>1619.48</ele>
        <time>2021-05-06T11:10:59Z</time>
      </trkpt>
      <trkpt lat="42.70297" lon="1.63489">
        <ele>1617.07</ele>
        <time>2021-05-06T11:11:15Z</time>
      </trkpt>
      <trkpt lat="42.70293" lon="1.63511">
        <ele>1615.63</ele>
        <time>2021-05-06T11:11:30Z</time>
      </trkpt>
      <trkpt lat="42.70277" lon="1.63546">
        <ele>1613.23</ele>
        <time>2021-05-06T11:11:52Z</time>
      </trkpt>
      <trkpt lat="42.70283" lon="1.63579">
        <ele>1612.75</ele>
        <time>2021-05-06T11:12:12Z</time>
      </trkpt>
      <trkpt lat="42.70285" lon="1.63592">
        <ele>1612.27</ele>
        <time>2021-05-06T11:12:20Z</time>
      </trkpt>
      <trkpt lat="42.70286" lon="1.63594">
        <ele>1611.31</ele>
        <time>2021-05-06T11:12:22Z</time>
      </trkpt>
      <trkpt lat="42.70287" lon="1.63597">
        <ele>1611.31</ele>
        <time>2021-05-06T11:12:24Z</time>
      </trkpt>
      <trkpt lat="42.70285" lon="1.63612">
        <ele>1609.86</ele>
        <time>2021-05-06T11:12:39Z</time>
      </trkpt>
      <trkpt lat="42.70294" lon="1.63617">
        <ele>1608.9</ele>
        <time>2021-05-06T11:12:44Z</time>
      </trkpt>
      <trkpt lat="42.70297" lon="1.63618">
        <ele>1608.9</ele>
        <time>2021-05-06T11:12:46Z</time>
      </trkpt>
      <trkpt lat="42.70299" lon="1.63621">
        <ele>1608.9</ele>
        <time>2021-05-06T11:12:48Z</time>
      </trkpt>
      <trkpt lat="42.703" lon="1.63628">
        <ele>1608.9</ele>
        <time>2021-05-06T11:12:53Z</time>
      </trkpt>
      <trkpt lat="42.703" lon="1.63633">
        <ele>1607.94</ele>
        <time>2021-05-06T11:12:57Z</time>
      </trkpt>
      <trkpt lat="42.70298" lon="1.63639">
        <ele>1607.46</ele>
        <time>2021-05-06T11:13:02Z</time>
      </trkpt>
      <trkpt lat="42.70293" lon="1.63647">
        <ele>1606.98</ele>
        <time>2021-05-06T11:13:14Z</time>
      </trkpt>
      <trkpt lat="42.70291" lon="1.63654">
        <ele>1606.98</ele>
        <time>2021-05-06T11:13:23Z</time>
      </trkpt>
      <trkpt lat="42.70292" lon="1.6365">
        <ele>1606.02</ele>
        <time>2021-05-06T11:13:32Z</time>
      </trkpt>
      <trkpt lat="42.70297" lon="1.6364">
        <ele>1606.02</ele>
        <time>2021-05-06T11:13:40Z</time>
      </trkpt>
      <trkpt lat="42.70299" lon="1.63634">
        <ele>1606.02</ele>
        <time>2021-05-06T11:13:44Z</time>
      </trkpt>
      <trkpt lat="42.703" lon="1.63621">
        <ele>1607.46</ele>
        <time>2021-05-06T11:13:53Z</time>
      </trkpt>
      <trkpt lat="42.70301" lon="1.63611">
        <ele>1607.94</ele>
        <time>2021-05-06T11:13:59Z</time>
      </trkpt>
      <trkpt lat="42.70307" lon="1.63586">
        <ele>1608.42</ele>
        <time>2021-05-06T11:14:14Z</time>
      </trkpt>
      <trkpt lat="42.70307" lon="1.63582">
        <ele>1609.38</ele>
        <time>2021-05-06T11:14:27Z</time>
      </trkpt>
      <trkpt lat="42.70308" lon="1.63582">
        <ele>1609.38</ele>
        <time>2021-05-06T11:14:29Z</time>
      </trkpt>
      <trkpt lat="42.70303" lon="1.63597">
        <ele>1609.38</ele>
        <time>2021-05-06T11:14:40Z</time>
      </trkpt>
      <trkpt lat="42.70301" lon="1.636">
        <ele>1609.38</ele>
        <time>2021-05-06T11:14:42Z</time>
      </trkpt>
      <trkpt lat="42.70298" lon="1.6362">
        <ele>1607.46</ele>
        <time>2021-05-06T11:14:55Z</time>
      </trkpt>
      <trkpt lat="42.70298" lon="1.63633">
        <ele>1606.98</ele>
        <time>2021-05-06T11:15:03Z</time>
      </trkpt>
      <trkpt lat="42.70291" lon="1.63645">
        <ele>1606.02</ele>
        <time>2021-05-06T11:15:17Z</time>
      </trkpt>
      <trkpt lat="42.70287" lon="1.63663">
        <ele>1606.02</ele>
        <time>2021-05-06T11:15:29Z</time>
      </trkpt>
      <trkpt lat="42.70278" lon="1.63684">
        <ele>1604.58</ele>
        <time>2021-05-06T11:15:43Z</time>
      </trkpt>
      <trkpt lat="42.70273" lon="1.63694">
        <ele>1604.1</ele>
        <time>2021-05-06T11:15:50Z</time>
      </trkpt>
      <trkpt lat="42.70275" lon="1.63697">
        <ele>1604.1</ele>
        <time>2021-05-06T11:15:52Z</time>
      </trkpt>
      <trkpt lat="42.7027" lon="1.63715">
        <ele>1603.62</ele>
        <time>2021-05-06T11:16:06Z</time>
      </trkpt>
      <trkpt lat="42.70266" lon="1.6373">
        <ele>1603.14</ele>
        <time>2021-05-06T11:16:20Z</time>
      </trkpt>
      <trkpt lat="42.70271" lon="1.63752">
        <ele>1602.17</ele>
        <time>2021-05-06T11:16:38Z</time>
      </trkpt>
      <trkpt lat="42.70274" lon="1.63769">
        <ele>1603.14</ele>
        <time>2021-05-06T11:16:51Z</time>
      </trkpt>
      <trkpt lat="42.70276" lon="1.63803">
        <ele>1601.69</ele>
        <time>2021-05-06T11:17:12Z</time>
      </trkpt>
      <trkpt lat="42.70276" lon="1.63804">
        <ele>1601.21</ele>
        <time>2021-05-06T11:17:13Z</time>
      </trkpt>
      <trkpt lat="42.70273" lon="1.63827">
        <ele>1600.25</ele>
        <time>2021-05-06T11:17:30Z</time>
      </trkpt>
      <trkpt lat="42.7027" lon="1.63845">
        <ele>1598.81</ele>
        <time>2021-05-06T11:17:44Z</time>
      </trkpt>
      <trkpt lat="42.70263" lon="1.63855">
        <ele>1600.25</ele>
        <time>2021-05-06T11:17:53Z</time>
      </trkpt>
      <trkpt lat="42.70259" lon="1.63861">
        <ele>1600.25</ele>
        <time>2021-05-06T11:18:01Z</time>
      </trkpt>
      <trkpt lat="42.70258" lon="1.63859">
        <ele>1598.81</ele>
        <time>2021-05-06T11:18:03Z</time>
      </trkpt>
      <trkpt lat="42.70251" lon="1.63866">
        <ele>1598.33</ele>
        <time>2021-05-06T11:18:13Z</time>
      </trkpt>
      <trkpt lat="42.7025" lon="1.63873">
        <ele>1599.77</ele>
        <time>2021-05-06T11:18:22Z</time>
      </trkpt>
      <trkpt lat="42.70245" lon="1.6388">
        <ele>1600.73</ele>
        <time>2021-05-06T11:18:29Z</time>
      </trkpt>
      <trkpt lat="42.70243" lon="1.63884">
        <ele>1601.21</ele>
        <time>2021-05-06T11:18:33Z</time>
      </trkpt>
      <trkpt lat="42.70248" lon="1.63889">
        <ele>1601.21</ele>
        <time>2021-05-06T11:18:36Z</time>
      </trkpt>
      <trkpt lat="42.70264" lon="1.63916">
        <ele>1601.69</ele>
        <time>2021-05-06T11:18:54Z</time>
      </trkpt>
      <trkpt lat="42.70262" lon="1.63917">
        <ele>1601.69</ele>
        <time>2021-05-06T11:18:57Z</time>
      </trkpt>
      <trkpt lat="42.70262" lon="1.63925">
        <ele>1601.69</ele>
        <time>2021-05-06T11:19:04Z</time>
      </trkpt>
      <trkpt lat="42.70268" lon="1.63951">
        <ele>1601.69</ele>
        <time>2021-05-06T11:19:21Z</time>
      </trkpt>
      <trkpt lat="42.70268" lon="1.63952">
        <ele>1600.25</ele>
        <time>2021-05-06T11:19:22Z</time>
      </trkpt>
      <trkpt lat="42.70268" lon="1.6396">
        <ele>1599.77</ele>
        <time>2021-05-06T11:19:27Z</time>
      </trkpt>
      <trkpt lat="42.70268" lon="1.63968">
        <ele>1599.29</ele>
        <time>2021-05-06T11:19:34Z</time>
      </trkpt>
      <trkpt lat="42.70268" lon="1.63976">
        <ele>1597.85</ele>
        <time>2021-05-06T11:19:47Z</time>
      </trkpt>
      <trkpt lat="42.70267" lon="1.63982">
        <ele>1598.33</ele>
        <time>2021-05-06T11:19:52Z</time>
      </trkpt>
      <trkpt lat="42.70266" lon="1.63984">
        <ele>1598.33</ele>
        <time>2021-05-06T11:19:54Z</time>
      </trkpt>
      <trkpt lat="42.70268" lon="1.63994">
        <ele>1598.81</ele>
        <time>2021-05-06T11:20:05Z</time>
      </trkpt>
      <trkpt lat="42.70266" lon="1.63998">
        <ele>1598.33</ele>
        <time>2021-05-06T11:20:19Z</time>
      </trkpt>
      <trkpt lat="42.70274" lon="1.64009">
        <ele>1598.81</ele>
        <time>2021-05-06T11:20:30Z</time>
      </trkpt>
      <trkpt lat="42.70279" lon="1.64024">
        <ele>1598.33</ele>
        <time>2021-05-06T11:20:41Z</time>
      </trkpt>
      <trkpt lat="42.70279" lon="1.64029">
        <ele>1597.37</ele>
        <time>2021-05-06T11:20:44Z</time>
      </trkpt>
      <trkpt lat="42.70277" lon="1.64044">
        <ele>1596.41</ele>
        <time>2021-05-06T11:20:56Z</time>
      </trkpt>
      <trkpt lat="42.70275" lon="1.6405">
        <ele>1594.96</ele>
        <time>2021-05-06T11:21:01Z</time>
      </trkpt>
      <trkpt lat="42.70276" lon="1.64054">
        <ele>1594.96</ele>
        <time>2021-05-06T11:21:04Z</time>
      </trkpt>
      <trkpt lat="42.70277" lon="1.64061">
        <ele>1596.41</ele>
        <time>2021-05-06T11:21:09Z</time>
      </trkpt>
      <trkpt lat="42.70278" lon="1.64066">
        <ele>1595.45</ele>
        <time>2021-05-06T11:21:12Z</time>
      </trkpt>
      <trkpt lat="42.7028" lon="1.64069">
        <ele>1595.45</ele>
        <time>2021-05-06T11:21:15Z</time>
      </trkpt>
      <trkpt lat="42.7029" lon="1.64075">
        <ele>1594.48</ele>
        <time>2021-05-06T11:21:23Z</time>
      </trkpt>
      <trkpt lat="42.70296" lon="1.64088">
        <ele>1593.52</ele>
        <time>2021-05-06T11:21:33Z</time>
      </trkpt>
      <trkpt lat="42.70297" lon="1.64098">
        <ele>1593.04</ele>
        <time>2021-05-06T11:21:39Z</time>
      </trkpt>
      <trkpt lat="42.70302" lon="1.64112">
        <ele>1593.04</ele>
        <time>2021-05-06T11:21:51Z</time>
      </trkpt>
      <trkpt lat="42.70304" lon="1.64121">
        <ele>1593.04</ele>
        <time>2021-05-06T11:21:59Z</time>
      </trkpt>
      <trkpt lat="42.70305" lon="1.64131">
        <ele>1593.04</ele>
        <time>2021-05-06T11:22:06Z</time>
      </trkpt>
      <trkpt lat="42.70304" lon="1.64155">
        <ele>1594</ele>
        <time>2021-05-06T11:22:25Z</time>
      </trkpt>
      <trkpt lat="42.70303" lon="1.64156">
        <ele>1594</ele>
        <time>2021-05-06T11:22:26Z</time>
      </trkpt>
      <trkpt lat="42.70302" lon="1.6416">
        <ele>1594.48</ele>
        <time>2021-05-06T11:22:30Z</time>
      </trkpt>
      <trkpt lat="42.70303" lon="1.64179">
        <ele>1593.04</ele>
        <time>2021-05-06T11:22:45Z</time>
      </trkpt>
      <trkpt lat="42.70304" lon="1.64191">
        <ele>1594.48</ele>
        <time>2021-05-06T11:22:55Z</time>
      </trkpt>
      <trkpt lat="42.70303" lon="1.64211">
        <ele>1596.41</ele>
        <time>2021-05-06T11:23:12Z</time>
      </trkpt>
      <trkpt lat="42.70307" lon="1.64229">
        <ele>1597.37</ele>
        <time>2021-05-06T11:23:27Z</time>
      </trkpt>
      <trkpt lat="42.70307" lon="1.6423">
        <ele>1597.85</ele>
        <time>2021-05-06T11:23:28Z</time>
      </trkpt>
      <trkpt lat="42.7031" lon="1.64249">
        <ele>1598.81</ele>
        <time>2021-05-06T11:23:43Z</time>
      </trkpt>
      <trkpt lat="42.7031" lon="1.64253">
        <ele>1600.25</ele>
        <time>2021-05-06T11:23:46Z</time>
      </trkpt>
      <trkpt lat="42.70309" lon="1.64254">
        <ele>1599.77</ele>
        <time>2021-05-06T11:23:48Z</time>
      </trkpt>
      <trkpt lat="42.7031" lon="1.64261">
        <ele>1600.73</ele>
        <time>2021-05-06T11:23:56Z</time>
      </trkpt>
      <trkpt lat="42.70312" lon="1.64272">
        <ele>1601.21</ele>
        <time>2021-05-06T11:24:08Z</time>
      </trkpt>
      <trkpt lat="42.70313" lon="1.64278">
        <ele>1601.69</ele>
        <time>2021-05-06T11:24:26Z</time>
      </trkpt>
      <trkpt lat="42.70312" lon="1.64283">
        <ele>1601.69</ele>
        <time>2021-05-06T11:24:31Z</time>
      </trkpt>
      <trkpt lat="42.70312" lon="1.6429">
        <ele>1603.14</ele>
        <time>2021-05-06T11:24:42Z</time>
      </trkpt>
      <trkpt lat="42.70307" lon="1.64294">
        <ele>1604.1</ele>
        <time>2021-05-06T11:24:57Z</time>
      </trkpt>
      <trkpt lat="42.703" lon="1.64296">
        <ele>1605.06</ele>
        <time>2021-05-06T11:25:09Z</time>
      </trkpt>
      <trkpt lat="42.70294" lon="1.64298">
        <ele>1607.46</ele>
        <time>2021-05-06T11:25:22Z</time>
      </trkpt>
      <trkpt lat="42.7029" lon="1.64304">
        <ele>1608.42</ele>
        <time>2021-05-06T11:25:34Z</time>
      </trkpt>
      <trkpt lat="42.70285" lon="1.64312">
        <ele>1611.31</ele>
        <time>2021-05-06T11:25:50Z</time>
      </trkpt>
      <trkpt lat="42.70285" lon="1.64315">
        <ele>1611.79</ele>
        <time>2021-05-06T11:26:08Z</time>
      </trkpt>
      <trkpt lat="42.70281" lon="1.64325">
        <ele>1613.71</ele>
        <time>2021-05-06T11:26:20Z</time>
      </trkpt>
      <trkpt lat="42.70279" lon="1.64336">
        <ele>1615.15</ele>
        <time>2021-05-06T11:26:34Z</time>
      </trkpt>
      <trkpt lat="42.70279" lon="1.64337">
        <ele>1613.23</ele>
        <time>2021-05-06T11:26:35Z</time>
      </trkpt>
      <trkpt lat="42.70279" lon="1.64338">
        <ele>1616.59</ele>
        <time>2021-05-06T11:26:36Z</time>
      </trkpt>
      <trkpt lat="42.7028" lon="1.64342">
        <ele>1615.15</ele>
        <time>2021-05-06T11:26:40Z</time>
      </trkpt>
      <trkpt lat="42.70281" lon="1.64349">
        <ele>1615.15</ele>
        <time>2021-05-06T11:26:47Z</time>
      </trkpt>
      <trkpt lat="42.70285" lon="1.64361">
        <ele>1617.07</ele>
        <time>2021-05-06T11:26:59Z</time>
      </trkpt>
      <trkpt lat="42.70289" lon="1.64367">
        <ele>1617.56</ele>
        <time>2021-05-06T11:27:11Z</time>
      </trkpt>
      <trkpt lat="42.70289" lon="1.64375">
        <ele>1618.04</ele>
        <time>2021-05-06T11:27:25Z</time>
      </trkpt>
      <trkpt lat="42.70293" lon="1.64391">
        <ele>1619</ele>
        <time>2021-05-06T11:27:38Z</time>
      </trkpt>
      <trkpt lat="42.7029" lon="1.64401">
        <ele>1621.88</ele>
        <time>2021-05-06T11:27:54Z</time>
      </trkpt>
      <trkpt lat="42.70291" lon="1.64406">
        <ele>1622.84</ele>
        <time>2021-05-06T11:28:07Z</time>
      </trkpt>
      <trkpt lat="42.70293" lon="1.64411">
        <ele>1624.28</ele>
        <time>2021-05-06T11:28:20Z</time>
      </trkpt>
      <trkpt lat="42.70297" lon="1.64414">
        <ele>1625.25</ele>
        <time>2021-05-06T11:28:31Z</time>
      </trkpt>
      <trkpt lat="42.70297" lon="1.64416">
        <ele>1625.25</ele>
        <time>2021-05-06T11:28:48Z</time>
      </trkpt>
      <trkpt lat="42.70298" lon="1.64424">
        <ele>1627.65</ele>
        <time>2021-05-06T11:29:03Z</time>
      </trkpt>
      <trkpt lat="42.70304" lon="1.64432">
        <ele>1629.57</ele>
        <time>2021-05-06T11:29:17Z</time>
      </trkpt>
      <trkpt lat="42.70309" lon="1.6444">
        <ele>1631.49</ele>
        <time>2021-05-06T11:29:29Z</time>
      </trkpt>
      <trkpt lat="42.70315" lon="1.6445">
        <ele>1633.42</ele>
        <time>2021-05-06T11:29:42Z</time>
      </trkpt>
      <trkpt lat="42.70317" lon="1.64453">
        <ele>1633.9</ele>
        <time>2021-05-06T11:30:02Z</time>
      </trkpt>
      <trkpt lat="42.70319" lon="1.64462">
        <ele>1636.78</ele>
        <time>2021-05-06T11:30:20Z</time>
      </trkpt>
      <trkpt lat="42.70319" lon="1.64473">
        <ele>1639.19</ele>
        <time>2021-05-06T11:30:44Z</time>
      </trkpt>
      <trkpt lat="42.70312" lon="1.6448">
        <ele>1641.11</ele>
        <time>2021-05-06T11:30:57Z</time>
      </trkpt>
      <trkpt lat="42.70313" lon="1.64486">
        <ele>1642.55</ele>
        <time>2021-05-06T11:31:13Z</time>
      </trkpt>
      <trkpt lat="42.70317" lon="1.64493">
        <ele>1643.03</ele>
        <time>2021-05-06T11:31:26Z</time>
      </trkpt>
      <trkpt lat="42.70318" lon="1.64498">
        <ele>1644.95</ele>
        <time>2021-05-06T11:31:42Z</time>
      </trkpt>
      <trkpt lat="42.70319" lon="1.64511">
        <ele>1647.84</ele>
        <time>2021-05-06T11:31:56Z</time>
      </trkpt>
      <trkpt lat="42.70321" lon="1.6452">
        <ele>1649.28</ele>
        <time>2021-05-06T11:32:13Z</time>
      </trkpt>
      <trkpt lat="42.70319" lon="1.64527">
        <ele>1651.68</ele>
        <time>2021-05-06T11:32:26Z</time>
      </trkpt>
      <trkpt lat="42.70314" lon="1.64536">
        <ele>1654.57</ele>
        <time>2021-05-06T11:32:39Z</time>
      </trkpt>
      <trkpt lat="42.70314" lon="1.64543">
        <ele>1656.49</ele>
        <time>2021-05-06T11:32:53Z</time>
      </trkpt>
      <trkpt lat="42.70313" lon="1.64547">
        <ele>1656.49</ele>
        <time>2021-05-06T11:33:00Z</time>
      </trkpt>
      <trkpt lat="42.70304" lon="1.64551">
        <ele>1657.45</ele>
        <time>2021-05-06T11:33:14Z</time>
      </trkpt>
      <trkpt lat="42.70301" lon="1.6456">
        <ele>1660.81</ele>
        <time>2021-05-06T11:33:28Z</time>
      </trkpt>
      <trkpt lat="42.70299" lon="1.64567">
        <ele>1662.26</ele>
        <time>2021-05-06T11:33:40Z</time>
      </trkpt>
      <trkpt lat="42.70296" lon="1.64576">
        <ele>1663.22</ele>
        <time>2021-05-06T11:33:55Z</time>
      </trkpt>
      <trkpt lat="42.70292" lon="1.64587">
        <ele>1665.62</ele>
        <time>2021-05-06T11:34:08Z</time>
      </trkpt>
      <trkpt lat="42.70289" lon="1.64598">
        <ele>1668.02</ele>
        <time>2021-05-06T11:34:22Z</time>
      </trkpt>
      <trkpt lat="42.70284" lon="1.64603">
        <ele>1670.43</ele>
        <time>2021-05-06T11:34:37Z</time>
      </trkpt>
      <trkpt lat="42.70279" lon="1.64608">
        <ele>1672.35</ele>
        <time>2021-05-06T11:34:50Z</time>
      </trkpt>
      <trkpt lat="42.70278" lon="1.64611">
        <ele>1674.27</ele>
        <time>2021-05-06T11:35:04Z</time>
      </trkpt>
      <trkpt lat="42.70278" lon="1.64613">
        <ele>1674.27</ele>
        <time>2021-05-06T11:35:27Z</time>
      </trkpt>
      <trkpt lat="42.70279" lon="1.64613">
        <ele>1670.91</ele>
        <time>2021-05-06T11:35:29Z</time>
      </trkpt>
      <trkpt lat="42.70279" lon="1.64613">
        <ele>1676.68</ele>
        <time>2021-05-06T11:35:30Z</time>
      </trkpt>
      <trkpt lat="42.70279" lon="1.64613">
        <ele>1673.79</ele>
        <time>2021-05-06T11:35:32Z</time>
      </trkpt>
      <trkpt lat="42.70281" lon="1.64613">
        <ele>1673.79</ele>
        <time>2021-05-06T11:36:10Z</time>
      </trkpt>
      <trkpt lat="42.70282" lon="1.64616">
        <ele>1673.79</ele>
        <time>2021-05-06T11:36:40Z</time>
      </trkpt>
      <trkpt lat="42.7028" lon="1.64615">
        <ele>1673.79</ele>
        <time>2021-05-06T11:37:00Z</time>
      </trkpt>
      <trkpt lat="42.70281" lon="1.64615">
        <ele>1673.79</ele>
        <time>2021-05-06T11:37:38Z</time>
      </trkpt>
      <trkpt lat="42.70276" lon="1.64614">
        <ele>1673.79</ele>
        <time>2021-05-06T11:38:12Z</time>
      </trkpt>
      <trkpt lat="42.7027" lon="1.64616">
        <ele>1673.79</ele>
        <time>2021-05-06T11:38:42Z</time>
      </trkpt>
      <trkpt lat="42.70271" lon="1.6462">
        <ele>1676.68</ele>
        <time>2021-05-06T11:39:03Z</time>
      </trkpt>
      <trkpt lat="42.70267" lon="1.64628">
        <ele>1679.56</ele>
        <time>2021-05-06T11:39:16Z</time>
      </trkpt>
      <trkpt lat="42.70262" lon="1.64636">
        <ele>1681.48</ele>
        <time>2021-05-06T11:39:33Z</time>
      </trkpt>
      <trkpt lat="42.70255" lon="1.64641">
        <ele>1683.89</ele>
        <time>2021-05-06T11:39:46Z</time>
      </trkpt>
      <trkpt lat="42.7025" lon="1.64649">
        <ele>1685.81</ele>
        <time>2021-05-06T11:40:01Z</time>
      </trkpt>
      <trkpt lat="42.70251" lon="1.64653">
        <ele>1686.29</ele>
        <time>2021-05-06T11:40:12Z</time>
      </trkpt>
      <trkpt lat="42.70264" lon="1.64661">
        <ele>1686.77</ele>
        <time>2021-05-06T11:40:27Z</time>
      </trkpt>
      <trkpt lat="42.70274" lon="1.64668">
        <ele>1686.77</ele>
        <time>2021-05-06T11:40:42Z</time>
      </trkpt>
      <trkpt lat="42.70275" lon="1.64667">
        <ele>1685.81</ele>
        <time>2021-05-06T11:40:45Z</time>
      </trkpt>
      <trkpt lat="42.70283" lon="1.64664">
        <ele>1684.37</ele>
        <time>2021-05-06T11:40:57Z</time>
      </trkpt>
      <trkpt lat="42.70286" lon="1.64665">
        <ele>1683.89</ele>
        <time>2021-05-06T11:41:09Z</time>
      </trkpt>
      <trkpt lat="42.70289" lon="1.64668">
        <ele>1683.89</ele>
        <time>2021-05-06T11:41:22Z</time>
      </trkpt>
      <trkpt lat="42.70298" lon="1.64666">
        <ele>1682.93</ele>
        <time>2021-05-06T11:41:34Z</time>
      </trkpt>
      <trkpt lat="42.70302" lon="1.64663">
        <ele>1681.96</ele>
        <time>2021-05-06T11:41:48Z</time>
      </trkpt>
      <trkpt lat="42.70302" lon="1.64662">
        <ele>1681.48</ele>
        <time>2021-05-06T11:42:08Z</time>
      </trkpt>
      <trkpt lat="42.70303" lon="1.64662">
        <ele>1681.96</ele>
        <time>2021-05-06T11:42:32Z</time>
      </trkpt>
      <trkpt lat="42.70305" lon="1.64662">
        <ele>1681.96</ele>
        <time>2021-05-06T11:43:05Z</time>
      </trkpt>
      <trkpt lat="42.70305" lon="1.64664">
        <ele>1681.96</ele>
        <time>2021-05-06T11:43:41Z</time>
      </trkpt>
      <trkpt lat="42.70305" lon="1.64664">
        <ele>1681.96</ele>
        <time>2021-05-06T11:44:11Z</time>
      </trkpt>
      <trkpt lat="42.70304" lon="1.64663">
        <ele>1681.96</ele>
        <time>2021-05-06T11:44:39Z</time>
      </trkpt>
      <trkpt lat="42.70303" lon="1.64662">
        <ele>1681.96</ele>
        <time>2021-05-06T11:45:07Z</time>
      </trkpt>
      <trkpt lat="42.70303" lon="1.64663">
        <ele>1681.96</ele>
        <time>2021-05-06T11:45:31Z</time>
      </trkpt>
      <trkpt lat="42.70301" lon="1.64664">
        <ele>1681.96</ele>
        <time>2021-05-06T11:46:00Z</time>
      </trkpt>
      <trkpt lat="42.70301" lon="1.64664">
        <ele>1682.93</ele>
        <time>2021-05-06T11:46:04Z</time>
      </trkpt>
      <trkpt lat="42.70302" lon="1.64662">
        <ele>1679.56</ele>
        <time>2021-05-06T11:46:13Z</time>
      </trkpt>
      <trkpt lat="42.70303" lon="1.64662">
        <ele>1683.41</ele>
        <time>2021-05-06T11:46:14Z</time>
      </trkpt>
      <trkpt lat="42.70302" lon="1.64662">
        <ele>1683.41</ele>
        <time>2021-05-06T11:46:43Z</time>
      </trkpt>
      <trkpt lat="42.70298" lon="1.64662">
        <ele>1683.41</ele>
        <time>2021-05-06T11:46:49Z</time>
      </trkpt>
      <trkpt lat="42.7029" lon="1.64671">
        <ele>1684.85</ele>
        <time>2021-05-06T11:47:04Z</time>
      </trkpt>
      <trkpt lat="42.70278" lon="1.64676">
        <ele>1688.21</ele>
        <time>2021-05-06T11:47:19Z</time>
      </trkpt>
      <trkpt lat="42.70265" lon="1.64681">
        <ele>1689.17</ele>
        <time>2021-05-06T11:47:35Z</time>
      </trkpt>
      <trkpt lat="42.70256" lon="1.64681">
        <ele>1689.65</ele>
        <time>2021-05-06T11:47:47Z</time>
      </trkpt>
      <trkpt lat="42.70247" lon="1.64669">
        <ele>1687.73</ele>
        <time>2021-05-06T11:48:02Z</time>
      </trkpt>
      <trkpt lat="42.70244" lon="1.64665">
        <ele>1687.25</ele>
        <time>2021-05-06T11:48:08Z</time>
      </trkpt>
      <trkpt lat="42.70239" lon="1.64653">
        <ele>1686.77</ele>
        <time>2021-05-06T11:48:18Z</time>
      </trkpt>
      <trkpt lat="42.70229" lon="1.64657">
        <ele>1686.77</ele>
        <time>2021-05-06T11:48:29Z</time>
      </trkpt>
      <trkpt lat="42.70219" lon="1.64654">
        <ele>1685.81</ele>
        <time>2021-05-06T11:48:43Z</time>
      </trkpt>
      <trkpt lat="42.70218" lon="1.64655">
        <ele>1685.81</ele>
        <time>2021-05-06T11:48:44Z</time>
      </trkpt>
      <trkpt lat="42.70206" lon="1.64656">
        <ele>1682.44</ele>
        <time>2021-05-06T11:48:57Z</time>
      </trkpt>
      <trkpt lat="42.70195" lon="1.64656">
        <ele>1680.04</ele>
        <time>2021-05-06T11:49:11Z</time>
      </trkpt>
      <trkpt lat="42.70189" lon="1.64657">
        <ele>1678.12</ele>
        <time>2021-05-06T11:49:19Z</time>
      </trkpt>
      <trkpt lat="42.70183" lon="1.64658">
        <ele>1677.64</ele>
        <time>2021-05-06T11:49:26Z</time>
      </trkpt>
      <trkpt lat="42.70174" lon="1.64661">
        <ele>1675.72</ele>
        <time>2021-05-06T11:49:40Z</time>
      </trkpt>
      <trkpt lat="42.70164" lon="1.64665">
        <ele>1673.31</ele>
        <time>2021-05-06T11:49:54Z</time>
      </trkpt>
      <trkpt lat="42.70157" lon="1.64672">
        <ele>1671.87</ele>
        <time>2021-05-06T11:50:10Z</time>
      </trkpt>
      <trkpt lat="42.70147" lon="1.64679">
        <ele>1669.95</ele>
        <time>2021-05-06T11:50:24Z</time>
      </trkpt>
      <trkpt lat="42.70142" lon="1.64681">
        <ele>1668.51</ele>
        <time>2021-05-06T11:50:32Z</time>
      </trkpt>
      <trkpt lat="42.70133" lon="1.64683">
        <ele>1668.02</ele>
        <time>2021-05-06T11:50:50Z</time>
      </trkpt>
      <trkpt lat="42.70131" lon="1.64681">
        <ele>1668.02</ele>
        <time>2021-05-06T11:51:30Z</time>
      </trkpt>
      <trkpt lat="42.70138" lon="1.64683">
        <ele>1668.02</ele>
        <time>2021-05-06T11:52:01Z</time>
      </trkpt>
      <trkpt lat="42.70132" lon="1.64679">
        <ele>1669.47</ele>
        <time>2021-05-06T11:52:26Z</time>
      </trkpt>
      <trkpt lat="42.70131" lon="1.64679">
        <ele>1669.47</ele>
        <time>2021-05-06T11:52:27Z</time>
      </trkpt>
      <trkpt lat="42.70119" lon="1.64677">
        <ele>1671.87</ele>
        <time>2021-05-06T11:52:41Z</time>
      </trkpt>
      <trkpt lat="42.70114" lon="1.64679">
        <ele>1672.35</ele>
        <time>2021-05-06T11:52:45Z</time>
      </trkpt>
      <trkpt lat="42.70105" lon="1.64689">
        <ele>1673.31</ele>
        <time>2021-05-06T11:52:58Z</time>
      </trkpt>
      <trkpt lat="42.70098" lon="1.64695">
        <ele>1674.75</ele>
        <time>2021-05-06T11:53:10Z</time>
      </trkpt>
      <trkpt lat="42.70095" lon="1.64701">
        <ele>1673.31</ele>
        <time>2021-05-06T11:53:27Z</time>
      </trkpt>
      <trkpt lat="42.70089" lon="1.64708">
        <ele>1672.83</ele>
        <time>2021-05-06T11:53:44Z</time>
      </trkpt>
      <trkpt lat="42.70085" lon="1.64715">
        <ele>1670.91</ele>
        <time>2021-05-06T11:54:00Z</time>
      </trkpt>
      <trkpt lat="42.70084" lon="1.64715">
        <ele>1670.91</ele>
        <time>2021-05-06T11:54:05Z</time>
      </trkpt>
      <trkpt lat="42.70077" lon="1.6472">
        <ele>1670.91</ele>
        <time>2021-05-06T11:54:11Z</time>
      </trkpt>
      <trkpt lat="42.7007" lon="1.64729">
        <ele>1670.91</ele>
        <time>2021-05-06T11:54:23Z</time>
      </trkpt>
      <trkpt lat="42.70067" lon="1.64734">
        <ele>1670.91</ele>
        <time>2021-05-06T11:54:33Z</time>
      </trkpt>
      <trkpt lat="42.70062" lon="1.64733">
        <ele>1670.43</ele>
        <time>2021-05-06T11:54:42Z</time>
      </trkpt>
      <trkpt lat="42.70059" lon="1.64734">
        <ele>1671.87</ele>
        <time>2021-05-06T11:54:45Z</time>
      </trkpt>
      <trkpt lat="42.70047" lon="1.6474">
        <ele>1672.35</ele>
        <time>2021-05-06T11:54:58Z</time>
      </trkpt>
      <trkpt lat="42.70049" lon="1.64746">
        <ele>1670.91</ele>
        <time>2021-05-06T11:55:13Z</time>
      </trkpt>
      <trkpt lat="42.70049" lon="1.64747">
        <ele>1670.91</ele>
        <time>2021-05-06T11:55:14Z</time>
      </trkpt>
      <trkpt lat="42.70047" lon="1.64754">
        <ele>1667.54</ele>
        <time>2021-05-06T11:55:25Z</time>
      </trkpt>
      <trkpt lat="42.70048" lon="1.64753">
        <ele>1667.06</ele>
        <time>2021-05-06T11:55:43Z</time>
      </trkpt>
      <trkpt lat="42.7005" lon="1.64759">
        <ele>1663.7</ele>
        <time>2021-05-06T11:55:55Z</time>
      </trkpt>
      <trkpt lat="42.70053" lon="1.64764">
        <ele>1661.3</ele>
        <time>2021-05-06T11:56:07Z</time>
      </trkpt>
      <trkpt lat="42.70055" lon="1.64768">
        <ele>1657.93</ele>
        <time>2021-05-06T11:56:18Z</time>
      </trkpt>
      <trkpt lat="42.70051" lon="1.64779">
        <ele>1655.53</ele>
        <time>2021-05-06T11:56:30Z</time>
      </trkpt>
      <trkpt lat="42.70056" lon="1.64788">
        <ele>1652.64</ele>
        <time>2021-05-06T11:56:43Z</time>
      </trkpt>
      <trkpt lat="42.70065" lon="1.64797">
        <ele>1650.24</ele>
        <time>2021-05-06T11:56:56Z</time>
      </trkpt>
      <trkpt lat="42.70071" lon="1.64802">
        <ele>1649.28</ele>
        <time>2021-05-06T11:57:08Z</time>
      </trkpt>
      <trkpt lat="42.70077" lon="1.64807">
        <ele>1648.32</ele>
        <time>2021-05-06T11:57:19Z</time>
      </trkpt>
      <trkpt lat="42.70085" lon="1.64808">
        <ele>1646.88</ele>
        <time>2021-05-06T11:57:32Z</time>
      </trkpt>
      <trkpt lat="42.70092" lon="1.64808">
        <ele>1643.99</ele>
        <time>2021-05-06T11:57:47Z</time>
      </trkpt>
      <trkpt lat="42.701" lon="1.64809">
        <ele>1641.11</ele>
        <time>2021-05-06T11:57:59Z</time>
      </trkpt>
      <trkpt lat="42.7011" lon="1.64809">
        <ele>1639.19</ele>
        <time>2021-05-06T11:58:12Z</time>
      </trkpt>
      <trkpt lat="42.70118" lon="1.6481">
        <ele>1635.82</ele>
        <time>2021-05-06T11:58:24Z</time>
      </trkpt>
      <trkpt lat="42.7012" lon="1.64809">
        <ele>1635.34</ele>
        <time>2021-05-06T11:58:28Z</time>
      </trkpt>
      <trkpt lat="42.70124" lon="1.64809">
        <ele>1632.94</ele>
        <time>2021-05-06T11:58:38Z</time>
      </trkpt>
      <trkpt lat="42.70124" lon="1.64809">
        <ele>1634.86</ele>
        <time>2021-05-06T11:58:40Z</time>
      </trkpt>
      <trkpt lat="42.70131" lon="1.64805">
        <ele>1631.98</ele>
        <time>2021-05-06T11:58:54Z</time>
      </trkpt>
      <trkpt lat="42.70136" lon="1.64801">
        <ele>1630.53</ele>
        <time>2021-05-06T11:59:09Z</time>
      </trkpt>
      <trkpt lat="42.70142" lon="1.64799">
        <ele>1629.09</ele>
        <time>2021-05-06T11:59:23Z</time>
      </trkpt>
      <trkpt lat="42.70148" lon="1.64797">
        <ele>1630.05</ele>
        <time>2021-05-06T11:59:40Z</time>
      </trkpt>
      <trkpt lat="42.70151" lon="1.64804">
        <ele>1628.61</ele>
        <time>2021-05-06T11:59:46Z</time>
      </trkpt>
      <trkpt lat="42.70151" lon="1.64807">
        <ele>1627.17</ele>
        <time>2021-05-06T11:59:54Z</time>
      </trkpt>
      <trkpt lat="42.70147" lon="1.64808">
        <ele>1626.21</ele>
        <time>2021-05-06T12:00:06Z</time>
      </trkpt>
      <trkpt lat="42.70146" lon="1.64812">
        <ele>1626.21</ele>
        <time>2021-05-06T12:00:17Z</time>
      </trkpt>
      <trkpt lat="42.70142" lon="1.6482">
        <ele>1623.8</ele>
        <time>2021-05-06T12:00:27Z</time>
      </trkpt>
      <trkpt lat="42.70139" lon="1.64832">
        <ele>1621.88</ele>
        <time>2021-05-06T12:00:42Z</time>
      </trkpt>
      <trkpt lat="42.7014" lon="1.64843">
        <ele>1619.48</ele>
        <time>2021-05-06T12:00:55Z</time>
      </trkpt>
      <trkpt lat="42.7014" lon="1.64856">
        <ele>1616.59</ele>
        <time>2021-05-06T12:01:09Z</time>
      </trkpt>
      <trkpt lat="42.70141" lon="1.64869">
        <ele>1616.11</ele>
        <time>2021-05-06T12:01:23Z</time>
      </trkpt>
      <trkpt lat="42.70145" lon="1.64874">
        <ele>1615.15</ele>
        <time>2021-05-06T12:01:30Z</time>
      </trkpt>
      <trkpt lat="42.70147" lon="1.64878">
        <ele>1614.67</ele>
        <time>2021-05-06T12:01:43Z</time>
      </trkpt>
      <trkpt lat="42.7015" lon="1.64882">
        <ele>1614.19</ele>
        <time>2021-05-06T12:01:51Z</time>
      </trkpt>
      <trkpt lat="42.7015" lon="1.6489">
        <ele>1613.23</ele>
        <time>2021-05-06T12:02:05Z</time>
      </trkpt>
      <trkpt lat="42.70149" lon="1.64891">
        <ele>1612.75</ele>
        <time>2021-05-06T12:02:07Z</time>
      </trkpt>
      <trkpt lat="42.70145" lon="1.64901">
        <ele>1611.31</ele>
        <time>2021-05-06T12:02:21Z</time>
      </trkpt>
      <trkpt lat="42.70144" lon="1.64907">
        <ele>1608.9</ele>
        <time>2021-05-06T12:02:33Z</time>
      </trkpt>
      <trkpt lat="42.70142" lon="1.64907">
        <ele>1606.98</ele>
        <time>2021-05-06T12:02:46Z</time>
      </trkpt>
      <trkpt lat="42.70135" lon="1.64911">
        <ele>1606.5</ele>
        <time>2021-05-06T12:02:55Z</time>
      </trkpt>
      <trkpt lat="42.70137" lon="1.64917">
        <ele>1604.58</ele>
        <time>2021-05-06T12:03:07Z</time>
      </trkpt>
      <trkpt lat="42.70138" lon="1.64922">
        <ele>1603.62</ele>
        <time>2021-05-06T12:03:18Z</time>
      </trkpt>
      <trkpt lat="42.70143" lon="1.64927">
        <ele>1602.17</ele>
        <time>2021-05-06T12:03:32Z</time>
      </trkpt>
      <trkpt lat="42.70143" lon="1.64933">
        <ele>1600.73</ele>
        <time>2021-05-06T12:03:45Z</time>
      </trkpt>
      <trkpt lat="42.70144" lon="1.64939">
        <ele>1597.85</ele>
        <time>2021-05-06T12:03:55Z</time>
      </trkpt>
      <trkpt lat="42.70143" lon="1.64944">
        <ele>1594.96</ele>
        <time>2021-05-06T12:04:08Z</time>
      </trkpt>
      <trkpt lat="42.70143" lon="1.64945">
        <ele>1594.48</ele>
        <time>2021-05-06T12:04:12Z</time>
      </trkpt>
      <trkpt lat="42.70143" lon="1.64956">
        <ele>1592.56</ele>
        <time>2021-05-06T12:04:26Z</time>
      </trkpt>
      <trkpt lat="42.70142" lon="1.64965">
        <ele>1589.68</ele>
        <time>2021-05-06T12:04:41Z</time>
      </trkpt>
      <trkpt lat="42.70143" lon="1.64971">
        <ele>1587.27</ele>
        <time>2021-05-06T12:04:53Z</time>
      </trkpt>
      <trkpt lat="42.7014" lon="1.64975">
        <ele>1585.35</ele>
        <time>2021-05-06T12:05:05Z</time>
      </trkpt>
      <trkpt lat="42.70145" lon="1.64985">
        <ele>1582.47</ele>
        <time>2021-05-06T12:05:19Z</time>
      </trkpt>
      <trkpt lat="42.70144" lon="1.64994">
        <ele>1579.58</ele>
        <time>2021-05-06T12:05:31Z</time>
      </trkpt>
      <trkpt lat="42.70148" lon="1.65003">
        <ele>1578.62</ele>
        <time>2021-05-06T12:05:43Z</time>
      </trkpt>
      <trkpt lat="42.70154" lon="1.65008">
        <ele>1577.18</ele>
        <time>2021-05-06T12:05:55Z</time>
      </trkpt>
      <trkpt lat="42.70154" lon="1.65022">
        <ele>1574.78</ele>
        <time>2021-05-06T12:06:08Z</time>
      </trkpt>
      <trkpt lat="42.7015" lon="1.65029">
        <ele>1571.89</ele>
        <time>2021-05-06T12:06:23Z</time>
      </trkpt>
      <trkpt lat="42.70155" lon="1.65029">
        <ele>1571.41</ele>
        <time>2021-05-06T12:06:53Z</time>
      </trkpt>
      <trkpt lat="42.70154" lon="1.65024">
        <ele>1571.89</ele>
        <time>2021-05-06T12:07:27Z</time>
      </trkpt>
      <trkpt lat="42.70149" lon="1.65036">
        <ele>1570.45</ele>
        <time>2021-05-06T12:07:47Z</time>
      </trkpt>
      <trkpt lat="42.70154" lon="1.65041">
        <ele>1569.97</ele>
        <time>2021-05-06T12:07:57Z</time>
      </trkpt>
      <trkpt lat="42.70151" lon="1.6505">
        <ele>1569.49</ele>
        <time>2021-05-06T12:08:11Z</time>
      </trkpt>
      <trkpt lat="42.70152" lon="1.65059">
        <ele>1568.05</ele>
        <time>2021-05-06T12:08:25Z</time>
      </trkpt>
      <trkpt lat="42.70155" lon="1.65076">
        <ele>1566.12</ele>
        <time>2021-05-06T12:08:39Z</time>
      </trkpt>
      <trkpt lat="42.70152" lon="1.65087">
        <ele>1563.72</ele>
        <time>2021-05-06T12:08:52Z</time>
      </trkpt>
      <trkpt lat="42.70158" lon="1.65093">
        <ele>1560.36</ele>
        <time>2021-05-06T12:09:05Z</time>
      </trkpt>
      <trkpt lat="42.70153" lon="1.65095">
        <ele>1558.43</ele>
        <time>2021-05-06T12:09:18Z</time>
      </trkpt>
      <trkpt lat="42.70152" lon="1.65098">
        <ele>1556.51</ele>
        <time>2021-05-06T12:09:21Z</time>
      </trkpt>
      <trkpt lat="42.70149" lon="1.65102">
        <ele>1554.11</ele>
        <time>2021-05-06T12:09:34Z</time>
      </trkpt>
      <trkpt lat="42.70151" lon="1.65106">
        <ele>1551.71</ele>
        <time>2021-05-06T12:09:46Z</time>
      </trkpt>
      <trkpt lat="42.70151" lon="1.6511">
        <ele>1548.82</ele>
        <time>2021-05-06T12:10:02Z</time>
      </trkpt>
      <trkpt lat="42.7015" lon="1.65118">
        <ele>1546.9</ele>
        <time>2021-05-06T12:10:13Z</time>
      </trkpt>
      <trkpt lat="42.7015" lon="1.65113">
        <ele>1544.5</ele>
        <time>2021-05-06T12:10:29Z</time>
      </trkpt>
      <trkpt lat="42.70142" lon="1.65113">
        <ele>1541.61</ele>
        <time>2021-05-06T12:10:41Z</time>
      </trkpt>
      <trkpt lat="42.70137" lon="1.65111">
        <ele>1539.21</ele>
        <time>2021-05-06T12:10:56Z</time>
      </trkpt>
      <trkpt lat="42.70133" lon="1.65107">
        <ele>1536.32</ele>
        <time>2021-05-06T12:11:08Z</time>
      </trkpt>
      <trkpt lat="42.70122" lon="1.65118">
        <ele>1534.88</ele>
        <time>2021-05-06T12:11:24Z</time>
      </trkpt>
      <trkpt lat="42.70121" lon="1.65124">
        <ele>1532.48</ele>
        <time>2021-05-06T12:11:30Z</time>
      </trkpt>
      <trkpt lat="42.70128" lon="1.65133">
        <ele>1529.11</ele>
        <time>2021-05-06T12:11:43Z</time>
      </trkpt>
      <trkpt lat="42.70128" lon="1.6514">
        <ele>1525.27</ele>
        <time>2021-05-06T12:11:54Z</time>
      </trkpt>
      <trkpt lat="42.7013" lon="1.65148">
        <ele>1523.83</ele>
        <time>2021-05-06T12:12:04Z</time>
      </trkpt>
      <trkpt lat="42.70133" lon="1.65149">
        <ele>1523.35</ele>
        <time>2021-05-06T12:12:09Z</time>
      </trkpt>
      <trkpt lat="42.70128" lon="1.65154">
        <ele>1519.98</ele>
        <time>2021-05-06T12:12:20Z</time>
      </trkpt>
      <trkpt lat="42.70128" lon="1.65169">
        <ele>1516.62</ele>
        <time>2021-05-06T12:12:35Z</time>
      </trkpt>
      <trkpt lat="42.70126" lon="1.65172">
        <ele>1513.73</ele>
        <time>2021-05-06T12:12:46Z</time>
      </trkpt>
      <trkpt lat="42.70123" lon="1.65179">
        <ele>1511.33</ele>
        <time>2021-05-06T12:13:00Z</time>
      </trkpt>
      <trkpt lat="42.70119" lon="1.65183">
        <ele>1507.97</ele>
        <time>2021-05-06T12:13:14Z</time>
      </trkpt>
      <trkpt lat="42.70114" lon="1.65198">
        <ele>1507</ele>
        <time>2021-05-06T12:13:33Z</time>
      </trkpt>
      <trkpt lat="42.70118" lon="1.652">
        <ele>1503.64</ele>
        <time>2021-05-06T12:13:44Z</time>
      </trkpt>
      <trkpt lat="42.70117" lon="1.65199">
        <ele>1500.76</ele>
        <time>2021-05-06T12:13:56Z</time>
      </trkpt>
      <trkpt lat="42.70116" lon="1.65201">
        <ele>1498.83</ele>
        <time>2021-05-06T12:14:15Z</time>
      </trkpt>
      <trkpt lat="42.70113" lon="1.65205">
        <ele>1491.14</ele>
        <time>2021-05-06T12:14:22Z</time>
      </trkpt>
      <trkpt lat="42.70113" lon="1.65206">
        <ele>1497.87</ele>
        <time>2021-05-06T12:14:23Z</time>
      </trkpt>
      <trkpt lat="42.70112" lon="1.65213">
        <ele>1496.91</ele>
        <time>2021-05-06T12:14:38Z</time>
      </trkpt>
      <trkpt lat="42.70109" lon="1.65211">
        <ele>1495.47</ele>
        <time>2021-05-06T12:15:00Z</time>
      </trkpt>
      <trkpt lat="42.70105" lon="1.65216">
        <ele>1493.55</ele>
        <time>2021-05-06T12:15:16Z</time>
      </trkpt>
      <trkpt lat="42.70102" lon="1.65222">
        <ele>1491.14</ele>
        <time>2021-05-06T12:15:36Z</time>
      </trkpt>
      <trkpt lat="42.70106" lon="1.65228">
        <ele>1488.26</ele>
        <time>2021-05-06T12:15:50Z</time>
      </trkpt>
      <trkpt lat="42.70107" lon="1.65231">
        <ele>1487.3</ele>
        <time>2021-05-06T12:16:08Z</time>
      </trkpt>
      <trkpt lat="42.70108" lon="1.65236">
        <ele>1485.37</ele>
        <time>2021-05-06T12:16:23Z</time>
      </trkpt>
      <trkpt lat="42.70108" lon="1.6523">
        <ele>1488.74</ele>
        <time>2021-05-06T12:16:25Z</time>
      </trkpt>
      <trkpt lat="42.70109" lon="1.6523">
        <ele>1488.74</ele>
        <time>2021-05-06T12:16:26Z</time>
      </trkpt>
      <trkpt lat="42.70109" lon="1.65224">
        <ele>1487.3</ele>
        <time>2021-05-06T12:16:28Z</time>
      </trkpt>
      <trkpt lat="42.70108" lon="1.65223">
        <ele>1486.34</ele>
        <time>2021-05-06T12:16:48Z</time>
      </trkpt>
      <trkpt lat="42.70108" lon="1.6523">
        <ele>1485.85</ele>
        <time>2021-05-06T12:16:53Z</time>
      </trkpt>
      <trkpt lat="42.70106" lon="1.65237">
        <ele>1485.85</ele>
        <time>2021-05-06T12:17:11Z</time>
      </trkpt>
      <trkpt lat="42.70102" lon="1.65242">
        <ele>1483.45</ele>
        <time>2021-05-06T12:17:24Z</time>
      </trkpt>
      <trkpt lat="42.70101" lon="1.65238">
        <ele>1482.97</ele>
        <time>2021-05-06T12:17:38Z</time>
      </trkpt>
      <trkpt lat="42.701" lon="1.65241">
        <ele>1482.01</ele>
        <time>2021-05-06T12:17:51Z</time>
      </trkpt>
      <trkpt lat="42.70098" lon="1.65245">
        <ele>1479.13</ele>
        <time>2021-05-06T12:18:01Z</time>
      </trkpt>
      <trkpt lat="42.70098" lon="1.65247">
        <ele>1479.13</ele>
        <time>2021-05-06T12:18:02Z</time>
      </trkpt>
      <trkpt lat="42.70092" lon="1.65257">
        <ele>1475.28</ele>
        <time>2021-05-06T12:18:15Z</time>
      </trkpt>
      <trkpt lat="42.70095" lon="1.65263">
        <ele>1472.4</ele>
        <time>2021-05-06T12:18:29Z</time>
      </trkpt>
      <trkpt lat="42.70094" lon="1.65267">
        <ele>1469.03</ele>
        <time>2021-05-06T12:18:41Z</time>
      </trkpt>
      <trkpt lat="42.70092" lon="1.65276">
        <ele>1467.11</ele>
        <time>2021-05-06T12:18:48Z</time>
      </trkpt>
      <trkpt lat="42.70092" lon="1.65277">
        <ele>1468.55</ele>
        <time>2021-05-06T12:18:50Z</time>
      </trkpt>
      <trkpt lat="42.7009" lon="1.65284">
        <ele>1466.63</ele>
        <time>2021-05-06T12:19:04Z</time>
      </trkpt>
      <trkpt lat="42.70089" lon="1.65288">
        <ele>1464.71</ele>
        <time>2021-05-06T12:19:08Z</time>
      </trkpt>
      <trkpt lat="42.70093" lon="1.65295">
        <ele>1463.26</ele>
        <time>2021-05-06T12:19:20Z</time>
      </trkpt>
      <trkpt lat="42.70098" lon="1.65304">
        <ele>1461.34</ele>
        <time>2021-05-06T12:19:34Z</time>
      </trkpt>
      <trkpt lat="42.70098" lon="1.65304">
        <ele>1460.86</ele>
        <time>2021-05-06T12:19:45Z</time>
      </trkpt>
      <trkpt lat="42.70096" lon="1.65314">
        <ele>1459.9</ele>
        <time>2021-05-06T12:19:59Z</time>
      </trkpt>
      <trkpt lat="42.70096" lon="1.65316">
        <ele>1459.9</ele>
        <time>2021-05-06T12:20:00Z</time>
      </trkpt>
      <trkpt lat="42.70102" lon="1.65327">
        <ele>1457.5</ele>
        <time>2021-05-06T12:20:14Z</time>
      </trkpt>
      <trkpt lat="42.70101" lon="1.65337">
        <ele>1454.13</ele>
        <time>2021-05-06T12:20:30Z</time>
      </trkpt>
      <trkpt lat="42.70097" lon="1.65341">
        <ele>1450.77</ele>
        <time>2021-05-06T12:20:44Z</time>
      </trkpt>
      <trkpt lat="42.70097" lon="1.65348">
        <ele>1447.4</ele>
        <time>2021-05-06T12:20:55Z</time>
      </trkpt>
      <trkpt lat="42.70096" lon="1.65359">
        <ele>1445.48</ele>
        <time>2021-05-06T12:21:07Z</time>
      </trkpt>
      <trkpt lat="42.70099" lon="1.65366">
        <ele>1444.52</ele>
        <time>2021-05-06T12:21:19Z</time>
      </trkpt>
      <trkpt lat="42.70096" lon="1.65378">
        <ele>1442.11</ele>
        <time>2021-05-06T12:21:31Z</time>
      </trkpt>
      <trkpt lat="42.70095" lon="1.65382">
        <ele>1438.75</ele>
        <time>2021-05-06T12:21:49Z</time>
      </trkpt>
      <trkpt lat="42.70095" lon="1.65383">
        <ele>1438.75</ele>
        <time>2021-05-06T12:21:50Z</time>
      </trkpt>
      <trkpt lat="42.70096" lon="1.65387">
        <ele>1437.79</ele>
        <time>2021-05-06T12:21:57Z</time>
      </trkpt>
      <trkpt lat="42.70099" lon="1.65387">
        <ele>1435.87</ele>
        <time>2021-05-06T12:22:12Z</time>
      </trkpt>
      <trkpt lat="42.70102" lon="1.65389">
        <ele>1434.42</ele>
        <time>2021-05-06T12:22:22Z</time>
      </trkpt>
      <trkpt lat="42.70099" lon="1.65399">
        <ele>1433.94</ele>
        <time>2021-05-06T12:22:54Z</time>
      </trkpt>
      <trkpt lat="42.70095" lon="1.65389">
        <ele>1434.91</ele>
        <time>2021-05-06T12:23:04Z</time>
      </trkpt>
      <trkpt lat="42.70094" lon="1.65389">
        <ele>1432.98</ele>
        <time>2021-05-06T12:23:07Z</time>
      </trkpt>
      <trkpt lat="42.70094" lon="1.6539">
        <ele>1434.91</ele>
        <time>2021-05-06T12:23:09Z</time>
      </trkpt>
      <trkpt lat="42.70087" lon="1.65399">
        <ele>1433.46</ele>
        <time>2021-05-06T12:23:42Z</time>
      </trkpt>
      <trkpt lat="42.70091" lon="1.65399">
        <ele>1432.98</ele>
        <time>2021-05-06T12:24:13Z</time>
      </trkpt>
      <trkpt lat="42.70095" lon="1.65401">
        <ele>1432.98</ele>
        <time>2021-05-06T12:24:43Z</time>
      </trkpt>
      <trkpt lat="42.70099" lon="1.65402">
        <ele>1432.5</ele>
        <time>2021-05-06T12:25:27Z</time>
      </trkpt>
      <trkpt lat="42.70106" lon="1.65444">
        <ele>1433.94</ele>
        <time>2021-05-06T12:26:07Z</time>
      </trkpt>
      <trkpt lat="42.7009" lon="1.65423">
        <ele>1433.94</ele>
        <time>2021-05-06T12:26:41Z</time>
      </trkpt>
      <trkpt lat="42.70091" lon="1.65413">
        <ele>1432.5</ele>
        <time>2021-05-06T12:27:08Z</time>
      </trkpt>
      <trkpt lat="42.70091" lon="1.65412">
        <ele>1432.5</ele>
        <time>2021-05-06T12:27:09Z</time>
      </trkpt>
      <trkpt lat="42.7009" lon="1.65401">
        <ele>1431.54</ele>
        <time>2021-05-06T12:27:33Z</time>
      </trkpt>
      <trkpt lat="42.70089" lon="1.65404">
        <ele>1428.18</ele>
        <time>2021-05-06T12:27:46Z</time>
      </trkpt>
      <trkpt lat="42.70085" lon="1.65407">
        <ele>1425.77</ele>
        <time>2021-05-06T12:28:00Z</time>
      </trkpt>
      <trkpt lat="42.70083" lon="1.65408">
        <ele>1424.33</ele>
        <time>2021-05-06T12:28:02Z</time>
      </trkpt>
      <trkpt lat="42.70073" lon="1.65411">
        <ele>1423.37</ele>
        <time>2021-05-06T12:28:24Z</time>
      </trkpt>
      <trkpt lat="42.7007" lon="1.65417">
        <ele>1422.41</ele>
        <time>2021-05-06T12:28:38Z</time>
      </trkpt>
      <trkpt lat="42.7006" lon="1.65436">
        <ele>1419.52</ele>
        <time>2021-05-06T12:28:55Z</time>
      </trkpt>
      <trkpt lat="42.70063" lon="1.65447">
        <ele>1415.68</ele>
        <time>2021-05-06T12:29:09Z</time>
      </trkpt>
      <trkpt lat="42.70065" lon="1.65452">
        <ele>1413.28</ele>
        <time>2021-05-06T12:29:20Z</time>
      </trkpt>
      <trkpt lat="42.70064" lon="1.65456">
        <ele>1411.83</ele>
        <time>2021-05-06T12:29:26Z</time>
      </trkpt>
      <trkpt lat="42.7006" lon="1.6547">
        <ele>1409.91</ele>
        <time>2021-05-06T12:29:39Z</time>
      </trkpt>
      <trkpt lat="42.70062" lon="1.65478">
        <ele>1407.03</ele>
        <time>2021-05-06T12:29:54Z</time>
      </trkpt>
      <trkpt lat="42.70065" lon="1.65479">
        <ele>1406.07</ele>
        <time>2021-05-06T12:29:59Z</time>
      </trkpt>
      <trkpt lat="42.70065" lon="1.65486">
        <ele>1404.62</ele>
        <time>2021-05-06T12:30:15Z</time>
      </trkpt>
      <trkpt lat="42.7006" lon="1.65495">
        <ele>1401.26</ele>
        <time>2021-05-06T12:30:25Z</time>
      </trkpt>
      <trkpt lat="42.70058" lon="1.65503">
        <ele>1399.34</ele>
        <time>2021-05-06T12:30:44Z</time>
      </trkpt>
      <trkpt lat="42.70064" lon="1.65505">
        <ele>1396.93</ele>
        <time>2021-05-06T12:30:56Z</time>
      </trkpt>
      <trkpt lat="42.70064" lon="1.65507">
        <ele>1394.05</ele>
        <time>2021-05-06T12:31:11Z</time>
      </trkpt>
      <trkpt lat="42.70062" lon="1.6552">
        <ele>1390.68</ele>
        <time>2021-05-06T12:31:24Z</time>
      </trkpt>
      <trkpt lat="42.70065" lon="1.65526">
        <ele>1388.28</ele>
        <time>2021-05-06T12:31:37Z</time>
      </trkpt>
      <trkpt lat="42.70062" lon="1.65535">
        <ele>1385.88</ele>
        <time>2021-05-06T12:31:50Z</time>
      </trkpt>
      <trkpt lat="42.70065" lon="1.65539">
        <ele>1382.99</ele>
        <time>2021-05-06T12:32:06Z</time>
      </trkpt>
      <trkpt lat="42.70065" lon="1.6554">
        <ele>1384.44</ele>
        <time>2021-05-06T12:32:08Z</time>
      </trkpt>
      <trkpt lat="42.70068" lon="1.65543">
        <ele>1381.07</ele>
        <time>2021-05-06T12:32:17Z</time>
      </trkpt>
      <trkpt lat="42.70075" lon="1.65546">
        <ele>1379.63</ele>
        <time>2021-05-06T12:32:29Z</time>
      </trkpt>
      <trkpt lat="42.70079" lon="1.65554">
        <ele>1377.23</ele>
        <time>2021-05-06T12:32:44Z</time>
      </trkpt>
      <trkpt lat="42.7008" lon="1.65571">
        <ele>1374.82</ele>
        <time>2021-05-06T12:32:59Z</time>
      </trkpt>
      <trkpt lat="42.70085" lon="1.65576">
        <ele>1372.42</ele>
        <time>2021-05-06T12:33:14Z</time>
      </trkpt>
      <trkpt lat="42.70086" lon="1.65584">
        <ele>1372.42</ele>
        <time>2021-05-06T12:33:27Z</time>
      </trkpt>
      <trkpt lat="42.70083" lon="1.65588">
        <ele>1373.38</ele>
        <time>2021-05-06T12:33:40Z</time>
      </trkpt>
      <trkpt lat="42.70083" lon="1.65589">
        <ele>1373.38</ele>
        <time>2021-05-06T12:33:41Z</time>
      </trkpt>
      <trkpt lat="42.70085" lon="1.65598">
        <ele>1371.94</ele>
        <time>2021-05-06T12:33:51Z</time>
      </trkpt>
      <trkpt lat="42.70085" lon="1.65603">
        <ele>1370.5</ele>
        <time>2021-05-06T12:33:56Z</time>
      </trkpt>
      <trkpt lat="42.70087" lon="1.65612">
        <ele>1367.61</ele>
        <time>2021-05-06T12:34:09Z</time>
      </trkpt>
      <trkpt lat="42.70095" lon="1.65614">
        <ele>1364.25</ele>
        <time>2021-05-06T12:34:25Z</time>
      </trkpt>
      <trkpt lat="42.70101" lon="1.65617">
        <ele>1362.81</ele>
        <time>2021-05-06T12:34:37Z</time>
      </trkpt>
      <trkpt lat="42.70103" lon="1.65628">
        <ele>1360.4</ele>
        <time>2021-05-06T12:34:51Z</time>
      </trkpt>
      <trkpt lat="42.70101" lon="1.65636">
        <ele>1357.52</ele>
        <time>2021-05-06T12:35:01Z</time>
      </trkpt>
      <trkpt lat="42.70107" lon="1.65641">
        <ele>1356.08</ele>
        <time>2021-05-06T12:35:14Z</time>
      </trkpt>
      <trkpt lat="42.70112" lon="1.65653">
        <ele>1353.67</ele>
        <time>2021-05-06T12:35:27Z</time>
      </trkpt>
      <trkpt lat="42.70116" lon="1.65661">
        <ele>1352.23</ele>
        <time>2021-05-06T12:35:42Z</time>
      </trkpt>
      <trkpt lat="42.7012" lon="1.65669">
        <ele>1349.35</ele>
        <time>2021-05-06T12:35:57Z</time>
      </trkpt>
      <trkpt lat="42.70117" lon="1.65678">
        <ele>1346.94</ele>
        <time>2021-05-06T12:36:11Z</time>
      </trkpt>
      <trkpt lat="42.70114" lon="1.65694">
        <ele>1345.02</ele>
        <time>2021-05-06T12:36:25Z</time>
      </trkpt>
      <trkpt lat="42.70116" lon="1.65703">
        <ele>1341.66</ele>
        <time>2021-05-06T12:36:35Z</time>
      </trkpt>
      <trkpt lat="42.70103" lon="1.6573">
        <ele>1339.73</ele>
        <time>2021-05-06T12:36:48Z</time>
      </trkpt>
      <trkpt lat="42.70104" lon="1.65742">
        <ele>1337.81</ele>
        <time>2021-05-06T12:36:58Z</time>
      </trkpt>
      <trkpt lat="42.70106" lon="1.65748">
        <ele>1335.89</ele>
        <time>2021-05-06T12:37:13Z</time>
      </trkpt>
      <trkpt lat="42.70111" lon="1.65755">
        <ele>1334.45</ele>
        <time>2021-05-06T12:37:27Z</time>
      </trkpt>
      <trkpt lat="42.70115" lon="1.65755">
        <ele>1333.97</ele>
        <time>2021-05-06T12:37:30Z</time>
      </trkpt>
      <trkpt lat="42.70122" lon="1.65769">
        <ele>1334.45</ele>
        <time>2021-05-06T12:37:44Z</time>
      </trkpt>
      <trkpt lat="42.70123" lon="1.65769">
        <ele>1334.93</ele>
        <time>2021-05-06T12:37:52Z</time>
      </trkpt>
      <trkpt lat="42.70125" lon="1.65769">
        <ele>1331.56</ele>
        <time>2021-05-06T12:37:54Z</time>
      </trkpt>
      <trkpt lat="42.7013" lon="1.65767">
        <ele>1333.97</ele>
        <time>2021-05-06T12:38:02Z</time>
      </trkpt>
      <trkpt lat="42.70134" lon="1.65768">
        <ele>1333.49</ele>
        <time>2021-05-06T12:38:28Z</time>
      </trkpt>
      <trkpt lat="42.70146" lon="1.65771">
        <ele>1332.04</ele>
        <time>2021-05-06T12:38:41Z</time>
      </trkpt>
      <trkpt lat="42.70147" lon="1.65776">
        <ele>1330.6</ele>
        <time>2021-05-06T12:38:46Z</time>
      </trkpt>
      <trkpt lat="42.70146" lon="1.65782">
        <ele>1330.12</ele>
        <time>2021-05-06T12:38:49Z</time>
      </trkpt>
      <trkpt lat="42.70141" lon="1.65798">
        <ele>1328.2</ele>
        <time>2021-05-06T12:39:00Z</time>
      </trkpt>
      <trkpt lat="42.7014" lon="1.65799">
        <ele>1328.2</ele>
        <time>2021-05-06T12:39:01Z</time>
      </trkpt>
      <trkpt lat="42.70142" lon="1.65806">
        <ele>1325.8</ele>
        <time>2021-05-06T12:39:14Z</time>
      </trkpt>
      <trkpt lat="42.70149" lon="1.65815">
        <ele>1322.43</ele>
        <time>2021-05-06T12:39:27Z</time>
      </trkpt>
      <trkpt lat="42.70148" lon="1.65824">
        <ele>1320.99</ele>
        <time>2021-05-06T12:39:41Z</time>
      </trkpt>
      <trkpt lat="42.70147" lon="1.6582">
        <ele>1319.55</ele>
        <time>2021-05-06T12:40:00Z</time>
      </trkpt>
      <trkpt lat="42.70151" lon="1.65832">
        <ele>1317.14</ele>
        <time>2021-05-06T12:40:13Z</time>
      </trkpt>
      <trkpt lat="42.7015" lon="1.65841">
        <ele>1314.74</ele>
        <time>2021-05-06T12:40:24Z</time>
      </trkpt>
      <trkpt lat="42.70151" lon="1.6585">
        <ele>1311.86</ele>
        <time>2021-05-06T12:40:36Z</time>
      </trkpt>
      <trkpt lat="42.70146" lon="1.65866">
        <ele>1310.41</ele>
        <time>2021-05-06T12:40:48Z</time>
      </trkpt>
      <trkpt lat="42.70147" lon="1.65869">
        <ele>1308.01</ele>
        <time>2021-05-06T12:41:01Z</time>
      </trkpt>
      <trkpt lat="42.70146" lon="1.65867">
        <ele>1306.57</ele>
        <time>2021-05-06T12:41:06Z</time>
      </trkpt>
      <trkpt lat="42.70145" lon="1.65866">
        <ele>1304.17</ele>
        <time>2021-05-06T12:41:19Z</time>
      </trkpt>
      <trkpt lat="42.70145" lon="1.6587">
        <ele>1303.2</ele>
        <time>2021-05-06T12:41:21Z</time>
      </trkpt>
      <trkpt lat="42.70153" lon="1.65875">
        <ele>1300.32</ele>
        <time>2021-05-06T12:41:32Z</time>
      </trkpt>
      <trkpt lat="42.70154" lon="1.65876">
        <ele>1299.84</ele>
        <time>2021-05-06T12:41:35Z</time>
      </trkpt>
      <trkpt lat="42.70152" lon="1.6588">
        <ele>1299.36</ele>
        <time>2021-05-06T12:41:38Z</time>
      </trkpt>
      <trkpt lat="42.7015" lon="1.65887">
        <ele>1296.96</ele>
        <time>2021-05-06T12:41:45Z</time>
      </trkpt>
      <trkpt lat="42.70152" lon="1.65899">
        <ele>1294.55</ele>
        <time>2021-05-06T12:41:57Z</time>
      </trkpt>
      <trkpt lat="42.70148" lon="1.65911">
        <ele>1293.11</ele>
        <time>2021-05-06T12:42:06Z</time>
      </trkpt>
      <trkpt lat="42.70139" lon="1.65932">
        <ele>1290.23</ele>
        <time>2021-05-06T12:42:17Z</time>
      </trkpt>
      <trkpt lat="42.70144" lon="1.6594">
        <ele>1287.34</ele>
        <time>2021-05-06T12:42:27Z</time>
      </trkpt>
      <trkpt lat="42.70146" lon="1.65954">
        <ele>1285.42</ele>
        <time>2021-05-06T12:42:37Z</time>
      </trkpt>
      <trkpt lat="42.70156" lon="1.65961">
        <ele>1282.06</ele>
        <time>2021-05-06T12:42:51Z</time>
      </trkpt>
      <trkpt lat="42.70155" lon="1.65963">
        <ele>1281.09</ele>
        <time>2021-05-06T12:42:53Z</time>
      </trkpt>
      <trkpt lat="42.70158" lon="1.65972">
        <ele>1278.21</ele>
        <time>2021-05-06T12:43:07Z</time>
      </trkpt>
      <trkpt lat="42.70154" lon="1.65972">
        <ele>1276.29</ele>
        <time>2021-05-06T12:43:19Z</time>
      </trkpt>
      <trkpt lat="42.7015" lon="1.65967">
        <ele>1273.88</ele>
        <time>2021-05-06T12:43:31Z</time>
      </trkpt>
      <trkpt lat="42.70145" lon="1.65965">
        <ele>1271.48</ele>
        <time>2021-05-06T12:43:43Z</time>
      </trkpt>
      <trkpt lat="42.70142" lon="1.65957">
        <ele>1270.04</ele>
        <time>2021-05-06T12:43:59Z</time>
      </trkpt>
      <trkpt lat="42.70126" lon="1.65968">
        <ele>1266.67</ele>
        <time>2021-05-06T12:44:15Z</time>
      </trkpt>
      <trkpt lat="42.70119" lon="1.6597">
        <ele>1265.71</ele>
        <time>2021-05-06T12:44:34Z</time>
      </trkpt>
      <trkpt lat="42.70119" lon="1.65973">
        <ele>1265.71</ele>
        <time>2021-05-06T12:44:57Z</time>
      </trkpt>
      <trkpt lat="42.70128" lon="1.65964">
        <ele>1264.75</ele>
        <time>2021-05-06T12:45:30Z</time>
      </trkpt>
      <trkpt lat="42.70127" lon="1.65963">
        <ele>1264.75</ele>
        <time>2021-05-06T12:45:54Z</time>
      </trkpt>
      <trkpt lat="42.7013" lon="1.65972">
        <ele>1264.75</ele>
        <time>2021-05-06T12:46:28Z</time>
      </trkpt>
      <trkpt lat="42.70139" lon="1.65972">
        <ele>1265.23</ele>
        <time>2021-05-06T12:46:57Z</time>
      </trkpt>
      <trkpt lat="42.70133" lon="1.65973">
        <ele>1265.23</ele>
        <time>2021-05-06T12:47:31Z</time>
      </trkpt>
      <trkpt lat="42.70125" lon="1.65966">
        <ele>1265.23</ele>
        <time>2021-05-06T12:47:59Z</time>
      </trkpt>
      <trkpt lat="42.70122" lon="1.65967">
        <ele>1265.23</ele>
        <time>2021-05-06T12:48:29Z</time>
      </trkpt>
      <trkpt lat="42.7012" lon="1.6597">
        <ele>1264.75</ele>
        <time>2021-05-06T12:48:51Z</time>
      </trkpt>
      <trkpt lat="42.70124" lon="1.65971">
        <ele>1264.75</ele>
        <time>2021-05-06T12:49:12Z</time>
      </trkpt>
      <trkpt lat="42.70121" lon="1.65979">
        <ele>1265.23</ele>
        <time>2021-05-06T12:49:32Z</time>
      </trkpt>
      <trkpt lat="42.70116" lon="1.6598">
        <ele>1263.79</ele>
        <time>2021-05-06T12:49:48Z</time>
      </trkpt>
      <trkpt lat="42.70114" lon="1.65977">
        <ele>1264.27</ele>
        <time>2021-05-06T12:50:20Z</time>
      </trkpt>
      <trkpt lat="42.7011" lon="1.65979">
        <ele>1264.27</ele>
        <time>2021-05-06T12:50:48Z</time>
      </trkpt>
      <trkpt lat="42.70106" lon="1.65981">
        <ele>1262.83</ele>
        <time>2021-05-06T12:50:56Z</time>
      </trkpt>
      <trkpt lat="42.70105" lon="1.65981">
        <ele>1264.27</ele>
        <time>2021-05-06T12:51:01Z</time>
      </trkpt>
      <trkpt lat="42.70112" lon="1.65969">
        <ele>1262.83</ele>
        <time>2021-05-06T12:51:35Z</time>
      </trkpt>
      <trkpt lat="42.70114" lon="1.65984">
        <ele>1264.27</ele>
        <time>2021-05-06T12:52:27Z</time>
      </trkpt>
      <trkpt lat="42.70114" lon="1.65982">
        <ele>1264.27</ele>
        <time>2021-05-06T12:52:59Z</time>
      </trkpt>
      <trkpt lat="42.70125" lon="1.65977">
        <ele>1264.27</ele>
        <time>2021-05-06T12:53:29Z</time>
      </trkpt>
      <trkpt lat="42.70129" lon="1.65983">
        <ele>1264.27</ele>
        <time>2021-05-06T12:54:09Z</time>
      </trkpt>
      <trkpt lat="42.70131" lon="1.65975">
        <ele>1264.27</ele>
        <time>2021-05-06T12:54:44Z</time>
      </trkpt>
      <trkpt lat="42.70127" lon="1.6597">
        <ele>1264.75</ele>
        <time>2021-05-06T12:55:05Z</time>
      </trkpt>
      <trkpt lat="42.70119" lon="1.65967">
        <ele>1265.23</ele>
        <time>2021-05-06T12:55:30Z</time>
      </trkpt>
      <trkpt lat="42.7012" lon="1.6597">
        <ele>1265.71</ele>
        <time>2021-05-06T12:55:37Z</time>
      </trkpt>
      <trkpt lat="42.70126" lon="1.65977">
        <ele>1268.6</ele>
        <time>2021-05-06T12:55:53Z</time>
      </trkpt>
      <trkpt lat="42.70131" lon="1.65981">
        <ele>1271.48</ele>
        <time>2021-05-06T12:56:04Z</time>
      </trkpt>
      <trkpt lat="42.70134" lon="1.65989">
        <ele>1273.88</ele>
        <time>2021-05-06T12:56:16Z</time>
      </trkpt>
      <trkpt lat="42.70135" lon="1.66">
        <ele>1275.81</ele>
        <time>2021-05-06T12:56:30Z</time>
      </trkpt>
      <trkpt lat="42.70144" lon="1.65995">
        <ele>1276.77</ele>
        <time>2021-05-06T12:56:49Z</time>
      </trkpt>
      <trkpt lat="42.70145" lon="1.65994">
        <ele>1273.88</ele>
        <time>2021-05-06T12:56:51Z</time>
      </trkpt>
      <trkpt lat="42.70146" lon="1.65996">
        <ele>1276.29</ele>
        <time>2021-05-06T12:57:15Z</time>
      </trkpt>
      <trkpt lat="42.70148" lon="1.65993">
        <ele>1274.85</ele>
        <time>2021-05-06T12:57:23Z</time>
      </trkpt>
      <trkpt lat="42.70153" lon="1.65995">
        <ele>1276.29</ele>
        <time>2021-05-06T12:57:36Z</time>
      </trkpt>
      <trkpt lat="42.70148" lon="1.66006">
        <ele>1276.77</ele>
        <time>2021-05-06T12:57:46Z</time>
      </trkpt>
      <trkpt lat="42.70148" lon="1.6601">
        <ele>1275.33</ele>
        <time>2021-05-06T12:57:51Z</time>
      </trkpt>
      <trkpt lat="42.70151" lon="1.66009">
        <ele>1275.33</ele>
        <time>2021-05-06T12:57:53Z</time>
      </trkpt>
      <trkpt lat="42.70162" lon="1.66004">
        <ele>1273.88</ele>
        <time>2021-05-06T12:58:08Z</time>
      </trkpt>
      <trkpt lat="42.70162" lon="1.66009">
        <ele>1270.04</ele>
        <time>2021-05-06T12:58:19Z</time>
      </trkpt>
      <trkpt lat="42.70166" lon="1.66016">
        <ele>1269.56</ele>
        <time>2021-05-06T12:58:27Z</time>
      </trkpt>
      <trkpt lat="42.70166" lon="1.66024">
        <ele>1269.08</ele>
        <time>2021-05-06T12:58:39Z</time>
      </trkpt>
      <trkpt lat="42.70168" lon="1.66028">
        <ele>1266.67</ele>
        <time>2021-05-06T12:58:45Z</time>
      </trkpt>
      <trkpt lat="42.70163" lon="1.66041">
        <ele>1265.23</ele>
        <time>2021-05-06T12:58:59Z</time>
      </trkpt>
      <trkpt lat="42.70169" lon="1.66048">
        <ele>1262.83</ele>
        <time>2021-05-06T12:59:14Z</time>
      </trkpt>
      <trkpt lat="42.70163" lon="1.66063">
        <ele>1259.94</ele>
        <time>2021-05-06T12:59:25Z</time>
      </trkpt>
      <trkpt lat="42.70169" lon="1.66063">
        <ele>1256.58</ele>
        <time>2021-05-06T12:59:36Z</time>
      </trkpt>
      <trkpt lat="42.70173" lon="1.66073">
        <ele>1253.7</ele>
        <time>2021-05-06T12:59:48Z</time>
      </trkpt>
      <trkpt lat="42.70172" lon="1.66079">
        <ele>1251.77</ele>
        <time>2021-05-06T12:59:55Z</time>
      </trkpt>
      <trkpt lat="42.70175" lon="1.66086">
        <ele>1250.33</ele>
        <time>2021-05-06T13:00:03Z</time>
      </trkpt>
      <trkpt lat="42.70177" lon="1.66093">
        <ele>1249.37</ele>
        <time>2021-05-06T13:00:16Z</time>
      </trkpt>
      <trkpt lat="42.70178" lon="1.66091">
        <ele>1246.01</ele>
        <time>2021-05-06T13:00:27Z</time>
      </trkpt>
      <trkpt lat="42.70177" lon="1.66091">
        <ele>1245.04</ele>
        <time>2021-05-06T13:00:29Z</time>
      </trkpt>
      <trkpt lat="42.70171" lon="1.66096">
        <ele>1242.16</ele>
        <time>2021-05-06T13:00:37Z</time>
      </trkpt>
      <trkpt lat="42.70175" lon="1.66106">
        <ele>1240.24</ele>
        <time>2021-05-06T13:00:46Z</time>
      </trkpt>
      <trkpt lat="42.70176" lon="1.6611">
        <ele>1240.24</ele>
        <time>2021-05-06T13:00:49Z</time>
      </trkpt>
      <trkpt lat="42.70183" lon="1.66119">
        <ele>1238.8</ele>
        <time>2021-05-06T13:01:03Z</time>
      </trkpt>
      <trkpt lat="42.70192" lon="1.66117">
        <ele>1237.83</ele>
        <time>2021-05-06T13:01:22Z</time>
      </trkpt>
      <trkpt lat="42.702" lon="1.66122">
        <ele>1234.47</ele>
        <time>2021-05-06T13:01:37Z</time>
      </trkpt>
      <trkpt lat="42.702" lon="1.66127">
        <ele>1233.51</ele>
        <time>2021-05-06T13:01:41Z</time>
      </trkpt>
      <trkpt lat="42.70207" lon="1.66132">
        <ele>1231.11</ele>
        <time>2021-05-06T13:01:53Z</time>
      </trkpt>
      <trkpt lat="42.70211" lon="1.66138">
        <ele>1229.18</ele>
        <time>2021-05-06T13:02:01Z</time>
      </trkpt>
      <trkpt lat="42.70217" lon="1.66143">
        <ele>1227.26</ele>
        <time>2021-05-06T13:02:12Z</time>
      </trkpt>
      <trkpt lat="42.70219" lon="1.66146">
        <ele>1227.26</ele>
        <time>2021-05-06T13:02:14Z</time>
      </trkpt>
      <trkpt lat="42.70223" lon="1.66152">
        <ele>1225.34</ele>
        <time>2021-05-06T13:02:22Z</time>
      </trkpt>
      <trkpt lat="42.70232" lon="1.66157">
        <ele>1224.38</ele>
        <time>2021-05-06T13:02:31Z</time>
      </trkpt>
      <trkpt lat="42.70244" lon="1.6617">
        <ele>1222.45</ele>
        <time>2021-05-06T13:02:45Z</time>
      </trkpt>
      <trkpt lat="42.70249" lon="1.66183">
        <ele>1219.57</ele>
        <time>2021-05-06T13:02:55Z</time>
      </trkpt>
      <trkpt lat="42.7026" lon="1.66191">
        <ele>1218.61</ele>
        <time>2021-05-06T13:03:08Z</time>
      </trkpt>
      <trkpt lat="42.70282" lon="1.66193">
        <ele>1216.21</ele>
        <time>2021-05-06T13:03:24Z</time>
      </trkpt>
      <trkpt lat="42.70291" lon="1.66188">
        <ele>1216.21</ele>
        <time>2021-05-06T13:03:28Z</time>
      </trkpt>
      <trkpt lat="42.70309" lon="1.66199">
        <ele>1215.24</ele>
        <time>2021-05-06T13:03:43Z</time>
      </trkpt>
      <trkpt lat="42.70319" lon="1.66208">
        <ele>1213.32</ele>
        <time>2021-05-06T13:03:56Z</time>
      </trkpt>
      <trkpt lat="42.70335" lon="1.66213">
        <ele>1213.32</ele>
        <time>2021-05-06T13:04:10Z</time>
      </trkpt>
      <trkpt lat="42.7035" lon="1.6621">
        <ele>1212.84</ele>
        <time>2021-05-06T13:04:24Z</time>
      </trkpt>
      <trkpt lat="42.70365" lon="1.66207">
        <ele>1209.96</ele>
        <time>2021-05-06T13:04:37Z</time>
      </trkpt>
      <trkpt lat="42.70379" lon="1.66205">
        <ele>1208.51</ele>
        <time>2021-05-06T13:04:50Z</time>
      </trkpt>
      <trkpt lat="42.70388" lon="1.66201">
        <ele>1205.15</ele>
        <time>2021-05-06T13:05:00Z</time>
      </trkpt>
      <trkpt lat="42.70397" lon="1.66199">
        <ele>1203.23</ele>
        <time>2021-05-06T13:05:15Z</time>
      </trkpt>
      <trkpt lat="42.70404" lon="1.66198">
        <ele>1200.34</ele>
        <time>2021-05-06T13:05:28Z</time>
      </trkpt>
      <trkpt lat="42.70416" lon="1.66196">
        <ele>1197.94</ele>
        <time>2021-05-06T13:05:44Z</time>
      </trkpt>
      <trkpt lat="42.70425" lon="1.66191">
        <ele>1196.98</ele>
        <time>2021-05-06T13:05:52Z</time>
      </trkpt>
      <trkpt lat="42.70436" lon="1.66189">
        <ele>1194.09</ele>
        <time>2021-05-06T13:06:06Z</time>
      </trkpt>
      <trkpt lat="42.7044" lon="1.66196">
        <ele>1191.69</ele>
        <time>2021-05-06T13:06:19Z</time>
      </trkpt>
      <trkpt lat="42.7044" lon="1.66201">
        <ele>1189.77</ele>
        <time>2021-05-06T13:06:26Z</time>
      </trkpt>
      <trkpt lat="42.70445" lon="1.66203">
        <ele>1187.85</ele>
        <time>2021-05-06T13:06:40Z</time>
      </trkpt>
      <trkpt lat="42.70452" lon="1.66207">
        <ele>1184.96</ele>
        <time>2021-05-06T13:06:54Z</time>
      </trkpt>
      <trkpt lat="42.7046" lon="1.66216">
        <ele>1182.08</ele>
        <time>2021-05-06T13:07:06Z</time>
      </trkpt>
      <trkpt lat="42.7046" lon="1.66222">
        <ele>1179.67</ele>
        <time>2021-05-06T13:07:17Z</time>
      </trkpt>
      <trkpt lat="42.70462" lon="1.6623">
        <ele>1176.79</ele>
        <time>2021-05-06T13:07:32Z</time>
      </trkpt>
      <trkpt lat="42.70459" lon="1.66238">
        <ele>1174.39</ele>
        <time>2021-05-06T13:07:44Z</time>
      </trkpt>
      <trkpt lat="42.70462" lon="1.66246">
        <ele>1171.98</ele>
        <time>2021-05-06T13:07:57Z</time>
      </trkpt>
      <trkpt lat="42.70467" lon="1.66246">
        <ele>1169.1</ele>
        <time>2021-05-06T13:08:11Z</time>
      </trkpt>
      <trkpt lat="42.70474" lon="1.66248">
        <ele>1166.7</ele>
        <time>2021-05-06T13:08:24Z</time>
      </trkpt>
      <trkpt lat="42.70473" lon="1.66257">
        <ele>1164.29</ele>
        <time>2021-05-06T13:08:37Z</time>
      </trkpt>
      <trkpt lat="42.70474" lon="1.66265">
        <ele>1161.41</ele>
        <time>2021-05-06T13:08:47Z</time>
      </trkpt>
      <trkpt lat="42.70469" lon="1.66272">
        <ele>1159.97</ele>
        <time>2021-05-06T13:08:59Z</time>
      </trkpt>
      <trkpt lat="42.70472" lon="1.66283">
        <ele>1160.45</ele>
        <time>2021-05-06T13:09:14Z</time>
      </trkpt>
      <trkpt lat="42.70472" lon="1.66283">
        <ele>1160.93</ele>
        <time>2021-05-06T13:09:20Z</time>
      </trkpt>
      <trkpt lat="42.70473" lon="1.66282">
        <ele>1159.49</ele>
        <time>2021-05-06T13:09:33Z</time>
      </trkpt>
      <trkpt lat="42.70468" lon="1.66281">
        <ele>1159.97</ele>
        <time>2021-05-06T13:10:05Z</time>
      </trkpt>
      <trkpt lat="42.70465" lon="1.66284">
        <ele>1159.01</ele>
        <time>2021-05-06T13:10:15Z</time>
      </trkpt>
      <trkpt lat="42.7047" lon="1.66297">
        <ele>1155.64</ele>
        <time>2021-05-06T13:10:28Z</time>
      </trkpt>
      <trkpt lat="42.70467" lon="1.66302">
        <ele>1154.68</ele>
        <time>2021-05-06T13:10:40Z</time>
      </trkpt>
      <trkpt lat="42.70465" lon="1.66307">
        <ele>1152.76</ele>
        <time>2021-05-06T13:10:51Z</time>
      </trkpt>
      <trkpt lat="42.70464" lon="1.66314">
        <ele>1151.32</ele>
        <time>2021-05-06T13:11:01Z</time>
      </trkpt>
      <trkpt lat="42.70461" lon="1.66317">
        <ele>1150.35</ele>
        <time>2021-05-06T13:11:06Z</time>
      </trkpt>
      <trkpt lat="42.70458" lon="1.6632">
        <ele>1149.39</ele>
        <time>2021-05-06T13:11:11Z</time>
      </trkpt>
      <trkpt lat="42.70457" lon="1.66323">
        <ele>1148.91</ele>
        <time>2021-05-06T13:11:13Z</time>
      </trkpt>
      <trkpt lat="42.70449" lon="1.66327">
        <ele>1146.99</ele>
        <time>2021-05-06T13:11:25Z</time>
      </trkpt>
      <trkpt lat="42.70448" lon="1.66332">
        <ele>1144.59</ele>
        <time>2021-05-06T13:11:38Z</time>
      </trkpt>
      <trkpt lat="42.70455" lon="1.66339">
        <ele>1142.18</ele>
        <time>2021-05-06T13:11:50Z</time>
      </trkpt>
      <trkpt lat="42.70456" lon="1.66342">
        <ele>1139.78</ele>
        <time>2021-05-06T13:12:01Z</time>
      </trkpt>
      <trkpt lat="42.70459" lon="1.66346">
        <ele>1136.42</ele>
        <time>2021-05-06T13:12:16Z</time>
      </trkpt>
      <trkpt lat="42.70464" lon="1.66348">
        <ele>1133.53</ele>
        <time>2021-05-06T13:12:32Z</time>
      </trkpt>
      <trkpt lat="42.70468" lon="1.66346">
        <ele>1131.13</ele>
        <time>2021-05-06T13:12:47Z</time>
      </trkpt>
      <trkpt lat="42.7047" lon="1.66354">
        <ele>1128.73</ele>
        <time>2021-05-06T13:12:58Z</time>
      </trkpt>
      <trkpt lat="42.70474" lon="1.6636">
        <ele>1125.84</ele>
        <time>2021-05-06T13:13:14Z</time>
      </trkpt>
      <trkpt lat="42.70485" lon="1.66359">
        <ele>1122.48</ele>
        <time>2021-05-06T13:13:32Z</time>
      </trkpt>
      <trkpt lat="42.70493" lon="1.6636">
        <ele>1120.55</ele>
        <time>2021-05-06T13:13:46Z</time>
      </trkpt>
      <trkpt lat="42.70509" lon="1.66353">
        <ele>1118.15</ele>
        <time>2021-05-06T13:14:00Z</time>
      </trkpt>
      <trkpt lat="42.70513" lon="1.66355">
        <ele>1115.75</ele>
        <time>2021-05-06T13:14:11Z</time>
      </trkpt>
      <trkpt lat="42.70519" lon="1.6637">
        <ele>1114.79</ele>
        <time>2021-05-06T13:14:22Z</time>
      </trkpt>
      <trkpt lat="42.70528" lon="1.66376">
        <ele>1111.9</ele>
        <time>2021-05-06T13:14:38Z</time>
      </trkpt>
      <trkpt lat="42.70528" lon="1.66378">
        <ele>1110.94</ele>
        <time>2021-05-06T13:14:44Z</time>
      </trkpt>
      <trkpt lat="42.70537" lon="1.66387">
        <ele>1108.54</ele>
        <time>2021-05-06T13:14:59Z</time>
      </trkpt>
      <trkpt lat="42.70539" lon="1.6639">
        <ele>1107.58</ele>
        <time>2021-05-06T13:15:06Z</time>
      </trkpt>
      <trkpt lat="42.70542" lon="1.66399">
        <ele>1106.61</ele>
        <time>2021-05-06T13:15:18Z</time>
      </trkpt>
      <trkpt lat="42.70546" lon="1.66409">
        <ele>1104.21</ele>
        <time>2021-05-06T13:15:31Z</time>
      </trkpt>
      <trkpt lat="42.70548" lon="1.66414">
        <ele>1102.77</ele>
        <time>2021-05-06T13:15:41Z</time>
      </trkpt>
      <trkpt lat="42.70547" lon="1.6642">
        <ele>1103.73</ele>
        <time>2021-05-06T13:15:48Z</time>
      </trkpt>
      <trkpt lat="42.70545" lon="1.66432">
        <ele>1103.73</ele>
        <time>2021-05-06T13:16:00Z</time>
      </trkpt>
      <trkpt lat="42.70542" lon="1.66453">
        <ele>1103.73</ele>
        <time>2021-05-06T13:16:14Z</time>
      </trkpt>
      <trkpt lat="42.70541" lon="1.66463">
        <ele>1106.13</ele>
        <time>2021-05-06T13:16:27Z</time>
      </trkpt>
      <trkpt lat="42.70535" lon="1.66463">
        <ele>1107.1</ele>
        <time>2021-05-06T13:16:36Z</time>
      </trkpt>
      <trkpt lat="42.70523" lon="1.66474">
        <ele>1105.65</ele>
        <time>2021-05-06T13:16:50Z</time>
      </trkpt>
      <trkpt lat="42.70512" lon="1.6649">
        <ele>1105.17</ele>
        <time>2021-05-06T13:17:03Z</time>
      </trkpt>
      <trkpt lat="42.7051" lon="1.66494">
        <ele>1105.17</ele>
        <time>2021-05-06T13:17:06Z</time>
      </trkpt>
      <trkpt lat="42.70507" lon="1.66513">
        <ele>1105.17</ele>
        <time>2021-05-06T13:17:19Z</time>
      </trkpt>
      <trkpt lat="42.70499" lon="1.66527">
        <ele>1104.69</ele>
        <time>2021-05-06T13:17:29Z</time>
      </trkpt>
      <trkpt lat="42.70494" lon="1.66554">
        <ele>1103.73</ele>
        <time>2021-05-06T13:17:46Z</time>
      </trkpt>
      <trkpt lat="42.70498" lon="1.6658">
        <ele>1103.73</ele>
        <time>2021-05-06T13:18:01Z</time>
      </trkpt>
      <trkpt lat="42.70497" lon="1.66608">
        <ele>1102.29</ele>
        <time>2021-05-06T13:18:18Z</time>
      </trkpt>
      <trkpt lat="42.70498" lon="1.66635">
        <ele>1101.33</ele>
        <time>2021-05-06T13:18:33Z</time>
      </trkpt>
      <trkpt lat="42.70499" lon="1.66641">
        <ele>1100.85</ele>
        <time>2021-05-06T13:18:36Z</time>
      </trkpt>
      <trkpt lat="42.70502" lon="1.66651">
        <ele>1100.85</ele>
        <time>2021-05-06T13:18:44Z</time>
      </trkpt>
      <trkpt lat="42.70503" lon="1.66654">
        <ele>1100.85</ele>
        <time>2021-05-06T13:18:47Z</time>
      </trkpt>
      <trkpt lat="42.70511" lon="1.66665">
        <ele>1101.81</ele>
        <time>2021-05-06T13:19:00Z</time>
      </trkpt>
      <trkpt lat="42.70512" lon="1.66665">
        <ele>1101.81</ele>
        <time>2021-05-06T13:19:01Z</time>
      </trkpt>
      <trkpt lat="42.70527" lon="1.66654">
        <ele>1101.81</ele>
        <time>2021-05-06T13:19:15Z</time>
      </trkpt>
      <trkpt lat="42.70538" lon="1.66642">
        <ele>1100.37</ele>
        <time>2021-05-06T13:19:27Z</time>
      </trkpt>
      <trkpt lat="42.70552" lon="1.66622">
        <ele>1101.33</ele>
        <time>2021-05-06T13:19:43Z</time>
      </trkpt>
      <trkpt lat="42.70564" lon="1.66602">
        <ele>1101.33</ele>
        <time>2021-05-06T13:19:55Z</time>
      </trkpt>
      <trkpt lat="42.70573" lon="1.66588">
        <ele>1101.81</ele>
        <time>2021-05-06T13:20:09Z</time>
      </trkpt>
      <trkpt lat="42.70577" lon="1.66577">
        <ele>1100.85</ele>
        <time>2021-05-06T13:20:16Z</time>
      </trkpt>
      <trkpt lat="42.7059" lon="1.66552">
        <ele>1100.85</ele>
        <time>2021-05-06T13:20:32Z</time>
      </trkpt>
      <trkpt lat="42.70593" lon="1.66551">
        <ele>1102.29</ele>
        <time>2021-05-06T13:20:36Z</time>
      </trkpt>
      <trkpt lat="42.70595" lon="1.6655">
        <ele>1102.29</ele>
        <time>2021-05-06T13:20:38Z</time>
      </trkpt>
      <trkpt lat="42.70609" lon="1.66536">
        <ele>1101.81</ele>
        <time>2021-05-06T13:20:51Z</time>
      </trkpt>
      <trkpt lat="42.7062" lon="1.66518">
        <ele>1101.81</ele>
        <time>2021-05-06T13:21:05Z</time>
      </trkpt>
      <trkpt lat="42.70629" lon="1.66508">
        <ele>1103.25</ele>
        <time>2021-05-06T13:21:17Z</time>
      </trkpt>
      <trkpt lat="42.70636" lon="1.66502">
        <ele>1103.73</ele>
        <time>2021-05-06T13:21:25Z</time>
      </trkpt>
      <trkpt lat="42.70639" lon="1.665">
        <ele>1103.73</ele>
        <time>2021-05-06T13:21:30Z</time>
      </trkpt>
      <trkpt lat="42.70656" lon="1.6649">
        <ele>1103.73</ele>
        <time>2021-05-06T13:21:47Z</time>
      </trkpt>
      <trkpt lat="42.70663" lon="1.6649">
        <ele>1105.65</ele>
        <time>2021-05-06T13:21:56Z</time>
      </trkpt>
      <trkpt lat="42.70664" lon="1.6649">
        <ele>1105.65</ele>
        <time>2021-05-06T13:21:57Z</time>
      </trkpt>
      <trkpt lat="42.70666" lon="1.66491">
        <ele>1104.21</ele>
        <time>2021-05-06T13:21:59Z</time>
      </trkpt>
      <trkpt lat="42.70684" lon="1.66484">
        <ele>1105.17</ele>
        <time>2021-05-06T13:22:15Z</time>
      </trkpt>
      <trkpt lat="42.70706" lon="1.66475">
        <ele>1105.17</ele>
        <time>2021-05-06T13:22:30Z</time>
      </trkpt>
      <trkpt lat="42.7073" lon="1.66479">
        <ele>1105.65</ele>
        <time>2021-05-06T13:22:46Z</time>
      </trkpt>
      <trkpt lat="42.70745" lon="1.66495">
        <ele>1107.1</ele>
        <time>2021-05-06T13:22:57Z</time>
      </trkpt>
      <trkpt lat="42.70763" lon="1.66507">
        <ele>1106.13</ele>
        <time>2021-05-06T13:23:12Z</time>
      </trkpt>
      <trkpt lat="42.70763" lon="1.66508">
        <ele>1106.13</ele>
        <time>2021-05-06T13:23:13Z</time>
      </trkpt>
      <trkpt lat="42.70764" lon="1.6652">
        <ele>1105.65</ele>
        <time>2021-05-06T13:23:22Z</time>
      </trkpt>
      <trkpt lat="42.70768" lon="1.66536">
        <ele>1105.65</ele>
        <time>2021-05-06T13:23:38Z</time>
      </trkpt>
      <trkpt lat="42.70778" lon="1.66545">
        <ele>1106.13</ele>
        <time>2021-05-06T13:23:51Z</time>
      </trkpt>
      <trkpt lat="42.7079" lon="1.66561">
        <ele>1105.65</ele>
        <time>2021-05-06T13:24:05Z</time>
      </trkpt>
      <trkpt lat="42.70793" lon="1.66564">
        <ele>1107.1</ele>
        <time>2021-05-06T13:24:07Z</time>
      </trkpt>
      <trkpt lat="42.70795" lon="1.66565">
        <ele>1107.58</ele>
        <time>2021-05-06T13:24:09Z</time>
      </trkpt>
      <trkpt lat="42.70804" lon="1.66572">
        <ele>1107.58</ele>
        <time>2021-05-06T13:24:17Z</time>
      </trkpt>
      <trkpt lat="42.70809" lon="1.66575">
        <ele>1107.58</ele>
        <time>2021-05-06T13:24:22Z</time>
      </trkpt>
      <trkpt lat="42.70812" lon="1.6658">
        <ele>1108.06</ele>
        <time>2021-05-06T13:24:26Z</time>
      </trkpt>
      <trkpt lat="42.70819" lon="1.66584">
        <ele>1109.02</ele>
        <time>2021-05-06T13:24:39Z</time>
      </trkpt>
      <trkpt lat="42.70821" lon="1.66585">
        <ele>1107.58</ele>
        <time>2021-05-06T13:24:41Z</time>
      </trkpt>
      <trkpt lat="42.70826" lon="1.66587">
        <ele>1107.58</ele>
        <time>2021-05-06T13:24:45Z</time>
      </trkpt>
      <trkpt lat="42.70834" lon="1.66584">
        <ele>1107.58</ele>
        <time>2021-05-06T13:24:50Z</time>
      </trkpt>
      <trkpt lat="42.70845" lon="1.66573">
        <ele>1109.5</ele>
        <time>2021-05-06T13:25:00Z</time>
      </trkpt>
      <trkpt lat="42.70861" lon="1.66553">
        <ele>1109.98</ele>
        <time>2021-05-06T13:25:16Z</time>
      </trkpt>
      <trkpt lat="42.70865" lon="1.66548">
        <ele>1108.54</ele>
        <time>2021-05-06T13:25:20Z</time>
      </trkpt>
      <trkpt lat="42.70868" lon="1.66543">
        <ele>1109.98</ele>
        <time>2021-05-06T13:25:24Z</time>
      </trkpt>
      <trkpt lat="42.70882" lon="1.66528">
        <ele>1110.94</ele>
        <time>2021-05-06T13:25:40Z</time>
      </trkpt>
      <trkpt lat="42.70891" lon="1.66521">
        <ele>1112.38</ele>
        <time>2021-05-06T13:25:51Z</time>
      </trkpt>
      <trkpt lat="42.709" lon="1.66508">
        <ele>1111.42</ele>
        <time>2021-05-06T13:26:03Z</time>
      </trkpt>
      <trkpt lat="42.70904" lon="1.66502">
        <ele>1113.34</ele>
        <time>2021-05-06T13:26:08Z</time>
      </trkpt>
      <trkpt lat="42.70913" lon="1.6649">
        <ele>1112.86</ele>
        <time>2021-05-06T13:26:20Z</time>
      </trkpt>
      <trkpt lat="42.70917" lon="1.66484">
        <ele>1114.79</ele>
        <time>2021-05-06T13:26:25Z</time>
      </trkpt>
      <trkpt lat="42.70922" lon="1.6648">
        <ele>1115.27</ele>
        <time>2021-05-06T13:26:34Z</time>
      </trkpt>
      <trkpt lat="42.70934" lon="1.66477">
        <ele>1117.19</ele>
        <time>2021-05-06T13:26:49Z</time>
      </trkpt>
      <trkpt lat="42.70943" lon="1.6648">
        <ele>1118.63</ele>
        <time>2021-05-06T13:27:00Z</time>
      </trkpt>
      <trkpt lat="42.70945" lon="1.6648">
        <ele>1117.19</ele>
        <time>2021-05-06T13:27:02Z</time>
      </trkpt>
      <trkpt lat="42.70947" lon="1.66481">
        <ele>1119.59</ele>
        <time>2021-05-06T13:27:03Z</time>
      </trkpt>
      <trkpt lat="42.70949" lon="1.66482">
        <ele>1119.59</ele>
        <time>2021-05-06T13:27:06Z</time>
      </trkpt>
      <trkpt lat="42.70951" lon="1.66482">
        <ele>1117.67</ele>
        <time>2021-05-06T13:27:07Z</time>
      </trkpt>
      <trkpt lat="42.70965" lon="1.66471">
        <ele>1118.15</ele>
        <time>2021-05-06T13:27:18Z</time>
      </trkpt>
      <trkpt lat="42.70973" lon="1.66475">
        <ele>1119.11</ele>
        <time>2021-05-06T13:27:33Z</time>
      </trkpt>
      <trkpt lat="42.70979" lon="1.66478">
        <ele>1118.15</ele>
        <time>2021-05-06T13:27:42Z</time>
      </trkpt>
      <trkpt lat="42.70981" lon="1.66482">
        <ele>1119.11</ele>
        <time>2021-05-06T13:27:46Z</time>
      </trkpt>
      <trkpt lat="42.70989" lon="1.66492">
        <ele>1120.07</ele>
        <time>2021-05-06T13:28:02Z</time>
      </trkpt>
      <trkpt lat="42.70991" lon="1.66499">
        <ele>1120.07</ele>
        <time>2021-05-06T13:28:08Z</time>
      </trkpt>
      <trkpt lat="42.70992" lon="1.66501">
        <ele>1119.59</ele>
        <time>2021-05-06T13:28:10Z</time>
      </trkpt>
      <trkpt lat="42.70999" lon="1.66516">
        <ele>1119.59</ele>
        <time>2021-05-06T13:28:25Z</time>
      </trkpt>
      <trkpt lat="42.71009" lon="1.66526">
        <ele>1117.67</ele>
        <time>2021-05-06T13:28:36Z</time>
      </trkpt>
      <trkpt lat="42.71028" lon="1.66527">
        <ele>1117.67</ele>
        <time>2021-05-06T13:28:51Z</time>
      </trkpt>
      <trkpt lat="42.71038" lon="1.66526">
        <ele>1116.71</ele>
        <time>2021-05-06T13:29:03Z</time>
      </trkpt>
      <trkpt lat="42.71042" lon="1.66527">
        <ele>1114.79</ele>
        <time>2021-05-06T13:29:06Z</time>
      </trkpt>
      <trkpt lat="42.71047" lon="1.66534">
        <ele>1115.75</ele>
        <time>2021-05-06T13:29:13Z</time>
      </trkpt>
      <trkpt lat="42.71049" lon="1.66534">
        <ele>1114.31</ele>
        <time>2021-05-06T13:29:15Z</time>
      </trkpt>
      <trkpt lat="42.71051" lon="1.66535">
        <ele>1113.82</ele>
        <time>2021-05-06T13:29:18Z</time>
      </trkpt>
      <trkpt lat="42.71057" lon="1.66505">
        <ele>1112.38</ele>
        <time>2021-05-06T13:29:25Z</time>
      </trkpt>
      <trkpt lat="42.71034" lon="1.6649">
        <ele>1112.38</ele>
        <time>2021-05-06T13:29:27Z</time>
      </trkpt>
      <trkpt lat="42.71011" lon="1.66476">
        <ele>1110.46</ele>
        <time>2021-05-06T13:29:31Z</time>
      </trkpt>
      <trkpt lat="42.71004" lon="1.66474">
        <ele>1110.46</ele>
        <time>2021-05-06T13:29:33Z</time>
      </trkpt>
      <trkpt lat="42.70973" lon="1.66459">
        <ele>1108.54</ele>
        <time>2021-05-06T13:29:46Z</time>
      </trkpt>
      <trkpt lat="42.70956" lon="1.6645">
        <ele>1107.58</ele>
        <time>2021-05-06T13:29:59Z</time>
      </trkpt>
      <trkpt lat="42.70955" lon="1.66449">
        <ele>1107.58</ele>
        <time>2021-05-06T13:30:00Z</time>
      </trkpt>
      <trkpt lat="42.70916" lon="1.66423">
        <ele>1106.13</ele>
        <time>2021-05-06T13:30:12Z</time>
      </trkpt>
      <trkpt lat="42.70889" lon="1.66408">
        <ele>1105.17</ele>
        <time>2021-05-06T13:30:26Z</time>
      </trkpt>
      <trkpt lat="42.70887" lon="1.66405">
        <ele>1104.21</ele>
        <time>2021-05-06T13:30:32Z</time>
      </trkpt>
      <trkpt lat="42.70887" lon="1.66402">
        <ele>1104.21</ele>
        <time>2021-05-06T13:30:35Z</time>
      </trkpt>
      <trkpt lat="42.70889" lon="1.66393">
        <ele>1103.25</ele>
        <time>2021-05-06T13:30:42Z</time>
      </trkpt>
      <trkpt lat="42.70892" lon="1.66389">
        <ele>1102.77</ele>
        <time>2021-05-06T13:30:46Z</time>
      </trkpt>
      <trkpt lat="42.70899" lon="1.66384">
        <ele>1101.81</ele>
        <time>2021-05-06T13:30:55Z</time>
      </trkpt>
      <trkpt lat="42.70909" lon="1.66393">
        <ele>1100.37</ele>
        <time>2021-05-06T13:31:08Z</time>
      </trkpt>
      <trkpt lat="42.70927" lon="1.664">
        <ele>1099.4</ele>
        <time>2021-05-06T13:31:21Z</time>
      </trkpt>
      <trkpt lat="42.70936" lon="1.66408">
        <ele>1098.44</ele>
        <time>2021-05-06T13:31:28Z</time>
      </trkpt>
      <trkpt lat="42.70955" lon="1.66431">
        <ele>1097.48</ele>
        <time>2021-05-06T13:31:45Z</time>
      </trkpt>
      <trkpt lat="42.70959" lon="1.66433">
        <ele>1096.52</ele>
        <time>2021-05-06T13:31:48Z</time>
      </trkpt>
      <trkpt lat="42.70978" lon="1.66438">
        <ele>1093.64</ele>
        <time>2021-05-06T13:32:04Z</time>
      </trkpt>
      <trkpt lat="42.70994" lon="1.66448">
        <ele>1091.71</ele>
        <time>2021-05-06T13:32:19Z</time>
      </trkpt>
      <trkpt lat="42.71019" lon="1.66453">
        <ele>1090.75</ele>
        <time>2021-05-06T13:32:35Z</time>
      </trkpt>
      <trkpt lat="42.71027" lon="1.66462">
        <ele>1090.27</ele>
        <time>2021-05-06T13:32:43Z</time>
      </trkpt>
      <trkpt lat="42.71029" lon="1.66463">
        <ele>1088.83</ele>
        <time>2021-05-06T13:32:45Z</time>
      </trkpt>
      <trkpt lat="42.71035" lon="1.66471">
        <ele>1088.83</ele>
        <time>2021-05-06T13:32:53Z</time>
      </trkpt>
      <trkpt lat="42.71039" lon="1.66474">
        <ele>1086.91</ele>
        <time>2021-05-06T13:32:56Z</time>
      </trkpt>
      <trkpt lat="42.71056" lon="1.6648">
        <ele>1085.95</ele>
        <time>2021-05-06T13:33:12Z</time>
      </trkpt>
      <trkpt lat="42.71072" lon="1.6648">
        <ele>1084.02</ele>
        <time>2021-05-06T13:33:25Z</time>
      </trkpt>
      <trkpt lat="42.71075" lon="1.6648">
        <ele>1083.06</ele>
        <time>2021-05-06T13:33:27Z</time>
      </trkpt>
      <trkpt lat="42.71087" lon="1.66485">
        <ele>1083.06</ele>
        <time>2021-05-06T13:33:36Z</time>
      </trkpt>
      <trkpt lat="42.71096" lon="1.66489">
        <ele>1081.62</ele>
        <time>2021-05-06T13:33:43Z</time>
      </trkpt>
      <trkpt lat="42.71097" lon="1.66491">
        <ele>1080.18</ele>
        <time>2021-05-06T13:33:45Z</time>
      </trkpt>
      <trkpt lat="42.71099" lon="1.66494">
        <ele>1081.62</ele>
        <time>2021-05-06T13:33:47Z</time>
      </trkpt>
      <trkpt lat="42.71107" lon="1.66506">
        <ele>1079.22</ele>
        <time>2021-05-06T13:33:57Z</time>
      </trkpt>
      <trkpt lat="42.71123" lon="1.66522">
        <ele>1077.78</ele>
        <time>2021-05-06T13:34:13Z</time>
      </trkpt>
      <trkpt lat="42.71126" lon="1.66525">
        <ele>1077.78</ele>
        <time>2021-05-06T13:34:17Z</time>
      </trkpt>
      <trkpt lat="42.71134" lon="1.66532">
        <ele>1075.37</ele>
        <time>2021-05-06T13:34:25Z</time>
      </trkpt>
      <trkpt lat="42.71146" lon="1.66541">
        <ele>1074.89</ele>
        <time>2021-05-06T13:34:38Z</time>
      </trkpt>
      <trkpt lat="42.71157" lon="1.66553">
        <ele>1074.41</ele>
        <time>2021-05-06T13:34:52Z</time>
      </trkpt>
      <trkpt lat="42.71169" lon="1.66566">
        <ele>1072.01</ele>
        <time>2021-05-06T13:35:08Z</time>
      </trkpt>
      <trkpt lat="42.71185" lon="1.66569">
        <ele>1070.57</ele>
        <time>2021-05-06T13:35:23Z</time>
      </trkpt>
      <trkpt lat="42.71189" lon="1.6657">
        <ele>1069.6</ele>
        <time>2021-05-06T13:35:28Z</time>
      </trkpt>
      <trkpt lat="42.71207" lon="1.66568">
        <ele>1068.64</ele>
        <time>2021-05-06T13:35:42Z</time>
      </trkpt>
      <trkpt lat="42.7122" lon="1.66559">
        <ele>1067.2</ele>
        <time>2021-05-06T13:35:54Z</time>
      </trkpt>
      <trkpt lat="42.71224" lon="1.66557">
        <ele>1065.76</ele>
        <time>2021-05-06T13:35:57Z</time>
      </trkpt>
      <trkpt lat="42.71224" lon="1.66557">
        <ele>1067.2</ele>
        <time>2021-05-06T13:35:58Z</time>
      </trkpt>
      <trkpt lat="42.71236" lon="1.66546">
        <ele>1066.24</ele>
        <time>2021-05-06T13:36:09Z</time>
      </trkpt>
      <trkpt lat="42.71239" lon="1.66539">
        <ele>1066.24</ele>
        <time>2021-05-06T13:36:14Z</time>
      </trkpt>
      <trkpt lat="42.71238" lon="1.66537">
        <ele>1067.68</ele>
        <time>2021-05-06T13:36:16Z</time>
      </trkpt>
      <trkpt lat="42.71233" lon="1.66535">
        <ele>1065.76</ele>
        <time>2021-05-06T13:36:21Z</time>
      </trkpt>
      <trkpt lat="42.71234" lon="1.66533">
        <ele>1068.64</ele>
        <time>2021-05-06T13:36:22Z</time>
      </trkpt>
      <trkpt lat="42.71234" lon="1.66533">
        <ele>1067.68</ele>
        <time>2021-05-06T13:36:23Z</time>
      </trkpt>
      <trkpt lat="42.71233" lon="1.66529">
        <ele>1065.76</ele>
        <time>2021-05-06T13:36:40Z</time>
      </trkpt>
      <trkpt lat="42.71238" lon="1.66528">
        <ele>1067.2</ele>
        <time>2021-05-06T13:36:43Z</time>
      </trkpt>
      <trkpt lat="42.71224" lon="1.66529">
        <ele>1068.16</ele>
        <time>2021-05-06T13:36:56Z</time>
      </trkpt>
      <trkpt lat="42.71226" lon="1.66536">
        <ele>1071.05</ele>
        <time>2021-05-06T13:37:07Z</time>
      </trkpt>
      <trkpt lat="42.71224" lon="1.66537">
        <ele>1073.93</ele>
        <time>2021-05-06T13:37:18Z</time>
      </trkpt>
      <trkpt lat="42.71243" lon="1.66537">
        <ele>1077.29</ele>
        <time>2021-05-06T13:37:30Z</time>
      </trkpt>
      <trkpt lat="42.71268" lon="1.66531">
        <ele>1078.74</ele>
        <time>2021-05-06T13:37:44Z</time>
      </trkpt>
      <trkpt lat="42.71269" lon="1.66534">
        <ele>1078.74</ele>
        <time>2021-05-06T13:37:59Z</time>
      </trkpt>
      <trkpt lat="42.71265" lon="1.66535">
        <ele>1078.74</ele>
        <time>2021-05-06T13:38:04Z</time>
      </trkpt>
      <trkpt lat="42.71267" lon="1.66533">
        <ele>1078.74</ele>
        <time>2021-05-06T13:38:09Z</time>
      </trkpt>
      <trkpt lat="42.71271" lon="1.66544">
        <ele>1078.74</ele>
        <time>2021-05-06T13:38:19Z</time>
      </trkpt>
      <trkpt lat="42.71263" lon="1.66544">
        <ele>1079.22</ele>
        <time>2021-05-06T13:38:33Z</time>
      </trkpt>
      <trkpt lat="42.71288" lon="1.66529">
        <ele>1081.62</ele>
        <time>2021-05-06T13:39:05Z</time>
      </trkpt>
      <trkpt lat="42.71294" lon="1.66531">
        <ele>1084.02</ele>
        <time>2021-05-06T13:39:33Z</time>
      </trkpt>
      <trkpt lat="42.71288" lon="1.6652">
        <ele>1085.95</ele>
        <time>2021-05-06T13:40:10Z</time>
      </trkpt>
      <trkpt lat="42.7129" lon="1.66522">
        <ele>1087.87</ele>
        <time>2021-05-06T13:40:35Z</time>
      </trkpt>
      <trkpt lat="42.71324" lon="1.6653">
        <ele>1091.23</ele>
        <time>2021-05-06T13:41:03Z</time>
      </trkpt>
      <trkpt lat="42.71371" lon="1.6655">
        <ele>1092.68</ele>
        <time>2021-05-06T13:41:32Z</time>
      </trkpt>
      <trkpt lat="42.71369" lon="1.66552">
        <ele>1092.68</ele>
        <time>2021-05-06T13:42:05Z</time>
      </trkpt>
      <trkpt lat="42.7137" lon="1.66546">
        <ele>1092.68</ele>
        <time>2021-05-06T13:42:32Z</time>
      </trkpt>
      <trkpt lat="42.71372" lon="1.66554">
        <ele>1092.2</ele>
        <time>2021-05-06T13:42:45Z</time>
      </trkpt>
      <trkpt lat="42.71371" lon="1.66551">
        <ele>1092.2</ele>
        <time>2021-05-06T13:43:10Z</time>
      </trkpt>
    </trkseg>
  </trk>
</gpx>